[[{"header":{"parameterUnit":"m.s-1","parameterCategory":1,"la1":30.6,"la2":29.2853,"lo1":-89.7004,"lo2":-87.6739,"dy":0.0162,"dx":0.0183,"nx":112,"ny":82,"refTime":"2024-07-31T06:00:00:Z","depth":0,"parameterNumber":2,"parameterNumberName":"U-component_of_WINDS"},"data":[0.0,0.0,0.0,0.0,0.0,0.0,0.0,0.0,0.0,0.0,0.0,0.0,0.0,0.0,0.0,0.0,0.0,0.0,0.0,0.0,0.0,0.0,0.0,0.0,0.0,0.0,0.0,0.0,0.0,0.0,0.0,0.0,0.0,0.0,0.0,0.0,0.0,0.0,0.0,0.0,0.0,0.0,0.0,0.0,0.0,0.0,0.0,0.0,0.0,0.0,0.0,0.0,0.0,0.0,0.0,0.0,0.0,0.0,0.0,0.0,0.0,0.0,0.0,0.0,0.0,0.0,0.0,0.0,0.0,0.0,0.0,0.0,0.0,0.0,0.0,0.0,0.0,0.0,0.0,0.0,0.0,0.0,0.0,0.0,0.0,0.0,0.0,0.0,0.0,0.0,0.0,-1.6151,-1.9934,-2.2223,-2.2296,-2.1498,-1.9481,-1.5832,0.0,0.0,0.0,0.0,0.0,0.0,0.0,0.0,0.0,0.0,0.0,0.0,0.0,0.0,0.0,0.0,0.0,0.0,0.0,0.0,0.0,0.0,0.0,0.0,0.0,0.0,0.0,0.0,0.0,0.0,0.0,0.0,0.0,0.0,0.0,0.0,0.0,0.0,0.0,0.0,0.0,0.0,0.0,0.0,0.0,0.0,0.0,0.0,0.0,0.0,0.0,0.0,0.0,0.0,0.0,0.0,0.0,0.0,0.0,0.0,0.0,0.0,0.0,0.0,0.0,0.0,0.0,0.0,0.0,0.0,0.0,0.0,0.0,0.0,0.0,0.0,0.0,0.0,0.0,0.0,0.0,0.0,0.0,0.0,0.0,0.0,0.0,0.0,0.0,0.0,0.0,0.0,0.0,0.0,0.0,0.0,0.0,0.0,0.0,0.0,0.0,0.0,0.0,0.0,-1.3425,-1.8062,-2.0457,-2.1869,-2.2268,-2.0995,-1.8865,-1.5781,0.0,0.0,0.0,0.0,0.0,0.0,0.0,0.0,0.0,0.0,0.0,0.0,0.0,0.0,0.0,0.0,0.0,0.0,0.0,0.0,0.0,0.0,0.0,0.0,0.0,0.0,0.0,0.0,0.0,0.0,0.0,0.0,0.0,0.0,0.0,0.0,0.0,0.0,0.0,0.0,0.0,0.0,0.0,0.0,0.0,0.0,0.0,0.0,0.0,0.0,0.0,0.0,0.0,0.0,0.0,0.0,0.0,0.0,0.0,0.0,0.0,0.0,0.0,0.0,0.0,0.0,0.0,0.0,0.0,0.0,0.0,0.0,0.0,0.0,0.0,0.0,0.0,0.0,0.0,0.0,0.0,0.0,0.0,0.0,0.0,0.0,0.0,0.0,0.0,0.0,0.0,0.0,0.0,0.0,0.0,0.0,0.0,0.0,0.0,0.0,0.0,0.0,0.0,-1.3195,-1.5526,-1.8917,-2.0901,-2.191,-2.1721,-2.0657,-1.8577,-1.5213,-1.431,0.0,0.0,0.0,0.0,0.0,0.0,0.0,0.0,0.0,0.0,0.0,0.0,0.0,0.0,0.0,0.0,0.0,0.0,0.0,0.0,0.0,0.0,0.0,0.0,0.0,0.0,0.0,0.0,0.0,0.0,0.0,0.0,0.0,0.0,0.0,0.0,0.0,0.0,0.0,0.0,0.0,0.0,0.0,0.0,0.0,0.0,0.0,0.0,0.0,0.0,0.0,0.0,0.0,0.0,0.0,0.0,0.0,0.0,0.0,0.0,0.0,0.0,0.0,0.0,0.0,0.0,0.0,0.0,0.0,0.0,0.0,0.0,0.0,0.0,0.0,0.0,0.0,0.0,0.0,0.0,0.0,0.0,0.0,0.0,0.0,0.0,0.0,0.0,0.0,0.0,0.0,0.0,0.0,0.0,0.0,0.0,0.0,0.0,0.0,0.0,0.0,0.0,-1.514,-1.719,-1.929,-2.1021,-2.1803,-2.1241,-2.0145,-1.8059,-1.4706,-1.3295,0.0,0.0,0.0,0.0,0.0,0.0,0.0,0.0,0.0,0.0,0.0,0.0,0.0,0.0,0.0,0.0,0.0,0.0,0.0,0.0,0.0,0.0,0.0,0.0,0.0,0.0,0.0,0.0,0.0,0.0,0.0,0.0,0.0,0.0,0.0,0.0,0.0,0.0,0.0,0.0,0.0,0.0,0.0,0.0,0.0,0.0,0.0,0.0,0.0,0.0,0.0,0.0,0.0,0.0,0.0,0.0,0.0,0.0,0.0,0.0,0.0,0.0,0.0,0.0,0.0,0.0,0.0,0.0,0.0,0.0,0.0,0.0,0.0,0.0,0.0,0.0,0.0,0.0,0.0,0.0,0.0,0.0,0.0,0.0,0.0,0.0,0.0,0.0,0.0,0.0,0.0,0.0,0.0,0.0,0.0,0.0,0.0,0.0,0.0,0.0,0.0,0.0,-1.5004,-1.7401,-1.9303,-2.0565,-2.1258,-2.119,-1.9215,-1.6971,-1.4656,-1.1816,0.0,0.0,0.0,0.0,0.0,0.0,0.0,0.0,0.0,0.0,0.0,0.0,0.0,0.0,0.0,0.0,0.0,0.0,0.0,0.0,0.0,0.0,0.0,0.0,0.0,0.0,0.0,0.0,0.0,0.0,0.0,0.0,0.0,0.0,0.0,0.0,0.0,0.0,0.0,0.0,0.0,0.0,0.0,0.0,0.0,0.0,0.0,0.0,0.0,0.0,0.0,0.0,0.0,0.0,0.0,0.0,0.0,0.0,0.0,0.0,0.0,0.0,0.0,0.0,0.0,0.0,0.0,0.0,0.0,0.0,0.0,0.0,0.0,0.0,0.0,0.0,0.0,0.0,0.0,0.0,0.0,0.0,0.0,0.0,0.0,0.0,0.0,0.0,0.0,0.0,0.0,0.0,0.0,0.0,0.0,0.0,0.0,0.0,0.0,0.0,0.0,0.0,-1.4807,-1.6815,0.0,-1.9917,-2.0281,-1.9802,-1.8555,-1.665,-1.3971,0.0,0.0,0.0,0.0,0.0,0.0,0.0,0.0,0.0,0.0,0.0,0.0,0.0,0.0,0.0,0.0,0.0,0.0,0.0,0.0,0.0,0.0,0.0,0.0,0.0,0.0,0.0,0.0,0.0,0.0,0.0,0.0,0.0,0.0,0.0,0.0,0.0,0.0,0.0,0.0,0.0,0.0,0.0,0.0,0.0,0.0,0.0,0.0,0.0,0.0,0.0,0.0,0.0,0.0,0.0,0.0,0.0,0.0,0.0,0.0,0.0,0.0,0.0,0.0,0.0,0.0,0.0,0.0,0.0,0.0,0.0,0.0,0.0,0.0,0.0,0.0,0.0,0.0,0.0,0.0,0.0,0.0,0.0,0.0,0.0,0.0,0.0,0.0,0.0,0.0,0.0,0.0,0.0,0.0,0.0,0.0,0.0,0.0,0.0,0.0,0.0,0.0,-1.3092,-1.4691,-1.6441,0.0,-1.9338,-1.9439,-1.8944,-1.7794,-1.6035,-1.3566,0.0,0.0,0.0,0.0,0.0,0.0,0.0,0.0,0.0,0.0,0.0,0.0,0.0,0.0,0.0,0.0,0.0,0.0,0.0,0.0,0.0,0.0,0.0,0.0,0.0,0.0,0.0,0.0,0.0,0.0,0.0,0.0,0.0,0.0,0.0,0.0,0.0,0.0,0.0,0.0,0.0,0.0,0.0,0.0,0.0,0.0,0.0,0.0,0.0,0.0,0.0,0.0,0.0,0.0,0.0,0.0,0.0,0.0,0.0,0.0,0.0,0.0,0.0,0.0,0.0,0.0,0.0,0.0,0.0,0.0,0.0,0.0,0.0,0.0,0.0,0.0,0.0,0.0,0.0,0.0,0.0,0.0,0.0,0.0,0.0,0.0,0.0,0.0,0.0,0.0,0.0,0.0,0.0,0.0,0.0,0.0,0.0,0.0,0.0,0.0,0.0,0.0,-1.3108,-1.4691,-1.6441,-1.864,-1.8888,-1.8888,-1.8888,-1.6864,-1.4979,0.0,0.0,0.0,0.0,0.0,0.0,0.0,0.0,0.0,0.0,0.0,0.0,0.0,0.0,0.0,0.0,0.0,0.0,0.0,0.0,0.0,0.0,0.0,0.0,0.0,0.0,0.0,0.0,0.0,0.0,0.0,0.0,0.0,0.0,0.0,0.0,0.0,0.0,0.0,0.0,0.0,0.0,0.0,0.0,0.0,0.0,0.0,0.0,0.0,0.0,0.0,0.0,0.0,0.0,0.0,0.0,0.0,0.0,0.0,0.0,0.0,0.0,0.0,0.0,0.0,0.0,0.0,0.0,0.0,0.0,0.0,0.0,0.0,0.0,0.0,0.0,0.0,0.0,0.0,0.0,0.0,0.0,0.0,0.0,0.0,0.0,0.0,0.0,0.0,0.0,0.0,0.0,0.0,0.0,0.0,0.0,0.0,0.0,0.0,0.0,0.0,0.0,0.0,0.0,-1.4691,-1.6255,-1.7946,-1.8121,-1.8121,-1.8121,-1.6576,-1.4979,-1.3498,0.0,0.0,0.0,0.0,0.0,0.0,0.0,0.0,0.0,0.0,0.0,0.0,0.0,0.0,0.0,0.0,0.0,0.0,0.0,0.0,0.0,0.0,0.0,0.0,0.0,0.0,0.0,0.0,0.0,0.0,0.0,0.0,0.0,0.0,0.0,0.0,0.0,0.0,0.0,0.0,0.0,0.0,0.0,0.0,0.0,0.0,0.0,0.0,0.0,0.0,0.0,0.0,0.0,0.0,0.0,0.0,0.0,0.0,0.0,0.0,0.0,0.0,0.0,0.0,0.0,0.0,0.0,0.0,0.0,0.0,0.0,0.0,0.0,0.0,0.0,0.0,0.0,0.0,0.0,0.0,0.0,0.0,0.0,0.0,0.0,0.0,0.0,0.0,0.0,0.0,0.0,0.0,0.0,0.0,0.0,0.0,0.0,0.0,0.0,0.0,0.0,0.0,-1.3074,-1.4691,-1.617,-1.7648,-1.78,-1.78,-1.78,-1.6458,-1.4979,-1.3498,0.0,0.0,0.0,0.0,0.0,0.0,0.0,0.0,0.0,0.0,0.0,0.0,0.0,0.0,0.0,0.0,0.0,0.0,0.0,0.0,0.0,0.0,0.0,0.0,0.0,0.0,0.0,0.0,0.0,0.0,0.0,0.0,0.0,0.0,0.0,0.0,0.0,0.0,0.0,0.0,0.0,0.0,0.0,0.0,0.0,0.0,0.0,0.0,0.0,0.0,0.0,0.0,0.0,0.0,0.0,0.0,0.0,0.0,0.0,0.0,0.0,0.0,0.0,0.0,0.0,0.0,0.0,0.0,0.0,0.0,0.0,0.0,0.0,0.0,0.0,0.0,0.0,0.0,0.0,0.0,0.0,0.0,0.0,0.0,0.0,0.0,0.0,0.0,0.0,0.0,0.0,0.0,0.0,0.0,0.0,0.0,0.0,0.0,0.0,0.0,0.0,0.0,-1.3024,-1.4691,-1.617,-1.7648,-1.78,-1.78,-1.78,-1.6458,-1.4996,-1.3591,0.0,0.0,0.0,0.0,0.0,0.0,0.0,0.0,0.0,0.0,0.0,0.0,0.0,0.0,0.0,0.0,0.0,0.0,0.0,0.0,0.0,0.0,0.0,0.0,0.0,0.0,0.0,0.0,0.0,0.0,0.0,0.0,0.0,0.0,0.0,0.0,0.0,0.0,0.0,0.0,0.0,0.0,0.0,0.0,0.0,0.0,0.0,0.0,0.0,0.0,0.0,0.0,0.0,0.0,0.0,0.0,0.0,0.0,0.0,0.0,-1.3362,0.0,0.0,0.0,0.0,0.0,0.0,0.0,0.0,0.0,0.0,0.0,0.0,0.0,0.0,0.0,0.0,0.0,0.0,0.0,0.0,0.0,0.0,0.0,0.0,0.0,0.0,0.0,0.0,0.0,0.0,0.0,0.0,0.0,0.0,0.0,0.0,0.0,0.0,0.0,0.0,0.0,-1.3091,-1.4691,-1.617,-1.7648,-1.78,-1.78,-1.78,-1.6458,-1.5223,-1.4318,0.0,0.0,0.0,0.0,0.0,0.0,0.0,0.0,0.0,0.0,0.0,0.0,0.0,0.0,0.0,0.0,0.0,0.0,0.0,0.0,0.0,0.0,0.0,0.0,0.0,0.0,0.0,0.0,0.0,0.0,0.0,0.0,0.0,0.0,0.0,0.0,0.0,0.0,0.0,0.0,0.0,0.0,0.0,0.0,0.0,0.0,0.0,0.0,0.0,0.0,0.0,0.0,0.0,0.0,0.0,0.0,0.0,0.0,0.0,0.0,0.0,-1.4043,0.0,0.0,0.0,0.0,0.0,0.0,0.0,0.0,0.0,0.0,0.0,0.0,0.0,0.0,0.0,0.0,0.0,0.0,0.0,0.0,0.0,0.0,0.0,0.0,0.0,0.0,0.0,0.0,0.0,0.0,0.0,0.0,0.0,0.0,0.0,0.0,0.0,0.0,0.0,0.0,-1.3451,-1.5132,-1.657,-1.7681,-1.78,-1.78,-1.78,-1.6762,-1.5663,-1.4571,-1.2703,0.0,0.0,0.0,0.0,0.0,0.0,0.0,0.0,0.0,0.0,0.0,0.0,0.0,0.0,0.0,0.0,0.0,0.0,0.0,0.0,0.0,0.0,0.0,0.0,0.0,0.0,0.0,0.0,0.0,0.0,0.0,0.0,0.0,0.0,0.0,0.0,0.0,0.0,0.0,0.0,0.0,0.0,0.0,0.0,0.0,0.0,0.0,0.0,0.0,0.0,0.0,0.0,0.0,-1.7349,-1.7593,-1.6863,-1.7924,-1.8102,-1.7534,-1.6696,-1.6352,-1.6237,0.0,0.0,0.0,0.0,0.0,0.0,0.0,0.0,0.0,0.0,0.0,0.0,0.0,0.0,0.0,0.0,0.0,0.0,0.0,0.0,0.0,0.0,0.0,0.0,0.0,-1.6114,-1.6188,0.0,0.0,0.0,0.0,0.0,0.0,0.0,0.0,0.0,0.0,0.0,0.0,-1.3926,-1.5618,-1.6901,-1.7631,-1.7777,-1.78,-1.78,-1.7128,-1.613,-1.4774,-1.3879,-1.2228,0.0,0.0,0.0,0.0,0.0,0.0,0.0,0.0,0.0,0.0,0.0,0.0,0.0,0.0,0.0,0.0,0.0,0.0,0.0,0.0,0.0,0.0,0.0,0.0,0.0,0.0,0.0,0.0,0.0,0.0,0.0,0.0,-1.1278,-1.121,0.0,0.0,0.0,0.0,0.0,0.0,0.0,0.0,0.0,0.0,0.0,0.0,0.0,-1.5907,-1.7577,-1.8622,-1.9417,-1.9966,-2.1078,-2.1362,-2.0917,-2.1096,-2.1126,-2.1036,-2.0895,0.0,-1.6638,-1.6353,0.0,0.0,0.0,0.0,0.0,0.0,0.0,0.0,0.0,0.0,0.0,0.0,0.0,0.0,0.0,0.0,0.0,0.0,0.0,0.0,0.0,0.0,-1.7941,-1.7429,-1.7459,-1.7459,0.0,-1.5231,-1.3391,-1.2482,-1.2052,0.0,0.0,0.0,0.0,0.0,0.0,0.0,-1.4344,-1.5554,-1.6551,-1.7285,-1.7635,-1.78,-1.78,-1.7128,-1.6333,-1.5511,-1.4166,-1.2931,-1.1891,-1.0037,0.0,0.0,0.0,0.0,0.0,0.0,0.0,0.0,0.0,0.0,0.0,0.0,0.0,0.0,0.0,0.0,0.0,0.0,0.0,0.0,0.0,0.0,0.0,0.0,0.0,0.0,0.0,0.0,0.0,-1.1129,-1.2311,-1.235,-1.2904,-1.2875,0.0,0.0,0.0,0.0,0.0,0.0,0.0,0.0,0.0,-1.7212,-1.7989,-1.8941,-2.0113,-2.0854,-2.1229,-2.1276,-2.2405,-2.2474,-2.171,-2.2104,-2.2204,-2.2083,-2.1818,-2.1012,-1.9812,-1.8679,-1.7636,-1.66,0.0,0.0,0.0,0.0,-1.5184,-1.528,-1.6394,-1.6772,0.0,-1.5891,0.0,0.0,0.0,0.0,0.0,0.0,0.0,0.0,0.0,0.0,0.0,-1.8717,-1.8822,-1.8822,-1.8822,-1.764,-1.6144,0.0,-1.4686,-1.4113,-1.1766,0.0,0.0,0.0,0.0,0.0,-1.491,-1.6394,-1.7351,-1.7313,-1.7595,-1.78,-1.78,-1.7507,-1.683,-1.5663,-1.4996,-1.3929,-1.2365,-1.134,-1.0212,0.0,0.0,0.0,0.0,0.0,0.0,0.0,0.0,0.0,0.0,0.0,0.0,0.0,0.0,0.0,0.0,0.0,0.0,0.0,0.0,0.0,0.0,0.0,0.0,0.0,0.0,0.0,0.0,-1.229,-1.3426,-1.3531,-1.4465,-1.4625,0.0,0.0,0.0,0.0,0.0,0.0,-1.5769,-1.7151,-1.8401,-1.9435,-2.0438,-2.1276,-2.1934,-2.2424,-2.2578,-2.2415,-2.3394,-2.3421,-2.2613,-2.3102,-2.326,-2.3099,-2.2744,-2.2751,-2.2873,-2.0949,-1.9845,-1.9221,-1.8058,-1.7371,-1.7096,-1.7303,-1.7393,-1.7543,-1.8587,-1.8957,-1.8792,-1.7788,0.0,-1.6894,-1.5394,0.0,0.0,0.0,0.0,-1.6159,-1.7788,-1.8292,-1.8616,-1.963,-1.9945,-1.9997,-1.9874,-1.9461,-1.8599,0.0,-1.6894,-1.6305,-1.3523,0.0,0.0,0.0,0.0,-1.5891,-1.6064,-1.7393,-1.8122,-1.7626,-1.7713,-1.78,-1.78,-1.78,-1.7157,-1.5697,-1.5595,-1.4682,-1.2677,-1.2398,-1.1509,-0.9806,0.0,0.0,0.0,0.0,0.0,0.0,0.0,0.0,0.0,0.0,0.0,0.0,0.0,0.0,0.0,0.0,0.0,0.0,0.0,0.0,0.0,0.0,0.0,0.0,0.0,0.0,0.0,0.0,0.0,-1.4758,-1.6383,0.0,0.0,0.0,0.0,-1.4751,-1.6443,-1.7819,-1.8478,-1.9779,-2.0827,-2.153,-2.1605,-2.1964,-2.2643,-2.3115,-2.3665,-2.4276,-2.4831,-2.5083,-2.5029,-2.5061,-2.5064,-2.5051,-2.5032,-2.4892,-2.4552,-2.2925,-2.145,-2.029,-2.0703,-2.0057,-1.8904,-1.9171,-1.9261,-1.9288,-1.9567,-1.9648,-1.9648,-1.9573,-1.8687,-1.7655,-1.7534,-1.7071,0.0,0.0,-1.8012,-1.8672,-1.9405,-1.9876,-2.0186,-2.0248,-2.06,-2.0813,-2.0365,-2.0232,-1.9882,0.0,-1.8057,-1.7414,-1.6577,0.0,-1.6502,-1.6457,-1.692,-1.7518,-1.8159,-1.8334,-1.8383,-1.8347,-1.8019,-1.78,-1.78,-1.78,-1.7157,-1.5697,-1.5595,-1.4928,-1.3413,-1.2677,-1.2246,-1.2128,-1.0009,0.0,0.0,0.0,0.0,0.0,0.0,0.0,0.0,0.0,0.0,0.0,0.0,0.0,0.0,0.0,0.0,0.0,0.0,0.0,0.0,0.0,0.0,0.0,0.0,0.0,0.0,0.0,0.0,-1.7237,-1.8298,0.0,0.0,-1.8553,-1.8852,-1.8612,-1.9645,-2.0378,-2.0617,-2.1485,-2.2104,-2.2343,-2.2712,-2.32,-2.38,-2.4312,-2.4676,-2.4914,-2.5449,-2.5524,-2.5202,-2.5202,-2.5392,-2.5689,-2.5354,-2.5341,-2.5531,-2.4948,-2.404,-2.2946,-2.2358,-2.1819,-2.1299,-2.0655,-2.0238,-1.9987,-2.0064,-1.9927,-1.9708,-1.9708,-1.9393,-1.8986,-1.8986,-1.8822,-1.8687,-1.8927,-1.9151,-1.9408,-1.9648,-1.9818,-1.9982,-2.0229,-2.0433,-2.05,-2.0348,-2.0297,-2.0116,-1.9481,-1.9151,-1.8642,-1.7533,-1.7713,-1.7682,-1.6831,-1.7823,-1.861,-1.8423,-1.9187,-1.9405,-1.8495,-1.8466,-1.8318,-1.7834,-1.7354,-1.6671,-1.5663,-1.5155,-1.4445,-1.3447,-1.3159,-1.2542,-1.1553,-1.0731,-0.9613,0.0,0.0,0.0,0.0,0.0,0.0,0.0,0.0,0.0,0.0,0.0,0.0,0.0,0.0,0.0,0.0,0.0,0.0,0.0,0.0,0.0,0.0,0.0,0.0,0.0,0.0,-1.8047,-1.8931,-1.9842,-2.0292,-2.0049,-2.0647,-2.1051,-2.1051,-2.1665,-2.2044,-2.2044,-2.2658,-2.3002,-2.3002,-2.361,-2.4113,-2.4468,-2.5174,-2.555,-2.555,-2.6021,-2.605,-2.5709,-2.5709,-2.5908,-2.6227,-2.5872,-2.5817,-2.6013,-2.6174,-2.5747,-2.4927,-2.4028,-2.3532,-2.3185,-2.2312,-2.1534,-2.0829,-2.0287,-1.9927,-1.9708,-1.9708,-1.9708,-1.9708,-1.9708,-1.9708,-1.9708,-1.9708,-1.9708,-1.9708,-1.9708,-1.9925,-2.0174,-2.0263,-2.0517,-2.065,-2.035,-2.0297,-2.0193,-1.9782,-1.9708,-1.9423,-1.8538,-1.8852,-1.8938,-1.8045,-1.9185,-1.9988,-1.9543,-2.0221,-2.0276,-1.9076,-1.8925,-1.8606,-1.785,-1.7128,-1.6485,-1.5994,-1.5054,-1.4284,-1.3794,-1.3286,-1.2542,-1.1519,-1.1238,-1.025,-0.8536,0.0,0.0,0.0,0.0,0.0,0.0,0.0,0.0,0.0,0.0,0.0,0.0,0.0,0.0,0.0,0.0,0.0,0.0,0.0,0.0,0.0,0.0,0.0,-1.7137,-1.8279,-1.9324,-1.9741,-2.0951,-2.1485,-2.0838,-2.138,-2.1769,-2.1784,-2.2403,-2.2763,-2.2793,-2.3325,-2.3655,-2.3655,-2.4291,-2.4634,-2.4657,-2.5707,-2.6242,-2.6246,-2.6575,-2.6725,-2.6725,-2.6708,-2.6691,-2.6691,-2.6691,-2.6436,-2.6067,-2.6505,-2.6436,-2.5984,-2.5698,-2.5152,-2.4478,-2.4081,-2.3178,-2.1917,-2.0294,-1.9756,-1.9741,-1.9708,-1.9708,-1.9708,-1.9708,-1.9708,-1.9708,-1.9726,-1.9711,-1.9711,-1.9744,-2.0362,-2.0878,-2.0433,-2.0975,-2.1337,-2.0501,-2.0331,-2.021,-1.9818,-1.9729,-1.9744,-1.9711,-2.0037,-2.0331,-2.0331,-2.1038,0.0,-2.1597,-2.1382,-2.0923,-2.0132,-1.9401,-1.8657,-1.7901,-1.7162,-1.6716,-1.6665,-1.5308,-1.4504,-1.4504,-1.3126,-1.2365,-1.2331,-1.1519,-1.0758,-1.0028,0.0,0.0,0.0,0.0,0.0,0.0,0.0,0.0,0.0,0.0,0.0,0.0,0.0,0.0,0.0,0.0,0.0,0.0,0.0,0.0,0.0,0.0,-1.8425,-1.8245,-1.981,-2.1207,-2.1789,-2.2209,-2.2523,-2.2787,-2.2966,-2.3281,-2.3767,-2.3962,-2.4298,-2.4777,-2.4956,-2.5061,-2.5061,-2.5241,-2.55,-2.5892,-2.663,-2.7186,-2.7584,-2.752,-2.7503,-2.7486,-2.6945,-2.6691,-2.6691,-2.6691,-2.6624,-2.6521,-2.6657,-2.6624,-2.6437,-2.5847,-2.549,-2.5221,-2.4569,-2.3948,-2.3177,-2.1567,-2.1013,-2.0865,-1.9984,-1.9708,-1.9708,-1.9708,-1.9708,-1.9764,-2.0037,-2.0141,-2.021,-2.0549,-2.0813,-2.0959,-2.0845,-2.0991,-2.1102,-2.0862,-2.0813,-2.078,-2.0665,-2.0632,-2.0532,-2.0193,-2.0515,-2.0813,-2.0813,-2.126,0.0,-2.1597,-2.1833,-2.1701,-2.0953,-2.0699,-2.0039,-1.8707,-1.7929,-1.7033,-1.5977,-1.5011,-1.4504,-1.4504,-1.4115,-1.365,-1.31,-1.178,-1.0946,0.0,0.0,0.0,0.0,0.0,0.0,0.0,0.0,0.0,0.0,0.0,0.0,0.0,0.0,0.0,0.0,0.0,0.0,0.0,0.0,0.0,0.0,-1.9119,-2.0382,-2.0382,-2.1385,-2.2358,-2.3002,-2.3092,-2.3325,-2.3969,-2.4007,-2.4291,-2.4963,-2.5023,-2.5187,-2.5585,-2.5615,-2.5615,-2.5615,-2.5869,-2.6169,-2.6481,-2.7312,-2.789,-2.818,-2.8252,-2.8146,-2.779,-2.735,-2.6996,0.0,-2.6691,-2.659,-2.6419,-2.6624,-2.6573,0.0,0.0,0.0,0.0,0.0,-2.4563,-2.4148,-2.2716,-2.2072,-2.1711,-2.0745,-2.0424,-2.0327,-2.0038,-1.9947,-2.0035,-2.0466,-2.0449,-2.0416,-2.0878,-2.1118,-2.1213,-2.1039,-2.1118,-2.1213,-2.1039,-2.0991,-2.0991,-2.0991,-2.115,0.0,-2.0878,-2.107,-2.1244,-2.1244,-2.1613,-2.1899,-2.1899,-2.212,-2.2023,-2.1275,-2.119,-2.0581,-1.9041,-1.8217,0.0,0.0,0.0,-1.4673,-1.4056,-1.4334,0.0,0.0,0.0,0.0,0.0,0.0,0.0,0.0,-1.1157,-1.0856,0.0,0.0,0.0,0.0,0.0,0.0,0.0,0.0,0.0,0.0,0.0,0.0,0.0,0.0,0.0,0.0,-2.11,-2.2718,-2.2793,-2.2808,-2.3002,-2.3535,-2.367,-2.3954,-2.4545,-2.4664,-2.4993,-2.5674,-2.5719,-2.5749,-2.5824,0.0,0.0,0.0,0.0,-2.6692,-2.6692,-2.784,-2.8419,-2.8425,-2.8904,-2.8704,-2.7925,-2.7841,-2.7384,-2.6691,-2.6691,-2.6453,-2.612,-2.6539,-2.6453,-2.612,-2.6539,-2.6691,-2.6573,-2.5563,-2.5194,-2.5027,-2.3807,0.0,0.0,-2.1811,-2.1457,-2.1213,-2.0567,-2.0348,-2.0416,-2.0926,-2.0764,-2.055,-2.1023,-2.1415,-2.1583,-2.1182,-2.1337,-2.1491,-2.1134,-2.1055,-2.1071,-2.115,-2.143,-2.1673,-2.1673,-2.1673,-2.1673,-2.1673,-2.2032,-2.2296,-2.2296,-2.2296,-2.2057,-2.1393,0.0,0.0,-1.9283,-1.8488,-1.7969,-1.7817,-1.6492,-1.5148,-1.3837,-1.4394,-1.4445,-1.3786,-1.4327,-1.4943,-1.5595,-1.5595,-1.552,-1.5311,-1.2996,-1.2546,0.0,0.0,0.0,0.0,0.0,0.0,0.0,0.0,0.0,0.0,0.0,0.0,0.0,0.0,0.0,-2.0842,-2.2014,-2.2868,-2.3355,-2.343,-2.346,-2.3595,-2.4066,-2.4455,-2.459,-2.5083,-2.5689,-2.6348,-2.6408,-2.6632,-2.718,-2.721,0.0,-2.721,-2.7345,-2.7405,-2.7405,-2.8583,-2.9198,-2.9198,0.0,0.0,-2.8756,-2.8094,-2.7384,-2.6691,-2.6691,-2.6657,-2.6573,-2.6657,-2.6657,-2.6573,-2.6657,-2.6691,-2.6674,-2.6455,-2.6371,-2.6219,-2.5043,-2.4573,-2.4222,-2.2532,-2.1755,-2.1383,-2.0985,-2.06,0.0,-2.1259,-2.143,-2.146,-2.193,-2.2106,-2.2063,-2.1598,-2.1536,-2.1582,-2.1491,-2.1476,-2.1598,-2.1974,-2.2106,-2.2149,-2.2149,-2.2149,-2.2149,-2.2149,-2.2237,-2.2296,-2.2296,-2.2296,-2.2245,-2.2107,-2.209,-2.1735,-2.0835,-2.0031,-1.9068,-1.7884,-1.6965,-1.636,-1.6072,-1.6197,-1.6197,-1.6072,-1.5622,-1.546,-1.5595,-1.5595,-1.588,-1.6378,-1.51,-1.4368,0.0,0.0,0.0,0.0,0.0,0.0,0.0,0.0,0.0,0.0,0.0,-1.755,0.0,0.0,-2.1021,-2.2044,-2.2733,-2.3272,-2.355,-2.3595,-2.3595,-2.3595,-2.3909,-2.435,-2.5038,-2.5397,-2.6019,-2.7031,-2.7106,-2.7255,-2.7585,-2.76,-2.76,-2.76,-2.76,-2.76,-2.76,-2.8496,-2.9088,-2.9406,-2.993,-2.9976,-2.9533,-2.9125,-2.8314,-2.7249,-2.7249,-2.7046,-2.6691,-2.6691,-2.6691,-2.6691,-2.6691,-2.6691,-2.6691,-2.6691,-2.6691,-2.6624,-2.6051,-2.5695,-2.5287,-2.3979,-2.3365,-2.2982,-2.2118,-2.1682,-2.1553,-2.1864,-2.1779,-2.1703,-2.218,-2.2296,-2.2237,-2.2003,-2.1943,-2.1943,-2.1943,-2.1943,-2.2017,-2.2237,-2.2296,-2.2296,-2.2296,-2.2296,-2.2296,-2.2296,-2.2296,-2.2296,-2.2296,-2.2296,-2.2296,-2.2296,-2.2296,-2.2006,-2.1258,-2.0128,-1.9147,-1.8403,-1.7659,-1.7077,-1.6716,-1.7061,-1.7077,-1.6716,-1.6695,-1.6712,-1.6712,-1.6712,-1.6898,-1.7236,-1.6735,-1.6157,0.0,0.0,0.0,0.0,0.0,0.0,0.0,0.0,-1.6922,-1.8207,-1.9346,-2.0288,-2.0961,-2.1964,-2.2778,-2.3032,-2.3475,-2.3849,-2.3969,-2.3879,-2.3789,-2.3789,-2.3789,-2.4283,-2.5495,-2.5719,-2.6303,-2.751,-2.76,-2.76,-2.76,-2.76,-2.76,-2.76,-2.76,-2.76,-2.76,-2.8213,-2.8732,-2.9225,-2.9973,-3.0174,-2.9938,-3.0051,-2.9261,-2.779,-2.7655,-2.7249,-2.6691,-2.6691,-2.6691,-2.6691,-2.6691,-2.6691,-2.6691,-2.6691,-2.6691,-2.6691,-2.6691,-2.6453,-2.6006,-2.5344,-2.4977,-2.4593,-2.3239,-2.2777,-2.2643,-2.2382,-2.2032,-2.1823,-2.2194,-2.2296,-2.2296,-2.2296,-2.2296,-2.2296,-2.2296,-2.2296,-2.2296,-2.2296,-2.2296,-2.2296,-2.2296,-2.2296,-2.2296,-2.2296,-2.2296,-2.2296,-2.2296,-2.2296,-2.2296,-2.2296,-2.2296,-2.2006,-2.1258,-1.9921,-1.9046,-1.891,-1.8217,-1.754,-1.6942,-1.749,-1.7523,-1.6925,-1.7507,-1.78,-1.78,-1.78,-1.78,-1.78,-1.78,-1.7467,-1.4276,-1.4482,0.0,-1.6186,-1.6576,-1.7502,0.0,0.0,-1.9648,-2.0976,-2.1365,-2.168,-2.2358,-2.2598,-2.3077,-2.4201,-2.444,-2.4694,-2.53,-2.4859,-2.4485,-2.4485,-2.4485,-2.4784,-2.554,-2.6138,-2.6806,-2.754,-2.76,-2.76,-2.76,-2.76,-2.76,-2.76,-2.76,-2.76,-2.76,-2.8213,-2.8535,-2.8614,-2.9761,-2.9955,-2.9307,-2.9864,-2.9261,-2.7773,-2.7114,-2.6776,-2.6691,-2.6691,-2.6691,-2.6691,-2.6691,-2.6691,-2.6691,-2.6691,-2.6691,-2.6691,-2.6691,-2.6674,-2.6506,-2.578,-2.528,-2.4762,-2.3649,-2.3026,-2.2643,-2.2382,-2.2268,-2.2223,-2.2282,-2.2296,-2.2296,-2.2296,-2.2296,-2.2296,-2.2296,-2.2296,-2.2296,-2.2296,-2.2296,-2.2296,-2.2296,-2.2296,-2.2296,-2.2296,-2.2296,-2.2296,-2.2296,-2.2296,-2.2296,-2.2296,-2.2296,-2.2006,-2.1258,-2.0399,-1.9592,-1.8944,-1.8217,-1.7766,-1.7693,-1.7749,-1.7766,-1.7693,-1.7749,-1.78,-1.78,-1.78,-1.78,-1.78,-1.78,-1.7595,-1.6737,0.0,0.0,0.0,-1.9401,-2.0104,-2.1419,-2.158,-2.161,-2.2179,-2.2547,-2.2892,-2.3182,-2.3206,-2.3535,0.0,-2.4605,-2.4829,-2.551,-2.5023,-2.4605,-2.4605,-2.4261,-2.4448,-2.551,-2.5854,-2.6452,-2.7525,-2.76,-2.76,-2.76,-2.76,-2.76,-2.76,-2.76,-2.76,-2.76,-2.786,-2.8165,-2.8511,-2.9361,-2.981,-2.9869,-3.0465,-2.9922,-2.8484,-2.818,-2.7537,-2.6725,-2.7165,-2.7097,-2.6691,-2.6691,-2.6691,-2.6691,-2.6691,-2.6691,-2.6691,-2.6691,-2.6691,-2.664,-2.6336,-2.5848,-2.5178,-2.4309,-2.3592,-2.2983,-2.2439,-2.2296,-2.2296,-2.2296,-2.2296,-2.2296,-2.2296,-2.2296,-2.2296,-2.2296,-2.2296,-2.2296,-2.2296,-2.2296,-2.2296,-2.2296,-2.2296,-2.2296,-2.2296,-2.2296,-2.2296,-2.2296,-2.2296,-2.2296,-2.2296,-2.2296,-2.2192,-2.187,-2.1143,-2.0568,-2.0259,-1.9507,-1.8882,-1.8454,-1.8437,-1.8251,-1.78,-1.78,-1.78,-1.78,-1.78,-1.802,-1.8437,-1.8437,-1.8603,-1.8447,0.0,0.0,-2.1036,-2.162,-2.2054,-2.2428,-2.2727,-2.2957,-2.2957,-2.3295,-2.3595,-2.3595,-2.3595,0.0,-2.4739,-2.4874,-2.5227,-2.6255,-2.5651,-2.5175,-2.5323,-2.4567,-2.4506,-2.5651,-2.5515,-2.5884,-2.7225,-2.7489,-2.7589,-2.761,-2.776,-2.776,-2.7625,-2.76,-2.76,-2.76,-2.76,-2.781,-2.8262,-2.8873,-2.9473,-3.0064,-3.0637,-3.0311,-2.9279,-2.9094,-2.8248,-2.7046,-2.757,-2.7385,-2.6691,-2.6691,-2.6691,-2.6691,-2.6691,-2.6691,-2.6691,-2.6691,-2.6691,-2.6691,-2.6691,-2.6201,-2.5456,-2.4728,-2.3983,-2.3241,-2.2513,-2.2296,-2.2296,-2.2296,-2.2296,-2.2296,-2.2296,-2.2296,-2.2296,-2.2296,-2.2296,-2.2296,-2.2296,-2.2296,-2.2296,-2.2296,-2.2296,-2.2296,-2.2296,-2.2296,-2.2296,-2.2296,-2.2296,-2.2296,-2.2296,-2.2296,-2.2296,-2.2296,-2.1617,-2.119,-2.119,-2.0437,-1.9761,-1.9232,-1.9198,-1.886,-1.8115,-1.8104,-1.8104,-1.8104,-1.8104,-1.8488,-1.9198,-1.9198,-1.9621,0.0,0.0,-2.0991,-2.2313,-2.2643,-2.2981,-2.4231,-2.4007,-2.3565,-2.3565,-2.3595,-2.3595,-2.3595,-2.3595,-2.4029,-2.536,-2.5561,-2.6232,-2.8144,-2.7218,-2.6551,-2.7158,-2.5991,-2.5412,0.0,-2.5231,-2.5187,-2.6512,-2.7155,-2.754,-2.7605,-2.8165,-2.8198,-2.7625,-2.76,-2.76,-2.76,-2.76,-2.7625,-2.7635,-2.8238,-2.885,-2.9441,-2.9922,-3.0125,-3.004,-2.9314,-2.8518,-2.7773,-2.779,-2.7385,-2.6691,-2.6691,-2.6691,-2.6691,-2.6691,-2.6691,-2.6691,-2.6691,-2.6691,-2.6691,-2.6691,-2.6201,-2.5456,-2.4728,-2.3983,-2.3241,-2.2513,-2.2296,-2.2296,-2.2296,-2.2296,-2.2296,-2.2296,-2.2296,-2.2296,-2.2296,-2.2296,-2.2296,-2.2296,-2.2296,-2.2296,-2.2296,-2.2296,-2.2296,-2.2296,-2.2296,-2.2296,-2.2296,-2.2296,-2.2296,-2.2296,-2.2296,-2.2296,-2.2296,-2.1617,-2.119,-2.119,-2.0437,-1.9985,-1.9968,-1.9968,-1.9625,-1.8877,-1.8872,-1.8872,-1.8872,-1.8872,-1.9249,-1.9968,-1.9968,-2.0403,0.0,0.0,-2.2847,-2.3744,-2.4298,-2.4627,-2.4605,-2.4425,-2.4007,-2.3176,-2.3237,-2.3275,-2.2832,-2.274,-2.3183,-2.4521,-2.4859,-2.5613,-2.7543,-2.7434,-2.717,-2.7295,-2.6924,0.0,0.0,0.0,0.0,-2.7621,-2.7933,-2.8074,-2.8192,-2.8391,-2.8238,-2.7625,-2.76,-2.76,-2.76,-2.76,-2.781,-2.8213,-2.9203,-2.9805,-3.0021,-3.0587,-3.0565,-3.0091,-2.9837,-2.9008,-2.7807,-2.7807,-2.7385,-2.6691,-2.6691,-2.6691,-2.6691,-2.6691,-2.6691,-2.6691,-2.6691,-2.6691,-2.6691,-2.6691,-2.6201,-2.5456,-2.4728,-2.3983,-2.3241,-2.2513,-2.2296,-2.2296,-2.2296,-2.2296,-2.2296,-2.2296,-2.2296,-2.2296,-2.2296,-2.2296,-2.2296,-2.2296,-2.2296,-2.2296,-2.2296,-2.2296,-2.2296,-2.2296,-2.2296,-2.2296,-2.2296,-2.2296,-2.2296,-2.2296,-2.2296,-2.2296,-2.2296,-2.206,-2.1921,-2.1921,-2.1671,-2.1299,-2.0822,-2.0788,-2.0433,-1.9642,-1.9625,-1.9625,-1.9625,-1.9625,-2.0031,-2.0788,-2.0788,-2.1194,0.0,-2.3146,-2.4193,-2.5083,-2.5277,-2.5187,-2.4993,-2.441,-2.3728,-2.3045,-2.2928,-2.2863,-2.2599,-2.254,-2.2935,-2.4102,-2.4606,-2.5565,-2.7534,-2.7805,-2.7898,-2.8262,-2.8125,0.0,0.0,0.0,0.0,-2.8281,-2.8528,-2.8698,-2.8818,-2.9035,-2.8857,-2.8255,-2.8231,-2.8231,-2.8231,-2.8231,-2.8343,-2.8511,-2.9717,-3.0187,-3.0,-3.055,-3.0548,-3.0091,-2.982,-2.8991,-2.7807,-2.7807,-2.7385,-2.6691,-2.6691,-2.6691,-2.6691,-2.6691,-2.6691,-2.6691,-2.6691,-2.6691,-2.6691,-2.6691,-2.6201,-2.5507,-2.5033,-2.4188,-2.3291,-2.2835,-2.2499,-2.2296,-2.2296,-2.2296,-2.2296,-2.2296,-2.2296,-2.2296,-2.2296,-2.2296,-2.2296,-2.2296,-2.2296,-2.2296,-2.2296,-2.2296,-2.2296,-2.2296,-2.2296,-2.2296,-2.2296,-2.2296,-2.2296,-2.2296,-2.2296,-2.2296,-2.2296,-2.2296,-2.2296,-2.2296,-2.2296,-2.209,-2.1613,-2.1583,-2.1228,-2.0437,-2.0433,-2.0433,-2.0433,-2.0433,-2.0839,-2.1583,-2.1583,-2.1854,-2.331,-2.4178,-2.5008,-2.6318,-2.5674,-2.4844,-2.5412,-2.411,-2.2853,-2.3093,-2.2674,-2.2362,0.0,0.0,-2.3154,-2.4022,-2.4807,-2.6018,-2.8105,-2.8399,-2.8825,0.0,0.0,0.0,0.0,0.0,0.0,-2.8575,0.0,-2.937,-2.9441,-2.9995,-3.0021,-2.9429,-2.9406,-2.9406,-2.9406,-2.9429,-2.9134,-2.8559,-2.9761,-3.0038,-2.9464,-2.9939,-3.0142,-3.0074,-2.9331,-2.8535,-2.7807,-2.7756,-2.7317,-2.6691,-2.6691,-2.6691,-2.6691,-2.6691,-2.6691,-2.6691,-2.6691,-2.6691,-2.6691,-2.6691,-2.6234,-2.5643,-2.5609,-2.4611,-2.3444,-2.341,-2.2868,-2.2296,-2.2296,-2.2296,-2.2296,-2.2296,-2.2296,-2.2296,-2.2296,-2.2296,-2.2296,-2.2296,-2.2296,-2.2296,-2.2296,-2.2296,-2.2296,-2.2296,-2.2296,-2.2296,-2.2296,-2.2296,-2.2296,-2.2296,-2.2296,-2.2296,-2.2296,-2.2296,-2.2296,-2.2296,-2.2296,-2.2296,-2.2296,-2.2296,-2.1986,-2.1285,-2.1268,-2.1281,-2.1294,-2.1281,-2.1641,-2.2307,-2.231,-2.2296,-2.3992,-2.5187,-2.6288,-2.7136,-2.6692,-2.5869,-2.5038,-2.4373,-2.334,-2.139,-2.1362,-2.1246,-1.9767,0.0,0.0,-2.2101,-2.3911,0.0,-2.7987,-2.9136,0.0,0.0,0.0,-3.0412,-2.9871,-3.0311,0.0,0.0,-3.0127,-2.9949,-3.0053,-3.0208,-3.0021,-2.9429,-2.9406,-2.9406,-2.9406,-2.9865,-2.9761,-2.918,-3.0377,-3.0658,-3.0086,-3.0674,-3.0615,-3.0074,-2.9331,-2.8535,-2.7756,-2.7215,-2.686,-2.6691,-2.6691,-2.6691,-2.6691,-2.6691,-2.6691,-2.6691,-2.6691,-2.6691,-2.6691,-2.6691,-2.6573,-2.6319,-2.5778,-2.4949,-2.4101,-2.3545,-2.2868,-2.2296,-2.2296,-2.2296,-2.2296,-2.2296,-2.2296,-2.2296,-2.2296,-2.2296,-2.2296,-2.2296,-2.2296,-2.2296,-2.2296,-2.2296,-2.2296,-2.2296,-2.2296,-2.2296,-2.2296,-2.2296,-2.2296,-2.2296,-2.2296,-2.2296,-2.2296,-2.2296,-2.2296,-2.2296,-2.2296,-2.2296,-2.2296,-2.2296,-2.2317,-2.2324,-2.2319,-2.2448,-2.2697,-2.2448,-2.2423,-2.2599,-2.2385,-2.2296,-2.5136,-2.6243,-2.7136,-2.751,-2.7037,-2.6145,-2.4744,-2.3835,-2.2635,-2.0288,-1.9959,0.0,0.0,0.0,0.0,0.0,0.0,0.0,-2.746,-2.8929,-3.0004,0.0,-3.0954,0.0,-3.1072,-3.1427,-3.1684,0.0,-3.1004,-3.0614,-3.0703,-3.0699,-3.0539,-3.0208,-3.0187,-3.0187,-3.0187,-3.0518,-3.0393,-2.9805,-3.074,-3.0878,-3.0314,-3.0599,-3.0497,-3.004,0.0,-2.823,-2.7739,-2.6996,-2.6691,-2.6691,-2.6691,-2.6691,-2.6691,-2.6691,-2.6691,-2.6691,-2.6691,-2.6691,-2.6691,-2.6691,-2.6691,-2.6623,-2.6201,-2.5354,-2.4406,-2.4,-2.3122,-2.2296,-2.2296,-2.2296,-2.2296,-2.2296,-2.2296,-2.2296,-2.2296,-2.2296,-2.2296,-2.2296,-2.2296,-2.2296,-2.2296,-2.2296,-2.2296,-2.2296,-2.2296,-2.2296,-2.2296,-2.2296,-2.2296,-2.2296,-2.2296,-2.2296,-2.2296,-2.2296,-2.2296,-2.2296,-2.2296,-2.2296,-2.2296,-2.2412,-2.255,-2.2695,-2.2708,-2.2797,-2.2984,-2.2678,-2.251,-2.2527,-2.236,-2.2296,-2.6153,-2.7031,-2.757,-2.748,-2.6853,-2.5845,-2.4286,-2.2823,-2.1263,-1.94,0.0,0.0,-1.7575,0.0,-1.9887,-2.0424,0.0,-2.5266,-2.7001,-2.8444,-2.9766,-3.0951,-3.1151,-3.1444,-3.209,-3.2158,-3.2158,-3.2158,-3.1546,-3.119,-3.119,-3.119,-3.119,-3.119,-3.119,-3.119,-3.119,-3.119,-3.0955,-3.0435,-3.0938,-3.0935,-3.0418,-3.03,-3.0192,-3.0023,0.0,0.0,-2.7739,-2.6996,-2.6691,-2.6691,-2.6691,-2.6691,-2.6691,-2.6691,-2.6691,-2.6691,-2.6691,-2.6691,-2.6691,-2.6691,-2.6691,-2.6691,-2.6691,-2.5675,-2.4491,-2.4491,-2.3427,-2.2296,-2.2296,-2.2296,-2.2296,-2.2296,-2.2296,-2.2296,-2.2296,-2.2296,-2.2296,-2.2296,-2.2296,-2.2296,-2.2296,-2.2296,-2.2296,-2.2296,-2.2296,-2.2296,-2.2296,-2.2296,-2.2296,-2.2296,-2.2296,-2.2296,-2.2296,-2.2296,-2.2296,-2.2296,-2.2296,-2.2324,-2.2349,-2.259,-2.2746,-2.2835,-2.2835,-2.286,-2.291,-2.2584,-2.2415,-2.2432,-2.2352,-2.2296,-2.5719,-2.6686,-2.7465,-2.6926,-2.613,-2.497,-2.2996,-2.1586,0.0,0.0,0.0,-1.6783,-1.6109,-1.7191,0.0,-2.0746,0.0,0.0,0.0,0.0,-3.0074,0.0,0.0,0.0,0.0,0.0,0.0,0.0,0.0,0.0,-3.119,-3.119,-3.119,-3.119,-3.119,-3.119,-3.119,-3.119,-3.1151,-3.1055,-3.1151,-3.1151,-3.1035,-3.1016,-3.0683,-3.0057,-2.9161,0.0,-2.7739,-2.6996,-2.6691,-2.6691,-2.6691,-2.6691,-2.6691,-2.6691,-2.6691,-2.6691,-2.6691,-2.6691,-2.6691,-2.6691,-2.6691,-2.6691,-2.6691,-2.5675,-2.4491,-2.4491,-2.3427,-2.2296,-2.2296,-2.2296,-2.2296,-2.2296,-2.2296,-2.2296,-2.2296,-2.2296,-2.2296,-2.2296,-2.2296,-2.2296,-2.2296,-2.2296,-2.2296,-2.2296,-2.2296,-2.2296,-2.2296,-2.2296,-2.2296,-2.2296,-2.2296,-2.2296,-2.2296,-2.2296,-2.2296,-2.2296,-2.2296,-2.2402,-2.2625,-2.2686,-2.296,-2.3522,-2.3533,-2.3671,-2.3937,-2.3341,-2.3038,-2.3026,-2.2535,-2.2296,-2.5839,-2.6823,-2.7466,-2.7113,-2.6567,-2.5465,-2.2923,0.0,0.0,0.0,0.0,-1.5325,-1.4589,0.0,0.0,0.0,0.0,0.0,0.0,0.0,0.0,0.0,0.0,0.0,0.0,0.0,0.0,0.0,0.0,0.0,-3.1207,-3.119,-3.119,-3.119,-3.119,-3.1055,-3.074,-3.1035,-3.1035,-3.074,-3.1055,-3.119,-3.119,-3.119,-3.0801,-3.0074,-2.9331,0.0,-2.7739,-2.6996,-2.6691,-2.6691,-2.6691,-2.6691,-2.6691,-2.6691,-2.6691,-2.6691,-2.6691,-2.6691,-2.6691,-2.6691,-2.6691,-2.6691,-2.6691,-2.5675,-2.4491,-2.4491,-2.3427,-2.2296,-2.2296,-2.2296,-2.2296,-2.2296,-2.2296,-2.2296,-2.2296,-2.2296,-2.2296,-2.2296,-2.2412,-2.2514,-2.2514,-2.2514,-2.2567,-2.2734,-2.2494,-2.2349,-2.2487,-2.2388,-2.2296,-2.2296,-2.2296,-2.2296,-2.2296,-2.2296,-2.2296,-2.2296,-2.244,-2.2577,-2.2695,-2.3033,-2.3369,-2.3692,-2.3703,-2.3692,-2.3682,-2.3177,-2.2865,-2.2708,-2.2429,-2.2296,-2.5704,-2.6702,-2.7209,-2.7017,-2.6707,-2.5701,-2.2916,-2.086,0.0,0.0,0.0,-1.4141,-1.3709,0.0,0.0,0.0,0.0,0.0,0.0,0.0,0.0,0.0,0.0,0.0,0.0,0.0,0.0,0.0,0.0,0.0,-3.1224,-3.119,-3.119,-3.119,-3.1075,-3.0838,-3.0497,-3.0838,-3.0838,-3.0497,-3.0975,-3.119,-3.119,-3.119,-3.0801,-3.0074,-2.9331,0.0,0.0,-2.6996,-2.6691,-2.6691,-2.6691,-2.6691,-2.6691,-2.6691,-2.6691,-2.6691,-2.6691,-2.6691,-2.6691,-2.6691,-2.6691,-2.6691,-2.6691,-2.5675,-2.4491,-2.4491,-2.3427,-2.2307,-2.236,-2.2388,-2.2388,-2.2388,-2.2335,-2.2296,-2.2296,-2.2296,-2.2324,-2.2374,-2.2563,-2.2721,-2.2797,-2.281,-2.2898,-2.3153,-2.2798,-2.2571,-2.2772,-2.2616,-2.2494,-2.2494,-2.2377,-2.2296,-2.2296,-2.2296,-2.2321,-2.2388,-2.2573,-2.2772,-2.291,-2.3414,-2.3724,-2.3806,-2.3806,-2.3649,-2.3311,-2.2972,-2.2665,-2.2388,-2.2338,-2.2296,-2.4575,-2.5621,-2.6337,-2.5734,-2.5238,-2.4324,-2.2114,0.0,0.0,0.0,-1.4488,-1.3692,-1.4284,-1.4571,0.0,0.0,0.0,0.0,0.0,0.0,0.0,0.0,0.0,0.0,0.0,0.0,0.0,0.0,0.0,0.0,0.0,-3.119,-3.119,-3.119,-3.0679,-3.0617,-3.1112,-3.0638,-3.0638,-3.1131,-3.1171,-3.119,-3.119,-3.119,-3.0801,-3.0074,-2.9331,0.0,0.0,-2.6996,-2.6691,-2.6691,-2.6691,-2.6691,-2.6691,-2.6691,-2.6691,-2.6691,-2.6691,-2.6691,-2.6691,-2.6691,-2.6691,-2.6691,-2.6691,-2.5675,-2.4491,-2.4491,-2.3427,-2.2363,-2.2599,-2.2656,-2.2656,-2.2656,-2.249,-2.2296,-2.2296,-2.2296,-2.2374,-2.2625,-2.2682,-2.2797,-2.3105,-2.3153,-2.3165,-2.3189,-2.3141,-2.3135,-2.3153,-2.3129,-2.3123,-2.3123,-2.2638,-2.2296,-2.2296,-2.2296,-2.2398,-2.2647,-2.2682,-2.2972,-2.3577,-2.3671,-2.3837,-2.4151,-2.4161,-2.3996,-2.366,-2.3323,-2.2984,-2.266,-2.2412,-2.2296,-2.4,-2.5404,-2.6324,-2.6302,-2.5764,-2.4662,-2.2475,0.0,0.0,-1.59,-1.442,-1.3498,-1.3777,-1.4066,-1.484,0.0,-1.7401,-1.8735,0.0,0.0,0.0,0.0,0.0,0.0,0.0,0.0,0.0,0.0,0.0,0.0,0.0,-3.119,-3.119,-3.119,-3.0617,-3.0414,-3.0658,-3.0414,-3.0414,-3.0658,-3.1035,-3.119,-3.1173,-3.0734,-3.0142,-2.9381,-2.8619,0.0,0.0,-2.6826,-2.6691,-2.6691,-2.6691,-2.6691,-2.6691,-2.6691,-2.6691,-2.6691,-2.6691,-2.6691,-2.6691,-2.6691,-2.6691,-2.6691,-2.6691,-2.5675,-2.4537,-2.4746,-2.3721,-2.2599,-2.2923,-2.286,-2.2708,-2.2708,-2.2487,-2.2349,-2.2514,-2.2537,-2.2625,-2.2935,-2.3165,-2.3346,-2.3488,-2.3511,-2.3566,-2.3774,-2.3448,-2.3271,-2.3471,-2.3317,-2.32,-2.32,-2.2995,-2.2849,-2.2849,-2.2849,-2.2895,-2.2996,-2.3189,-2.3414,-2.3692,-2.3896,-2.3976,-2.3907,-2.3896,-2.3621,-2.3105,-2.2972,-2.2738,-2.245,-2.2349,-2.2296,-2.3148,-2.454,-2.5445,-2.5858,-2.5463,-2.4374,0.0,0.0,-1.731,-1.5629,-1.4268,-1.3396,-1.3396,-1.3671,-1.4269,-1.5407,-1.6053,-1.7344,-1.9972,0.0,0.0,0.0,0.0,0.0,0.0,0.0,0.0,0.0,0.0,0.0,0.0,-3.119,-3.119,-3.119,-3.0435,-3.0123,-3.0293,-3.0123,-3.0123,-3.0293,-3.0898,-3.119,-3.1173,-3.0446,-2.9702,-2.8959,0.0,0.0,0.0,-2.6691,-2.6691,-2.6691,-2.6691,-2.6691,-2.6691,-2.6691,-2.6691,-2.6691,-2.6691,-2.6691,-2.6691,-2.6691,-2.6691,-2.6691,-2.6691,-2.5812,-2.4856,-2.4959,-2.4042,-2.3057,-2.3288,-2.3105,-2.286,-2.286,-2.263,-2.2477,-2.266,-2.2784,-2.2947,-2.3271,-2.3544,-2.3724,-2.3827,-2.3855,-2.3927,-2.4161,-2.3795,-2.3577,-2.3816,-2.3649,-2.35,-2.35,-2.35,-2.3414,-2.323,-2.32,-2.3236,-2.3346,-2.3566,-2.3735,-2.3837,-2.3986,-2.3937,-2.3703,-2.3599,-2.3259,-2.2708,-2.2708,-2.2563,-2.231,-2.2374,-2.248,-2.1845,-2.2721,-2.3223,-2.3636,-2.3595,-2.2835,0.0,-1.8882,-1.7174,-1.4977,-1.3921,-1.3396,-1.3396,-1.3396,-1.3896,-1.5358,-1.6214,-1.7738,0.0,0.0,0.0,0.0,0.0,0.0,0.0,0.0,0.0,0.0,0.0,0.0,0.0,-3.119,-3.119,-3.119,-3.0038,-2.9695,-3.0293,-2.9695,-2.9717,-3.0293,-3.0898,-3.119,-3.1173,-3.0446,-2.9702,0.0,0.0,0.0,0.0,-2.6691,-2.6691,-2.6691,-2.6691,-2.6691,-2.6691,-2.6691,-2.6691,-2.6691,-2.6691,-2.6691,-2.6691,-2.6691,-2.6691,-2.6691,-2.6691,-2.6184,-2.5519,-2.5114,-2.4365,-2.3692,-2.3692,-2.3455,-2.3189,-2.3189,-2.2947,-2.2695,-2.2708,-2.296,-2.3282,-2.3639,-2.3692,-2.3806,-2.4141,-2.419,-2.4208,-2.419,-2.419,-2.419,-2.419,-2.419,-2.418,-2.418,-2.418,-2.3917,-2.3265,-2.32,-2.3346,-2.3671,-2.3692,-2.3837,-2.418,-2.3886,-2.3703,-2.3703,-2.338,-2.3045,-2.2708,-2.2708,-2.2563,-2.231,-2.256,-2.2873,-1.9952,-2.0777,-2.1236,-2.1199,-2.1123,-2.0623,-1.8899,-1.7743,-1.6559,-1.4858,-1.3904,-1.3346,-1.3156,-1.3129,-1.377,-1.5764,-1.6038,0.0,0.0,0.0,0.0,0.0,0.0,0.0,0.0,0.0,0.0,0.0,0.0,0.0,0.0,-3.119,-3.119,-3.119,-3.0435,-3.0293,-3.0898,-3.033,-3.0314,-3.0918,-3.1112,-3.0937,-3.0429,-2.9685,0.0,0.0,0.0,0.0,0.0,-2.6691,-2.6691,-2.6691,-2.6691,-2.6691,-2.6691,-2.6691,-2.6691,-2.6691,-2.6691,-2.6691,-2.6691,-2.6691,-2.6691,-2.6691,-2.6691,-2.6184,-2.5448,-2.4721,-2.4124,-2.3746,-2.3986,-2.3795,-2.3544,-2.3544,-2.3288,-2.3105,-2.3335,-2.3477,-2.3649,-2.3986,-2.4036,-2.4074,-2.418,-2.419,-2.419,-2.419,-2.419,-2.419,-2.419,-2.419,-2.419,-2.419,-2.419,-2.4103,-2.3907,-2.3886,-2.3927,-2.4044,-2.4036,-2.3986,-2.3858,-2.3764,-2.3471,-2.3033,-2.291,-2.273,-2.2426,-2.2426,-2.249,-2.2573,-2.2903,-2.3105,0.0,-1.887,-1.918,-1.916,-1.9157,-1.878,-1.731,-1.661,-1.5829,-1.4258,-1.357,-1.3165,-1.2906,-1.286,-1.3511,-1.5544,0.0,0.0,0.0,0.0,0.0,0.0,0.0,0.0,0.0,0.0,0.0,0.0,0.0,0.0,0.0,0.0,-3.0784,-3.0784,-3.0202,-3.0195,-3.0841,-3.0216,-3.0216,-3.0858,-3.1075,-3.0818,-3.0074,-2.9348,0.0,0.0,0.0,0.0,0.0,-2.6691,-2.6691,-2.6691,-2.6691,-2.6691,-2.6691,-2.6691,-2.6691,-2.6691,-2.6691,-2.6691,-2.6691,-2.6691,-2.6691,-2.6691,-2.6691,-2.6265,-2.5634,-2.4953,-2.445,-2.4133,-2.4195,-2.3947,-2.3703,-2.3703,-2.3544,-2.3455,-2.3642,-2.3795,-2.3937,-2.4161,-2.419,-2.419,-2.419,-2.419,-2.419,-2.419,-2.419,-2.419,-2.419,-2.419,-2.419,-2.419,-2.419,-2.419,-2.419,-2.419,-2.419,-2.419,-2.419,-2.4103,-2.3896,-2.3774,-2.3493,-2.3081,-2.296,-2.2802,-2.2651,-2.2651,-2.2798,-2.3081,-2.33,-2.3466,0.0,-1.6846,-1.7028,-1.739,-1.7529,-1.7191,-1.5764,-1.5467,0.0,-1.3339,-1.2979,-1.292,-1.2755,-1.2713,-1.3313,-1.5172,0.0,0.0,0.0,0.0,0.0,0.0,0.0,0.0,0.0,0.0,0.0,0.0,0.0,0.0,0.0,0.0,-3.0091,-3.0023,-2.9426,-2.9464,-3.0207,-2.958,-2.958,-3.0207,-3.0767,-3.0649,-2.9922,-2.9228,0.0,0.0,0.0,0.0,0.0,-2.6691,-2.6691,-2.6691,-2.6691,-2.6691,-2.6691,-2.6691,-2.6691,-2.6691,-2.6691,-2.6691,-2.6691,-2.6691,-2.6691,-2.6691,-2.6691,-2.6376,-2.5922,-2.5587,-2.5114,-2.4608,-2.4285,-2.3976,-2.3742,-2.3742,-2.3742,-2.3742,-2.3742,-2.3986,-2.419,-2.419,-2.419,-2.419,-2.419,-2.419,-2.419,-2.419,-2.419,-2.419,-2.419,-2.419,-2.419,-2.419,-2.419,-2.419,-2.419,-2.419,-2.419,-2.419,-2.419,-2.418,-2.417,-2.3876,-2.3692,-2.3671,-2.3357,-2.32,-2.32,-2.3224,-2.3392,-2.3703,-2.3714,-2.3907,-1.2304,0.0,-1.431,-1.4419,-1.4868,-1.5044,0.0,-1.4182,-1.4191,0.0,0.0,-1.2927,-1.3687,-1.378,-1.4694,0.0,0.0,0.0,0.0,0.0,0.0,0.0,0.0,0.0,0.0,0.0,0.0,0.0,0.0,0.0,0.0,0.0,-2.9837,-2.9281,-2.8509,-2.8521,-2.9297,-2.9681,-2.9681,-2.9313,-2.9462,-2.9093,-2.8331,-2.8162,0.0,0.0,0.0,0.0,-2.6691,-2.6691,-2.6691,-2.6691,-2.6691,-2.6691,-2.6691,-2.6691,-2.6691,-2.6691,-2.6691,-2.6691,-2.6691,-2.6691,-2.6691,-2.6691,-2.6691,-2.5842,-2.4953,-2.5392,-2.4582,-2.3669,-2.4091,-2.4151,-2.4084,-2.4084,-2.4084,-2.4084,-2.4084,-2.4133,-2.419,-2.419,-2.419,-2.419,-2.419,-2.419,-2.419,-2.419,-2.419,-2.419,-2.419,-2.419,-2.419,-2.419,-2.419,-2.419,-2.419,-2.419,-2.419,-2.419,-2.419,-2.4084,-2.3827,-2.3735,-2.3577,-2.3317,-2.3236,-2.32,-2.32,-2.3466,-2.361,-2.3703,-2.3947,-2.4113,-1.0484,-1.2212,-1.3904,-1.3904,-1.4462,-1.4902,-1.4505,0.0,0.0,0.0,0.0,0.0,-1.3623,0.0,0.0,0.0,0.0,0.0,0.0,0.0,0.0,0.0,0.0,0.0,0.0,0.0,0.0,0.0,0.0,0.0,0.0,0.0,-2.8855,-2.8467,-2.8027,-2.8197,-2.8993,-2.9042,-2.9042,-2.8993,-2.8993,-2.8569,-2.7807,-2.7807,-2.7384,0.0,0.0,0.0,-2.6691,-2.6691,-2.6691,-2.6691,-2.6691,-2.6691,-2.6691,-2.6691,-2.6825,-2.6988,-2.6988,-2.6988,-2.6938,-2.6758,-2.6691,-2.664,-2.6302,-2.5516,-2.4849,-2.5353,-2.4643,-2.3768,-2.4107,-2.419,-2.419,-2.419,-2.419,-2.419,-2.419,-2.419,-2.419,-2.419,-2.419,-2.419,-2.419,-2.419,-2.419,-2.419,-2.419,-2.419,-2.419,-2.419,-2.419,-2.419,-2.419,-2.419,-2.419,-2.419,-2.419,-2.419,-2.419,-2.4113,-2.3927,-2.3927,-2.3837,-2.3671,-2.366,-2.366,-2.366,-2.3837,-2.3927,-2.3927,-2.4132,-2.419,-1.006,-1.2458,-1.4605,-1.4385,-1.5054,-1.574,-1.5629,0.0,0.0,0.0,0.0,0.0,0.0,0.0,0.0,0.0,0.0,0.0,0.0,0.0,0.0,0.0,0.0,0.0,0.0,0.0,0.0,0.0,0.0,0.0,0.0,0.0,0.0,-2.7638,-2.7621,-2.796,-2.8637,-2.8095,-2.8077,-2.8654,-2.8654,-2.8281,-2.7621,-2.7621,-2.7283,0.0,0.0,0.0,-2.6691,-2.6691,-2.6691,-2.6691,-2.6691,-2.6691,-2.6708,-2.6775,-2.6971,-2.7225,-2.7288,-2.7332,-2.7334,-2.6923,-2.6791,-2.6656,-2.6044,-2.5463,-2.509,-2.5473,-2.4918,-2.4213,-2.4198,-2.419,-2.419,-2.419,-2.419,-2.419,-2.419,-2.419,-2.419,-2.419,-2.419,-2.419,-2.419,-2.419,-2.419,-2.419,-2.419,-2.419,-2.419,-2.419,-2.419,-2.419,-2.419,-2.419,-2.419,-2.419,-2.419,-2.419,-2.419,-2.419,-2.419,-2.419,-2.419,-2.419,-2.419,-2.419,-2.419,-2.419,-2.419,-2.419,-2.419,-2.419,-1.14,-1.365,-1.5122,-1.3879,-1.5063,-1.6367,-1.5731,0.0,0.0,0.0,0.0,0.0,0.0,0.0,0.0,0.0,0.0,0.0,0.0,0.0,0.0,0.0,0.0,0.0,0.0,0.0,0.0,0.0,0.0,0.0,0.0,0.0,0.0,-2.6894,-2.686,-2.6928,-2.7046,-2.7536,-2.7536,-2.7046,-2.7046,-2.6979,-2.686,-2.686,-2.681,0.0,0.0,-2.6691,-2.6691,-2.6691,-2.6691,-2.6691,-2.6691,-2.6691,-2.6741,-2.7083,-2.7019,-2.6841,-2.7178,-2.7515,-2.7754,-2.7332,-2.721,-2.7192,-2.7072,-2.6083,-2.5129,-2.5747,-2.4889,-2.3866,-2.413,-2.419,-2.419,-2.419,-2.419,-2.419,-2.419,-2.419,-2.419,-2.419,-2.419,-2.419,-2.419,-2.419,-2.419,-2.419,-2.419,-2.419,-2.419,-2.419,-2.419,-2.419,-2.419,-2.419,-2.419,-2.419,-2.419,-2.419,-2.419,-2.419,-2.419,-2.419,-2.419,-2.419,-2.419,-2.419,-2.419,-2.419,-2.419,-2.419,-2.419,-2.419,-1.0178,-1.2389,-1.4336,-1.4056,-1.6255,-1.8403,-1.8053,0.0,0.0,0.0,0.0,0.0,0.0,0.0,0.0,0.0,0.0,0.0,0.0,0.0,0.0,0.0,0.0,0.0,0.0,0.0,0.0,0.0,0.0,0.0,0.0,0.0,0.0,0.0,-2.6691,-2.6691,-2.6691,-2.7046,-2.7046,-2.6691,-2.6691,-2.6691,-2.6691,-2.6691,-2.6808,-2.7003,0.0,-2.6824,-2.702,-2.6791,-2.6691,-2.6691,-2.6691,-2.6691,-2.6775,-2.7411,-2.7517,-2.7394,-2.7776,-2.8016,-2.8116,-2.7736,-2.7619,-2.7461,-2.6588,-2.5961,-2.543,-2.4907,-2.4252,-2.3785,-2.4103,-2.419,-2.419,-2.419,-2.419,-2.419,-2.419,-2.419,-2.419,-2.419,-2.419,-2.419,-2.419,-2.419,-2.419,-2.419,-2.419,-2.419,-2.419,-2.419,-2.419,-2.419,-2.419,-2.419,-2.419,-2.419,-2.419,-2.419,-2.419,-2.419,-2.419,-2.419,-2.419,-2.419,-2.419,-2.419,-2.419,-2.419,-2.419,-2.419,-2.419,-2.419,-0.9552,-1.1516,-1.3659,-1.4749,0.0,-1.9406,-2.0116,0.0,0.0,0.0,0.0,0.0,0.0,0.0,0.0,0.0,0.0,0.0,0.0,0.0,0.0,0.0,0.0,0.0,0.0,0.0,0.0,0.0,0.0,0.0,0.0,0.0,0.0,0.0,-2.6691,-2.6691,-2.6691,-2.6691,-2.6691,-2.6691,-2.6691,-2.6758,-2.6841,-2.6841,-2.7003,-2.7303,-2.7067,-2.7051,-2.7147,-2.6939,-2.6791,-2.6691,-2.6691,-2.6825,-2.7051,-2.7663,-2.801,-2.8188,-2.8342,-2.8458,-2.8471,-2.8129,-2.7881,-2.7508,-2.6263,-2.5809,-2.548,-2.44,-2.3961,-2.3886,-2.4123,-2.419,-2.419,-2.419,-2.419,-2.419,-2.419,-2.419,-2.419,-2.419,-2.419,-2.419,-2.419,-2.419,-2.419,-2.419,-2.419,-2.419,-2.419,-2.419,-2.419,-2.419,-2.419,-2.419,-2.419,-2.419,-2.419,-2.419,-2.419,-2.419,-2.419,-2.419,-2.419,-2.419,-2.419,-2.419,-2.419,-2.419,-2.419,-2.419,-2.419,-2.419,-1.1475,-1.2711,-1.3904,-1.6021,0.0,0.0,-2.0479,-1.9921,0.0,0.0,0.0,0.0,0.0,0.0,0.0,0.0,0.0,0.0,0.0,0.0,0.0,0.0,0.0,0.0,0.0,0.0,0.0,0.0,0.0,0.0,0.0,0.0,0.0,0.0,0.0,-2.6691,-2.6691,-2.6691,-2.6691,-2.6691,-2.6691,-2.689,-2.7257,-2.7257,-2.727,-2.7334,-2.7663,-2.7411,-2.6775,-2.7115,-2.7052,-2.6691,-2.6691,-2.7162,-2.7826,-2.7883,-2.8321,-2.8863,-2.8527,-2.8645,-2.8893,-2.8484,-2.7864,-2.7234,-2.7108,-2.6051,-2.4944,-2.5207,-2.4739,-2.417,-2.419,-2.419,-2.419,-2.419,-2.419,-2.419,-2.419,-2.419,-2.419,-2.419,-2.419,-2.419,-2.419,-2.419,-2.419,-2.419,-2.419,-2.419,-2.419,-2.419,-2.419,-2.419,-2.419,-2.419,-2.419,-2.419,-2.419,-2.419,-2.419,-2.419,-2.419,-2.419,-2.419,-2.419,-2.419,-2.419,-2.419,-2.419,-2.419,-2.419,-2.419,-2.419,-0.9958,-1.1753,-1.382,-1.5571,0.0,0.0,0.0,0.0,0.0,0.0,0.0,0.0,0.0,0.0,0.0,0.0,0.0,0.0,0.0,0.0,0.0,0.0,0.0,0.0,0.0,0.0,0.0,0.0,0.0,0.0,0.0,0.0,0.0,0.0,-2.6691,-2.6691,-2.6691,-2.6691,-2.6691,-2.6708,-2.6938,-2.7162,-2.7319,-2.756,-2.7794,-2.7974,-2.7663,-2.7502,-2.7409,-2.7067,-2.6841,-2.6725,-2.6988,-2.7409,-2.7926,-2.8129,-2.8399,-2.8645,-2.8749,-2.8546,-2.8223,-2.8072,-2.7479,-2.6731,-2.622,-2.5655,-2.51,-2.4747,-2.4428,-2.419,-2.419,-2.419,-2.419,-2.419,-2.419,-2.419,-2.419,-2.419,-2.419,-2.419,-2.419,-2.419,-2.419,-2.419,-2.4247,-2.4366,-2.4393,-2.4426,-2.4569,-2.4567,-2.4567,-2.4567,-2.4461,-2.4348,-2.4209,-2.419,-2.419,-2.419,-2.419,-2.419,-2.419,-2.419,-2.419,-2.419,-2.419,-2.419,-2.419,-2.419,-2.419,-2.419,-2.419,-2.419,-0.9603,-1.1628,-1.4048,0.0,0.0,0.0,0.0,0.0,0.0,0.0,0.0,0.0,0.0,0.0,0.0,0.0,0.0,0.0,0.0,0.0,0.0,0.0,0.0,0.0,0.0,0.0,0.0,0.0,0.0,0.0,0.0,0.0,0.0,0.0,-2.6691,-2.6758,-2.689,-2.6758,-2.6758,-2.689,-2.7178,-2.738,-2.75,-2.788,-2.8183,-2.8363,-2.7876,-2.7678,-2.7663,-2.7115,-2.689,-2.6939,-2.7317,-2.7722,-2.8088,-2.8329,-2.8471,-2.8633,-2.8887,-2.8638,-2.8136,-2.789,-2.7255,-2.6447,-2.5631,-2.5209,-2.4915,-2.4355,-2.419,-2.419,-2.419,-2.419,-2.419,-2.419,-2.419,-2.419,-2.419,-2.419,-2.419,-2.419,-2.419,-2.4218,-2.4284,-2.4294,-2.4357,-2.4559,-2.4591,-2.4639,-2.4782,-2.4804,-2.4804,-2.4804,-2.4615,-2.4435,-2.4312,-2.4237,-2.419,-2.419,-2.419,-2.419,-2.419,-2.419,-2.419,-2.419,-2.419,-2.419,-2.419,-2.419,-2.419,-2.419,-2.419,-2.419,-1.1079,-1.277,0.0,0.0,0.0,0.0,0.0,0.0,0.0,0.0,0.0,0.0,0.0,0.0,0.0,0.0,0.0,0.0,0.0,0.0,0.0,0.0,0.0,0.0,0.0,0.0,0.0,0.0,0.0,0.0,0.0,0.0,0.0,0.0,-2.6691,-2.689,-2.7303,-2.6906,-2.6906,-2.7303,-2.7301,-2.75,-2.7911,-2.825,-2.8407,-2.8407,-2.8389,-2.797,-2.7319,-2.7319,-2.7319,-2.735,-2.7754,-2.8102,-2.8407,-2.8389,-2.8658,-2.9005,-2.8987,-2.8987,-2.884,-2.8044,-2.7236,-2.6429,-2.5631,-2.4824,-2.419,-2.419,-2.419,-2.419,-2.419,-2.419,-2.419,-2.419,-2.419,-2.419,-2.419,-2.419,-2.419,-2.419,-2.419,-2.4257,-2.4461,-2.4503,-2.4559,-2.4775,-2.4804,-2.4804,-2.4804,-2.4804,-2.4804,-2.4804,-2.4623,-2.4503,-2.4503,-2.4321,-2.4199,-2.419,-2.419,-2.419,-2.419,-2.419,-2.419,-2.419,-2.419,-2.419,-2.419,-2.419,-2.419,-2.419,-2.419,-2.419,-1.0463,-1.3126,0.0,0.0,0.0,0.0,0.0,0.0,0.0,0.0,0.0,0.0,0.0,0.0,0.0,0.0,0.0,0.0,0.0,0.0,0.0,0.0,0.0,0.0,0.0,0.0,0.0,0.0,0.0,0.0,0.0,0.0,0.0,0.0,-2.6691,-2.6758,-2.6873,-2.6758,-2.6906,-2.7301,-2.7592,-2.7651,-2.7485,-2.788,-2.8183,-2.8345,-2.7309,-2.7324,-2.8057,-2.7823,-2.7725,-2.7768,-2.8098,-2.8316,-2.8433,-2.8725,-2.8905,-2.8932,-2.8356,-2.7787,-2.717,-2.6366,-2.5576,-2.4869,-2.464,-2.4392,-2.419,-2.419,-2.419,-2.419,-2.419,-2.419,-2.419,-2.419,-2.419,-2.419,-2.419,-2.419,-2.419,-2.419,-2.419,-2.4257,-2.4461,-2.4503,-2.4588,-2.491,-2.4937,-2.4993,-2.5138,-2.5149,-2.509,-2.4968,-2.4885,-2.4766,-2.4528,-2.4454,-2.4348,-2.4199,-2.419,-2.419,-2.419,-2.419,-2.419,-2.419,-2.419,-2.419,-2.419,-2.419,-2.419,-2.419,-2.419,-2.419,-1.2195,0.0,0.0,0.0,0.0,0.0,0.0,0.0,0.0,0.0,0.0,0.0,0.0,0.0,0.0,0.0,0.0,0.0,0.0,0.0,0.0,0.0,0.0,0.0,0.0,0.0,0.0,0.0,0.0,0.0,0.0,0.0,0.0,0.0,-2.6251,-2.6568,-2.7178,-2.7019,-2.7208,-2.773,-2.7522,-2.7296,-2.7078,-2.7611,-2.7969,-2.8094,-2.6708,-2.6734,-2.7687,-2.7165,-2.7396,-2.8031,-2.7468,-2.7823,-2.8609,-2.8373,-2.8388,-2.8448,-2.797,-2.7273,-2.6465,-2.5668,-2.5062,-2.4622,-2.43,-2.419,-2.419,-2.419,-2.419,-2.419,-2.419,-2.419,-2.419,-2.419,-2.419,-2.419,-2.419,-2.419,-2.4218,-2.4303,-2.4321,-2.4392,-2.4648,-2.47,-2.4783,-2.5077,-2.5111,-2.5163,-2.5279,-2.5308,-2.5259,-2.5122,-2.504,-2.4924,-2.4723,-2.4643,-2.4578,-2.4462,-2.4435,-2.4435,-2.4435,-2.4284,-2.419,-2.419,-2.419,-2.419,-2.419,-2.419,-2.419,-2.419,-2.419,-2.419,0.0,0.0,0.0,0.0,0.0,0.0,0.0,0.0,0.0,0.0,0.0,0.0,0.0,0.0,0.0,0.0,0.0,0.0,0.0,0.0,0.0,0.0,0.0,0.0,0.0,0.0,0.0,0.0,0.0,0.0,0.0,0.0,0.0,0.0,-2.5507,-2.6191,-2.7611,-2.726,-2.7464,0.0,-2.7121,-2.6672,-2.6708,-2.732,-2.7544,-2.7423,-2.6439,-2.6185,-2.6441,-2.5817,-2.6581,-2.7965,-2.6269,-2.6873,-2.8606,-2.7544,-2.7384,-2.7677,-2.7614,-2.709,-2.6355,-2.5558,-2.5283,-2.5154,-2.441,-2.419,-2.419,-2.419,-2.419,-2.419,-2.419,-2.419,-2.419,-2.419,-2.419,-2.419,-2.419,-2.4209,-2.4275,-2.4461,-2.452,-2.4628,-2.4955,-2.5004,-2.5077,-2.5269,-2.5308,-2.5308,-2.5308,-2.5308,-2.5284,-2.5269,-2.5105,-2.4998,-2.4968,-2.4836,-2.4768,-2.4746,-2.4746,-2.4746,-2.4746,-2.4419,-2.4228,-2.4228,-2.4209,-2.419,-2.419,-2.4218,-2.4218,-2.419,-2.4218,-2.4228,0.0,0.0,0.0,0.0,0.0,0.0,0.0,0.0,0.0,0.0,0.0,0.0,0.0,0.0,0.0,0.0,0.0,0.0,0.0,0.0,0.0,0.0,0.0,0.0,0.0,0.0,0.0,0.0,0.0,0.0,0.0,0.0,0.0,-2.4728,-2.4745,-2.5026,-2.562,-2.5533,-2.5836,0.0,-2.626,-2.6315,-2.6613,-2.62,-2.5651,-2.5087,-2.5787,-2.5632,-2.4961,-2.5679,-2.6025,-2.6142,-2.6294,-2.6477,-2.6656,-2.6713,-2.6768,-2.6778,-2.6146,-2.5797,-2.5521,-2.4732,-2.4456,-2.4438,-2.4245,-2.419,-2.419,-2.419,-2.419,-2.419,-2.419,-2.419,-2.419,-2.419,-2.419,-2.419,-2.419,-2.4312,-2.4444,-2.4495,-2.4623,-2.4792,-2.4974,-2.5004,-2.5077,-2.5269,-2.5308,-2.5308,-2.5308,-2.5308,-2.5248,-2.5088,-2.5028,-2.4898,-2.4636,-2.4583,-2.4503,-2.4348,-2.4339,-2.4339,-2.4339,-2.4401,-2.4445,-2.4445,-2.4275,-2.419,-2.419,-2.4357,-2.4348,-2.4199,-2.4357,-2.4445,0.0,0.0,0.0,0.0,0.0,0.0,0.0,0.0,0.0,0.0,0.0,0.0,0.0,0.0,0.0,0.0,0.0,0.0,0.0,0.0,0.0,0.0,0.0,0.0,0.0,0.0,0.0,0.0,0.0,0.0,0.0,-2.3444,-2.3611,-2.3966,-2.3966,-2.4369,-2.5219,-2.525,-2.5595,-2.6288,-2.5888,-2.5611,-2.5446,-2.5443,-2.5007,-2.4298,-2.4918,-2.5081,-2.4883,-2.4931,-2.5371,-2.5966,-2.5412,-2.5648,-2.6274,-2.6091,-2.6025,-2.598,-2.554,-2.5154,-2.4768,-2.4337,-2.419,-2.419,-2.419,-2.419,-2.419,-2.419,-2.419,-2.419,-2.419,-2.419,-2.419,-2.419,-2.419,-2.419,-2.419,-2.4357,-2.4537,-2.4623,-2.4785,-2.4949,-2.5105,-2.5146,-2.5173,-2.5279,-2.5308,-2.5308,-2.5308,-2.5308,-2.5219,-2.5022,-2.5004,-2.4904,-2.467,-2.4639,-2.4591,-2.4495,-2.4486,-2.4486,-2.4486,-2.4495,-2.4452,-2.4357,-2.4238,-2.4256,-2.4339,-2.4444,-2.4495,-2.4486,-2.4591,-2.4639,0.0,0.0,0.0,0.0,0.0,0.0,0.0,0.0,0.0,0.0,0.0,0.0,0.0,0.0,0.0,0.0,0.0,0.0,0.0,0.0,0.0,0.0,0.0,0.0,0.0,0.0,0.0,0.0,0.0,0.0,-2.2296,-2.2296,-2.2609,-2.3257,-2.3274,-2.3898,-2.5176,-2.5194,-2.5494,-2.608,-2.5413,-2.4802,-2.4226,-2.4897,-2.4824,-2.4208,-2.4141,-2.4498,-2.5037,-2.4088,-2.4657,-2.596,-2.4395,-2.4767,-2.6117,-2.5448,-2.5191,-2.5191,-2.5191,-2.4768,-2.419,-2.419,-2.419,-2.419,-2.419,-2.419,-2.419,-2.419,-2.419,-2.419,-2.419,-2.419,-2.419,-2.419,-2.4228,-2.4256,-2.4256,-2.4419,-2.4607,-2.4792,-2.4956,-2.5099,-2.5269,-2.5308,-2.5308,-2.5308,-2.5308,-2.5308,-2.5308,-2.5308,-2.5208,-2.4986,-2.4968,-2.4885,-2.4716,-2.47,-2.47,-2.47,-2.4731,-2.4753,-2.4753,-2.4615,-2.4469,-2.4312,-2.4266,-2.4348,-2.4543,-2.4583,-2.4651,-2.4804,-2.4814,-2.4828,0.0,0.0,0.0,0.0,0.0,0.0,0.0,0.0,0.0,0.0,0.0,0.0,0.0,0.0,0.0,0.0,0.0,0.0,0.0,0.0,0.0,0.0,0.0,0.0,0.0,0.0,0.0,0.0,0.0,0.0,-2.2296,-2.2296,-2.2449,-2.2773,-2.2786,-2.317,-2.3934,-2.3945,-2.3988,-2.4082,-2.3973,-2.4026,-2.419,-2.43,-2.43,-2.418,-2.3896,-2.3828,-2.3919,-2.375,-2.3851,-2.4085,-2.4117,-2.4289,-2.4502,-2.4392,-2.4355,-2.4355,-2.4355,-2.4281,-2.419,-2.419,-2.419,-2.419,-2.419,-2.419,-2.419,-2.419,-2.419,-2.419,-2.419,-2.419,-2.419,-2.419,-2.4321,-2.4452,-2.4452,-2.4615,-2.4799,-2.4943,-2.5135,-2.5269,-2.5303,-2.5308,-2.5308,-2.5308,-2.5308,-2.5308,-2.5308,-2.5308,-2.5171,-2.4855,-2.484,-2.4685,-2.4312,-2.4275,-2.4275,-2.4275,-2.4435,-2.4545,-2.4545,-2.4678,-2.4746,-2.4723,-2.4553,-2.4569,-2.476,-2.4884,-2.4897,-2.4804,-2.4923,-2.4974,0.0,0.0,0.0,0.0,0.0,0.0,0.0,0.0,0.0,0.0,0.0,0.0,0.0,0.0,0.0,0.0,0.0,0.0,0.0,0.0,0.0,0.0,0.0,0.0,0.0,0.0,0.0,0.0,0.0,-2.2296,-2.2296,-2.2436,-2.259,-2.2695,-2.2708,-2.2935,-2.3414,-2.3224,-2.3335,-2.3703,-2.3896,-2.4064,-2.419,-2.419,-2.419,-2.419,-2.4036,-2.3986,-2.3986,-2.3986,-2.3986,-2.3996,-2.4151,-2.419,-2.419,-2.419,-2.419,-2.419,-2.419,-2.419,-2.419,-2.419,-2.419,-2.419,-2.419,-2.419,-2.4218,-2.4348,-2.4284,-2.4228,-2.4348,-2.4284,-2.419,-2.419,-2.4348,-2.4543,-2.4693,-2.4811,-2.4962,-2.5135,-2.5248,-2.5308,-2.5308,-2.5308,-2.5308,-2.5308,-2.5308,-2.5308,-2.5308,-2.5308,-2.5198,-2.4943,-2.4917,-2.4809,-2.4551,-2.4545,-2.4545,-2.4545,-2.4615,-2.467,-2.467,-2.4753,-2.4835,-2.4917,-2.4749,-2.4749,-2.4917,-2.4974,-2.5036,-2.5086,-2.5135,-2.5163,0.0,0.0,0.0,0.0,0.0,0.0,0.0,0.0,0.0,0.0,0.0,0.0,0.0,0.0,0.0,0.0,0.0,0.0,0.0,0.0,0.0,0.0,0.0,0.0,0.0,0.0,0.0,0.0,0.0,-2.2296,-2.2296,-2.2487,-2.266,-2.2822,-2.2835,-2.3033,-2.3448,-2.3117,-2.3247,-2.3827,-2.3996,-2.4113,-2.419,-2.419,-2.419,-2.419,-2.419,-2.419,-2.419,-2.419,-2.419,-2.419,-2.419,-2.419,-2.419,-2.419,-2.419,-2.4199,-2.4266,-2.4275,-2.4275,-2.4275,-2.4312,-2.4321,-2.4228,-2.4237,-2.4294,-2.4401,-2.4321,-2.4237,-2.4384,-2.4312,-2.4209,-2.4257,-2.4418,-2.4636,-2.4866,-2.5004,-2.5111,-2.5269,-2.5308,-2.5308,-2.5308,-2.5308,-2.5308,-2.5308,-2.5308,-2.5308,-2.5308,-2.5308,-2.5219,-2.5022,-2.5004,-2.4943,-2.4818,-2.4804,-2.4804,-2.4804,-2.4828,-2.4855,-2.4855,-2.4896,-2.4975,-2.5082,-2.4981,-2.4981,-2.5082,-2.5082,-2.5152,-2.5308,-2.5308,-2.5308,0.0,0.0,0.0,0.0,0.0,0.0,0.0,0.0,0.0,0.0,0.0,0.0,0.0,0.0,0.0,0.0,0.0,0.0,0.0,0.0,0.0,0.0,0.0,0.0,0.0,0.0,0.0,0.0,0.0,-2.2296,-2.2296,-2.2307,-2.2584,-2.3153,-2.3177,-2.35,-2.4151,-2.3816,-2.3827,-2.417,-2.3876,-2.3896,-2.419,-2.419,-2.419,-2.419,-2.419,-2.419,-2.419,-2.419,-2.419,-2.419,-2.419,-2.419,-2.419,-2.419,-2.419,-2.4228,-2.4428,-2.4486,-2.4486,-2.4486,-2.4607,-2.47,-2.4321,-2.4321,-2.4444,-2.4275,-2.4199,-2.4199,-2.4209,-2.4199,-2.4256,-2.4435,-2.4639,-2.4821,-2.4968,-2.5152,-2.5298,-2.5303,-2.5308,-2.5308,-2.5308,-2.5308,-2.5308,-2.5308,-2.5308,-2.5308,-2.5308,-2.5308,-2.5219,-2.5022,-2.5004,-2.4943,-2.4818,-2.4804,-2.4804,-2.4804,-2.4923,-2.4992,-2.4992,-2.5163,-2.5288,-2.5279,-2.5269,-2.5269,-2.5279,-2.5279,-2.5279,-2.5308,-2.5308,-2.5308,0.0,0.0,0.0,0.0,0.0,0.0,0.0,0.0,0.0,0.0,0.0,0.0,0.0,0.0,0.0,0.0,0.0,0.0,0.0,0.0,0.0,0.0,0.0,0.0,0.0,0.0,0.0,0.0,0.0,0.0,-2.2296,-2.266,-2.2982,-2.3189,-2.3403,-2.3533,-2.3555,-2.366,-2.3764,-2.3886,-2.3986,-2.4084,-2.419,-2.419,-2.419,-2.419,-2.419,-2.419,-2.419,-2.419,-2.419,-2.419,-2.419,-2.419,-2.4209,-2.4339,-2.4393,-2.4428,-2.4615,-2.4693,-2.4693,-2.4693,-2.4746,-2.4775,-2.4623,-2.4631,-2.4678,-2.4618,-2.4495,-2.4393,-2.4393,-2.4393,-2.4608,-2.5453,-2.5945,-2.6176,-2.6055,-2.5643,-2.5308,-2.5308,-2.5308,-2.5308,-2.5308,-2.5308,-2.5308,-2.5308,-2.5308,-2.55,-2.6058,-2.5654,-2.5696,-2.6749,-2.5855,-2.5393,-2.5916,-2.5451,-2.5121,-2.5121,-2.5171,-2.5179,-2.5179,-2.5264,-2.5308,-2.5308,-2.5308,-2.5308,-2.5308,-2.5308,-2.5308,-2.5308,-2.5308,-2.5308,0.0,0.0,0.0,0.0,0.0,0.0,0.0,0.0,0.0,0.0,0.0,0.0,0.0,0.0,0.0,0.0,0.0,0.0,0.0,0.0,0.0,0.0,0.0,0.0,0.0,0.0,0.0,0.0,0.0,0.0,-2.2598,-2.2977,-2.3247,-2.3369,-2.3692,-2.3764,-2.3544,-2.3764,-2.3876,-2.3876,-2.4094,-2.419,-2.4199,-2.4266,-2.4257,-2.4199,-2.4266,-2.4257,-2.419,-2.419,-2.419,-2.4199,-2.4266,-2.4303,-2.433,-2.4528,-2.4591,-2.4623,-2.4814,-2.4876,-2.4876,-2.4876,-2.4916,-2.4955,-2.484,-2.4828,-2.4849,-2.4738,-2.4599,-2.4503,-2.4503,-2.4572,-2.4862,-2.5679,-2.6383,-2.6827,-2.664,-2.5923,-2.5308,-2.5308,-2.5308,-2.5385,-2.5692,-2.55,-2.5404,-2.5692,-2.5731,-2.5942,-2.6524,-2.6346,-2.6621,-2.778,-2.6601,-2.5962,-2.6544,-2.5808,-2.5308,-2.5308,-2.5308,-2.5308,-2.5308,-2.5308,-2.5308,-2.5308,-2.5308,-2.5308,-2.5308,-2.5308,-2.5308,-2.5308,-2.5308,-2.5308,0.0,0.0,0.0,0.0,0.0,0.0,0.0,0.0,0.0,0.0,0.0,0.0,0.0,0.0,0.0,0.0,0.0,0.0,0.0,0.0,0.0,0.0,0.0,0.0,0.0,0.0,0.0,0.0,0.0,-2.32,-2.32,-2.32,-2.3369,-2.3703,-2.4026,-2.419,-2.419,-2.419,-2.419,-2.419,-2.419,-2.4199,-2.4209,-2.4419,-2.4401,-2.4228,-2.4428,-2.4393,-2.4199,-2.4199,-2.4199,-2.4228,-2.4409,-2.4503,-2.4537,-2.4738,-2.4811,-2.484,-2.4955,-2.5016,-2.5016,-2.5016,-2.5146,-2.5238,-2.4903,-2.4904,-2.4943,-2.4604,-2.4501,-2.4501,-2.4501,-2.4785,-2.5068,-2.5049,-2.5872,-2.6678,-2.664,-2.5962,-2.5385,-2.5385,-2.5385,-2.5654,-2.6486,-2.5942,-2.5654,-2.6505,-2.664,-2.6659,-2.6678,-2.739,-2.7915,-2.7972,-2.7178,-2.664,-2.664,-2.5846,-2.5327,-2.5308,-2.5308,-2.5308,-2.5308,-2.5308,-2.5308,-2.5308,-2.5308,-2.5308,-2.5293,-2.5308,-2.5308,-2.5308,-2.5288,-2.5293,-0.9044,0.0,0.0,0.0,0.0,0.0,0.0,0.0,0.0,0.0,0.0,0.0,0.0,0.0,0.0,0.0,0.0,0.0,0.0,0.0,0.0,0.0,0.0,0.0,0.0,0.0,0.0,0.0,-2.3335,-2.32,-2.32,-2.3426,-2.3714,-2.4054,-2.4151,-2.419,-2.419,-2.419,-2.419,-2.419,-2.419,-2.4275,-2.4428,-2.4469,-2.4561,-2.4623,-2.4545,-2.4469,-2.441,-2.4266,-2.4284,-2.4409,-2.4478,-2.4583,-2.4746,-2.4897,-2.4937,-2.4962,-2.5152,-2.5214,-2.5214,-2.5214,-2.5259,-2.5274,-2.5201,-2.5187,-2.5182,-2.4924,-2.4865,-2.4865,-2.4865,-2.5882,-2.6765,-2.6272,-2.7306,-2.8261,-2.7659,-2.7351,-2.7178,-2.7178,-2.7178,-2.7255,-2.7505,-2.7332,-2.7255,-2.7505,-2.7544,-2.7755,-2.8338,-2.8107,-2.8352,-2.9577,-2.8409,-2.7544,-2.7544,-2.6736,-2.5962,-2.5346,-2.5308,-2.5308,-2.5308,-2.5308,-2.5308,-2.5308,-2.5308,-2.5317,-2.5368,-2.5317,-2.5308,-2.5308,-2.5357,-2.5379,0.0,0.0,0.0,0.0,0.0,0.0,0.0,0.0,0.0,0.0,0.0,0.0,0.0,0.0,0.0,0.0,0.0,0.0,0.0,0.0,0.0,0.0,0.0,0.0,0.0,0.0,0.0,-2.3896,-2.3724,-2.3628,-2.3628,-2.3806,-2.3996,-2.419,-2.419,-2.419,-2.419,-2.419,-2.419,-2.419,-2.4284,-2.4393,-2.4512,-2.4632,-2.4749,-2.4797,-2.4749,-2.4682,-2.4615,-2.4503,-2.4469,-2.4501,-2.4648,-2.478,-2.4897,-2.5059,-2.5135,-2.5146,-2.5264,-2.5308,-2.5308,-2.5308,-2.5308,-2.5308,-2.5308,-2.5308,-2.5259,-2.5071,-2.5004,-2.5004,-2.5004,-2.5822,-2.6632,-2.66,-2.7621,-2.8569,-2.8434,-2.8698,-2.8736,-2.8049,-2.7895,-2.8011,-2.8338,-2.8126,-2.8011,-2.8357,-2.8396,-2.8569,-2.905,-2.9006,-2.9313,-3.0308,-2.8909,-2.7895,-2.7895,-2.6774,-2.5846,-2.5327,-2.5308,-2.5308,-2.5308,-2.5308,-2.5313,-2.5348,-2.5333,-2.5368,-2.5447,-2.5357,-2.5313,-2.5348,-2.5417,-2.5444,0.0,0.0,0.0,0.0,0.0,0.0,0.0,-1.3329,0.0,0.0,0.0,0.0,0.0,0.0,0.0,0.0,0.0,0.0,0.0,0.0,0.0,0.0,0.0,0.0,0.0,0.0,-2.419,-2.419,-2.419,-2.419,-2.419,-2.419,-2.419,-2.419,-2.419,-2.419,-2.419,-2.419,-2.4209,-2.4237,-2.44,-2.4528,-2.4567,-2.4865,-2.4956,-2.4849,-2.4949,-2.4924,-2.4814,-2.4814,-2.4731,-2.4599,-2.4891,-2.5016,-2.5046,-2.5224,-2.5308,-2.5308,-2.5308,-2.5308,-2.5308,-2.5308,-2.5308,-2.5308,-2.5308,-2.5308,-2.5264,-2.5088,-2.5034,-2.5053,-2.5149,-2.5373,-2.5788,-2.6563,-2.7486,-2.8357,-2.8973,-2.9775,-2.9967,-2.8469,-2.8186,-2.8417,-2.9129,-2.8664,-2.8438,-2.9154,-2.927,-2.9239,-2.9242,-2.9929,-3.0404,-3.0404,-2.9063,-2.8145,-2.8049,-2.6524,-2.5543,-2.5462,-2.5351,-2.5317,-2.5327,-2.5303,-2.5339,-2.5404,-2.5418,-2.5456,-2.5491,-2.5376,-2.5346,-2.5417,-2.5488,-2.55,-1.3586,-1.3519,-1.3625,0.0,0.0,0.0,0.0,-1.1853,0.0,0.0,0.0,0.0,0.0,0.0,0.0,0.0,0.0,0.0,0.0,0.0,0.0,0.0,0.0,0.0,0.0,-2.3776,-2.419,-2.419,-2.419,-2.419,-2.419,-2.419,-2.419,-2.419,-2.419,-2.419,-2.419,-2.419,-2.4275,-2.4435,-2.4478,-2.4651,-2.4892,-2.498,-2.5077,-2.5187,-2.5065,-2.4992,-2.4962,-2.4962,-2.4943,-2.4917,-2.4961,-2.5099,-2.5253,-2.5298,-2.5308,-2.5308,-2.5308,-2.5308,-2.5308,-2.5308,-2.5308,-2.5308,-2.5308,-2.5308,-2.5284,-2.5259,-2.5229,-2.5407,-2.6098,-2.683,-2.7448,-2.7601,-2.8813,-2.975,-2.9223,-2.9775,-3.0329,-3.0042,-2.9983,-3.0041,-3.0196,-3.0137,-3.0106,-3.021,-3.0235,-3.0216,-3.0152,-3.0288,-3.0404,-3.0404,-3.0115,-2.964,-2.8934,-2.7953,-2.7128,-2.6466,-2.5731,-2.5361,-2.5462,-2.5354,-2.5354,-2.5488,-2.552,-2.5545,-2.5491,-2.5463,-2.5477,-2.5471,-2.5551,-2.5572,0.0,0.0,-1.4999,-1.4796,0.0,0.0,0.0,0.0,0.0,0.0,0.0,0.0,0.0,0.0,0.0,0.0,0.0,0.0,0.0,0.0,0.0,0.0,0.0,0.0,0.0,-2.3033,-2.3768,-2.4171,-2.419,-2.419,-2.419,-2.419,-2.419,-2.419,-2.419,-2.419,-2.419,-2.419,-2.4303,-2.4503,-2.4599,-2.4766,-2.4991,-2.5099,-2.5208,-2.5284,-2.5179,-2.5152,-2.5152,-2.5152,-2.5152,-2.5152,-2.5152,-2.5214,-2.5308,-2.5308,-2.5308,-2.5308,-2.5308,-2.5308,-2.5308,-2.5308,-2.5308,-2.5308,-2.5308,-2.5308,-2.5308,-2.5308,-2.5308,-2.55,-2.6365,-2.6928,-2.7467,-2.8299,-2.914,-2.9756,-2.9756,-3.0096,-3.0408,-3.0446,-3.0503,-3.0559,-3.0559,-3.0578,-3.0591,-3.0547,-3.0559,-3.0521,-3.0457,-3.0477,-3.0491,-3.0447,-3.011,-2.9724,-2.9283,-2.8086,-2.7175,-2.6773,-2.5899,-2.5428,-2.5508,-2.5434,-2.545,-2.5551,-2.5628,-2.5634,-2.5602,-2.5602,-2.5573,-2.5552,-2.5629,-2.5658,0.0,0.0,0.0,0.0,0.0,-1.508,0.0,0.0,0.0,-1.5449,0.0,0.0,0.0,0.0,0.0,0.0,0.0,0.0,0.0,0.0,0.0,0.0,0.0,0.0,0.0,-2.1753,-2.2685,-2.3657,-2.3584,-2.3621,-2.3951,-2.4116,-2.419,-2.419,-2.419,-2.419,-2.419,-2.419,-2.4303,-2.4503,-2.47,-2.4864,-2.501,-2.5208,-2.5308,-2.5308,-2.5308,-2.5308,-2.5308,-2.5308,-2.5308,-2.5308,-2.5308,-2.5308,-2.5308,-2.5308,-2.5303,-2.5327,-2.5327,-2.5321,-2.5339,-2.5339,-2.5339,-2.5339,-2.5339,-2.5339,-2.5335,-2.5312,-2.5322,-2.5568,-2.6587,-2.6851,-2.7274,-2.8948,-2.9357,-2.9544,-3.025,-3.0404,-3.039,-3.0425,-3.0507,-3.0584,-3.06,-3.0628,-3.0641,-3.0628,-3.0625,-3.06,-3.0525,-3.0561,-3.0578,-3.0521,-2.9985,-2.9638,-2.9638,-2.8201,-2.7235,-2.7072,-2.6242,-2.5697,-2.5543,-2.5543,-2.5558,-2.5601,-2.5661,-2.5703,-2.5703,-2.5703,-2.5662,-2.563,-2.5662,-2.5703,0.0,0.0,0.0,0.0,-1.8258,0.0,0.0,0.0,-1.4533,-1.2944,0.0,0.0,0.0,0.0,0.0,0.0,0.0,0.0,0.0,0.0,0.0,0.0,0.0,0.0,0.0,0.0,-2.038,-2.1941,-2.1363,-2.1575,-2.3061,-2.3804,-2.419,-2.419,-2.419,-2.419,-2.419,-2.419,-2.4303,-2.4503,-2.47,-2.4864,-2.501,-2.5208,-2.5308,-2.5308,-2.5308,-2.5308,-2.5308,-2.5308,-2.5308,-2.5308,-2.5308,-2.5308,-2.5308,-2.5308,-2.5344,-2.5395,-2.5395,-2.5428,-2.5488,-2.5488,-2.5488,-2.5488,-2.5488,-2.5488,-2.5451,-2.5409,-2.5383,-2.5746,-2.7344,-2.7761,-2.8159,-2.9846,-3.025,-3.0288,-3.0385,-3.0404,-3.0425,-3.0477,-3.0503,-3.0529,-3.0591,-3.075,-3.0834,-3.0713,-3.0687,-3.065,-3.06,-3.06,-3.06,-3.0591,-3.0502,-3.0469,-3.0469,-2.9636,-2.8805,-2.8088,-2.718,-2.6357,-2.5701,-2.5682,-2.5658,-2.5602,-2.5661,-2.5703,-2.5703,-2.5703,-2.5703,-2.5683,-2.5703,-2.5703,0.0,0.0,0.0,0.0,0.0,0.0,0.0,0.0,-1.4805,0.0,0.0,0.0,0.0,0.0,0.0,0.0,0.0,0.0,0.0,0.0,0.0,0.0,0.0,0.0,0.0,0.0,0.0,0.0,0.0,-2.0537,-2.2208,-2.307,-2.3731,-2.419,-2.419,-2.419,-2.419,-2.4321,-2.4469,-2.4678,-2.4836,-2.5005,-2.5168,-2.5264,-2.5308,-2.5308,-2.5308,-2.5308,-2.5308,-2.5308,-2.5308,-2.5293,-2.5333,-2.5359,-2.535,-2.535,-2.5406,-2.5465,-2.5465,-2.5488,-2.5491,-2.5491,-2.5491,-2.5491,-2.5491,-2.5491,-2.5486,-2.5471,-2.5462,-2.5848,-2.7525,-2.7957,-2.8362,-3.0017,-3.0404,-3.0404,-3.0404,-3.0404,-3.0402,-3.0449,-3.0467,-3.0517,-3.0591,-3.07,-3.0793,-3.0815,-3.0816,-3.0788,-3.0671,-3.0728,-3.0732,-3.0667,-3.0728,-3.076,-3.076,-3.0,-2.9361,-2.9037,-2.7684,-2.6789,-2.6465,-2.5977,-2.5683,-2.566,-2.5683,-2.5703,-2.5703,-2.5703,-2.5957,-2.6445,-2.5937,-2.5703,-1.9991,0.0,0.0,0.0,0.0,0.0,0.0,0.0,0.0,0.0,0.0,0.0,0.0,0.0,0.0,0.0,0.0,0.0,0.0,0.0,0.0,0.0,0.0,0.0,0.0,0.0,0.0,0.0,0.0,0.0,-2.1005,-2.2097,-2.3033,-2.3841,-2.408,-2.419,-2.419,-2.4401,-2.4567,-2.4723,-2.4904,-2.5082,-2.5219,-2.5269,-2.5308,-2.5308,-2.5308,-2.5308,-2.5308,-2.5308,-2.5308,-2.533,-2.5379,-2.5418,-2.5453,-2.5428,-2.5477,-2.5535,-2.5535,-2.5545,-2.5556,-2.5556,-2.5556,-2.5556,-2.5556,-2.5556,-2.5552,-2.5539,-2.5535,-2.5909,-2.7591,-2.8032,-2.8439,-3.0062,-3.0447,-3.0447,-3.0447,-3.0447,-3.0447,-3.0447,-3.0485,-3.0559,-3.0623,-3.0673,-3.0745,-3.0879,-3.0898,-3.0858,-3.0769,-3.0837,-3.0858,-3.0769,-3.0838,-3.0898,-3.0898,-3.0312,-2.9844,-2.9629,-2.8184,-2.7363,-2.7363,-2.6758,-2.6406,-2.6406,-2.6172,-2.6172,-2.6406,-2.6172,-2.6504,-2.7344,-2.6465,-2.6172,0.0,0.0,0.0,-1.8724,0.0,0.0,0.0,0.0,-1.6615,0.0,0.0,0.0,0.0,0.0,0.0,0.0,0.0,0.0,0.0,0.0,0.0,0.0,0.0,0.0,0.0,0.0,0.0,0.0,0.0,0.0,-1.9213,-2.0931,-2.2216,-2.3006,-2.3786,-2.419,-2.419,-2.4401,-2.4503,-2.452,-2.4845,-2.4991,-2.5022,-2.5214,-2.5308,-2.5308,-2.5308,-2.5308,-2.5308,-2.5308,-2.5344,-2.5406,-2.5402,-2.5485,-2.5594,-2.5529,-2.5545,-2.5599,-2.5599,-2.5636,-2.5683,-2.5683,-2.5683,-2.5683,-2.5683,-2.5683,-2.5683,-2.5628,-2.5599,-2.598,-2.7659,-2.8107,-2.8515,-3.0208,-3.0597,-3.0597,-3.0597,-3.0597,-3.0597,-3.0597,-3.0597,-3.0625,-3.0686,-3.0695,-3.0745,-3.0879,-3.0898,-3.0898,-3.0898,-3.0898,-3.0898,-3.0898,-3.0898,-3.0898,-3.0898,-3.0879,-3.0508,-2.9648,-2.8769,-2.8262,-2.8262,-2.8223,-2.8223,-2.8223,-2.7383,-2.7363,-2.8203,-2.7363,-2.7402,-2.8242,-2.7363,-2.7402,0.0,0.0,-2.2134,-2.0162,0.0,0.0,0.0,0.0,0.0,0.0,0.0,0.0,0.0,0.0,0.0,0.0,0.0,0.0,0.0,0.0,0.0,0.0,0.0,0.0,0.0,0.0,0.0,0.0,0.0,0.0,0.0,-2.0737,-2.2263,-2.2978,-2.3786,-2.4257,-2.4401,-2.4591,-2.4749,-2.4838,-2.5071,-2.5203,-2.5203,-2.5269,-2.5308,-2.5308,-2.5308,-2.5308,-2.5308,-2.5308,-2.5348,-2.5397,-2.5453,-2.5529,-2.5601,-2.5569,-2.5605,-2.5661,-2.5661,-2.5683,-2.5703,-2.5703,-2.5703,-2.5703,-2.5703,-2.5703,-2.582,-2.6366,-2.6521,-2.6908,-2.8595,-2.9032,-2.9295,-3.0342,-3.0603,-3.0603,-3.0603,-3.0603,-3.0603,-3.0603,-3.0603,-3.0628,-3.0687,-3.0695,-3.0745,-3.0879,-3.0898,-3.0898,-3.0898,-3.0898,-3.0898,-3.0898,-3.0898,-3.0898,-3.0898,-3.0898,-3.0762,-3.0488,-2.9648,-2.916,-2.916,-2.8613,-2.8301,-2.8301,-2.8008,-2.8008,-2.8301,-2.8008,-2.8301,-2.9141,-2.8867,-2.8574,-2.2394,-2.2706,0.0,-2.1116,-2.0317,0.0,-1.7888,0.0,0.0,0.0,0.0,0.0,0.0,0.0,0.0,0.0,0.0,0.0,0.0,0.0,0.0,0.0,0.0,0.0,0.0,0.0,-1.2105,-1.35,0.0,0.0,0.0,0.0,-2.1562,-2.2538,-2.3695,-2.4366,-2.4503,-2.4749,-2.4917,-2.501,-2.5208,-2.5308,-2.5308,-2.5308,-2.5308,-2.5308,-2.5308,-2.5308,-2.5288,-2.534,-2.5387,-2.5447,-2.552,-2.5588,-2.5635,-2.5635,-2.5661,-2.5703,-2.5703,-2.5703,-2.5703,-2.5703,-2.5703,-2.5703,-2.5703,-2.5918,-2.6289,-2.6836,-2.7226,-2.7773,-2.9171,-2.9539,-2.9729,-3.0524,-3.0712,-3.0712,-3.0712,-3.0712,-3.0712,-3.0712,-3.0712,-3.0723,-3.0767,-3.077,-3.0794,-3.0898,-3.0898,-3.0898,-3.0898,-3.0898,-3.0898,-3.0898,-3.0898,-3.0898,-3.0898,-3.0898,-3.0898,-3.0898,-3.0371,-3.0059,-3.0059,-2.9512,-2.9219,-2.9219,-2.8926,-2.8906,-2.9219,-2.8906,-2.9219,-3.0059,-3.0059,-2.9766]},{"header":{"parameterUnit":"m.s-1","parameterCategory":1,"la1":30.6,"la2":29.2853,"lo1":-89.7004,"lo2":-87.6739,"dy":0.0162,"dx":0.0183,"nx":112,"ny":82,"refTime":"2024-07-31T06:00:00:Z","depth":0,"parameterNumber":3,"parameterNumberName":"V-component_of_WINDS"},"data":[0.0,0.0,0.0,0.0,0.0,0.0,0.0,0.0,0.0,0.0,0.0,0.0,0.0,0.0,0.0,0.0,0.0,0.0,0.0,0.0,0.0,0.0,0.0,0.0,0.0,0.0,0.0,0.0,0.0,0.0,0.0,0.0,0.0,0.0,0.0,0.0,0.0,0.0,0.0,0.0,0.0,0.0,0.0,0.0,0.0,0.0,0.0,0.0,0.0,0.0,0.0,0.0,0.0,0.0,0.0,0.0,0.0,0.0,0.0,0.0,0.0,0.0,0.0,0.0,0.0,0.0,0.0,0.0,0.0,0.0,0.0,0.0,0.0,0.0,0.0,0.0,0.0,0.0,0.0,0.0,0.0,0.0,0.0,0.0,0.0,0.0,0.0,0.0,0.0,0.0,0.0,-1.0843,-1.2215,-1.2992,-1.2905,-1.2412,-1.1219,-0.9141,0.0,0.0,0.0,0.0,0.0,0.0,0.0,0.0,0.0,0.0,0.0,0.0,0.0,0.0,0.0,0.0,0.0,0.0,0.0,0.0,0.0,0.0,0.0,0.0,0.0,0.0,0.0,0.0,0.0,0.0,0.0,0.0,0.0,0.0,0.0,0.0,0.0,0.0,0.0,0.0,0.0,0.0,0.0,0.0,0.0,0.0,0.0,0.0,0.0,0.0,0.0,0.0,0.0,0.0,0.0,0.0,0.0,0.0,0.0,0.0,0.0,0.0,0.0,0.0,0.0,0.0,0.0,0.0,0.0,0.0,0.0,0.0,0.0,0.0,0.0,0.0,0.0,0.0,0.0,0.0,0.0,0.0,0.0,0.0,0.0,0.0,0.0,0.0,0.0,0.0,0.0,0.0,0.0,0.0,0.0,0.0,0.0,0.0,0.0,0.0,0.0,0.0,0.0,0.0,-1.0512,-1.2443,-1.3253,-1.3467,-1.2954,-1.2152,-1.0919,-0.9111,0.0,0.0,0.0,0.0,0.0,0.0,0.0,0.0,0.0,0.0,0.0,0.0,0.0,0.0,0.0,0.0,0.0,0.0,0.0,0.0,0.0,0.0,0.0,0.0,0.0,0.0,0.0,0.0,0.0,0.0,0.0,0.0,0.0,0.0,0.0,0.0,0.0,0.0,0.0,0.0,0.0,0.0,0.0,0.0,0.0,0.0,0.0,0.0,0.0,0.0,0.0,0.0,0.0,0.0,0.0,0.0,0.0,0.0,0.0,0.0,0.0,0.0,0.0,0.0,0.0,0.0,0.0,0.0,0.0,0.0,0.0,0.0,0.0,0.0,0.0,0.0,0.0,0.0,0.0,0.0,0.0,0.0,0.0,0.0,0.0,0.0,0.0,0.0,0.0,0.0,0.0,0.0,0.0,0.0,0.0,0.0,0.0,0.0,0.0,0.0,0.0,0.0,0.0,-0.9282,-1.072,-1.2432,-1.3029,-1.31,-1.2573,-1.1956,-1.0753,-0.8806,-0.8262,0.0,0.0,0.0,0.0,0.0,0.0,0.0,0.0,0.0,0.0,0.0,0.0,0.0,0.0,0.0,0.0,0.0,0.0,0.0,0.0,0.0,0.0,0.0,0.0,0.0,0.0,0.0,0.0,0.0,0.0,0.0,0.0,0.0,0.0,0.0,0.0,0.0,0.0,0.0,0.0,0.0,0.0,0.0,0.0,0.0,0.0,0.0,0.0,0.0,0.0,0.0,0.0,0.0,0.0,0.0,0.0,0.0,0.0,0.0,0.0,0.0,0.0,0.0,0.0,0.0,0.0,0.0,0.0,0.0,0.0,0.0,0.0,0.0,0.0,0.0,0.0,0.0,0.0,0.0,0.0,0.0,0.0,0.0,0.0,0.0,0.0,0.0,0.0,0.0,0.0,0.0,0.0,0.0,0.0,0.0,0.0,0.0,0.0,0.0,0.0,0.0,0.0,-0.9785,-1.0637,-1.2142,-1.2569,-1.2588,-1.2233,-1.1631,-1.0479,-0.8512,-0.7676,0.0,0.0,0.0,0.0,0.0,0.0,0.0,0.0,0.0,0.0,0.0,0.0,0.0,0.0,0.0,0.0,0.0,0.0,0.0,0.0,0.0,0.0,0.0,0.0,0.0,0.0,0.0,0.0,0.0,0.0,0.0,0.0,0.0,0.0,0.0,0.0,0.0,0.0,0.0,0.0,0.0,0.0,0.0,0.0,0.0,0.0,0.0,0.0,0.0,0.0,0.0,0.0,0.0,0.0,0.0,0.0,0.0,0.0,0.0,0.0,0.0,0.0,0.0,0.0,0.0,0.0,0.0,0.0,0.0,0.0,0.0,0.0,0.0,0.0,0.0,0.0,0.0,0.0,0.0,0.0,0.0,0.0,0.0,0.0,0.0,0.0,0.0,0.0,0.0,0.0,0.0,0.0,0.0,0.0,0.0,0.0,0.0,0.0,0.0,0.0,0.0,0.0,-0.9307,-1.0327,-1.2121,-1.2265,-1.2242,-1.2203,-1.1094,-0.9823,-0.8483,-0.6839,0.0,0.0,0.0,0.0,0.0,0.0,0.0,0.0,0.0,0.0,0.0,0.0,0.0,0.0,0.0,0.0,0.0,0.0,0.0,0.0,0.0,0.0,0.0,0.0,0.0,0.0,0.0,0.0,0.0,0.0,0.0,0.0,0.0,0.0,0.0,0.0,0.0,0.0,0.0,0.0,0.0,0.0,0.0,0.0,0.0,0.0,0.0,0.0,0.0,0.0,0.0,0.0,0.0,0.0,0.0,0.0,0.0,0.0,0.0,0.0,0.0,0.0,0.0,0.0,0.0,0.0,0.0,0.0,0.0,0.0,0.0,0.0,0.0,0.0,0.0,0.0,0.0,0.0,0.0,0.0,0.0,0.0,0.0,0.0,0.0,0.0,0.0,0.0,0.0,0.0,0.0,0.0,0.0,0.0,0.0,0.0,0.0,0.0,0.0,0.0,0.0,0.0,-0.8766,-0.9782,0.0,-1.1674,-1.1709,-1.1404,-1.0713,-0.9637,-0.8066,0.0,0.0,0.0,0.0,0.0,0.0,0.0,0.0,0.0,0.0,0.0,0.0,0.0,0.0,0.0,0.0,0.0,0.0,0.0,0.0,0.0,0.0,0.0,0.0,0.0,0.0,0.0,0.0,0.0,0.0,0.0,0.0,0.0,0.0,0.0,0.0,0.0,0.0,0.0,0.0,0.0,0.0,0.0,0.0,0.0,0.0,0.0,0.0,0.0,0.0,0.0,0.0,0.0,0.0,0.0,0.0,0.0,0.0,0.0,0.0,0.0,0.0,0.0,0.0,0.0,0.0,0.0,0.0,0.0,0.0,0.0,0.0,0.0,0.0,0.0,0.0,0.0,0.0,0.0,0.0,0.0,0.0,0.0,0.0,0.0,0.0,0.0,0.0,0.0,0.0,0.0,0.0,0.0,0.0,0.0,0.0,0.0,0.0,0.0,0.0,0.0,0.0,-0.7559,-0.8461,-0.9492,0.0,-1.1193,-1.1252,-1.0937,-1.0273,-0.9258,-0.7793,0.0,0.0,0.0,0.0,0.0,0.0,0.0,0.0,0.0,0.0,0.0,0.0,0.0,0.0,0.0,0.0,0.0,0.0,0.0,0.0,0.0,0.0,0.0,0.0,0.0,0.0,0.0,0.0,0.0,0.0,0.0,0.0,0.0,0.0,0.0,0.0,0.0,0.0,0.0,0.0,0.0,0.0,0.0,0.0,0.0,0.0,0.0,0.0,0.0,0.0,0.0,0.0,0.0,0.0,0.0,0.0,0.0,0.0,0.0,0.0,0.0,0.0,0.0,0.0,0.0,0.0,0.0,0.0,0.0,0.0,0.0,0.0,0.0,0.0,0.0,0.0,0.0,0.0,0.0,0.0,0.0,0.0,0.0,0.0,0.0,0.0,0.0,0.0,0.0,0.0,0.0,0.0,0.0,0.0,0.0,0.0,0.0,0.0,0.0,0.0,0.0,0.0,-0.753,-0.8461,-0.9492,-1.0762,-1.0878,-1.0878,-1.0878,-0.9736,-0.8626,0.0,0.0,0.0,0.0,0.0,0.0,0.0,0.0,0.0,0.0,0.0,0.0,0.0,0.0,0.0,0.0,0.0,0.0,0.0,0.0,0.0,0.0,0.0,0.0,0.0,0.0,0.0,0.0,0.0,0.0,0.0,0.0,0.0,0.0,0.0,0.0,0.0,0.0,0.0,0.0,0.0,0.0,0.0,0.0,0.0,0.0,0.0,0.0,0.0,0.0,0.0,0.0,0.0,0.0,0.0,0.0,0.0,0.0,0.0,0.0,0.0,0.0,0.0,0.0,0.0,0.0,0.0,0.0,0.0,0.0,0.0,0.0,0.0,0.0,0.0,0.0,0.0,0.0,0.0,0.0,0.0,0.0,0.0,0.0,0.0,0.0,0.0,0.0,0.0,0.0,0.0,0.0,0.0,0.0,0.0,0.0,0.0,0.0,0.0,0.0,0.0,0.0,0.0,0.0,-0.8461,-0.9385,-1.0361,-1.0488,-1.0488,-1.0488,-0.957,-0.8626,-0.7754,0.0,0.0,0.0,0.0,0.0,0.0,0.0,0.0,0.0,0.0,0.0,0.0,0.0,0.0,0.0,0.0,0.0,0.0,0.0,0.0,0.0,0.0,0.0,0.0,0.0,0.0,0.0,0.0,0.0,0.0,0.0,0.0,0.0,0.0,0.0,0.0,0.0,0.0,0.0,0.0,0.0,0.0,0.0,0.0,0.0,0.0,0.0,0.0,0.0,0.0,0.0,0.0,0.0,0.0,0.0,0.0,0.0,0.0,0.0,0.0,0.0,0.0,0.0,0.0,0.0,0.0,0.0,0.0,0.0,0.0,0.0,0.0,0.0,0.0,0.0,0.0,0.0,0.0,0.0,0.0,0.0,0.0,0.0,0.0,0.0,0.0,0.0,0.0,0.0,0.0,0.0,0.0,0.0,0.0,0.0,0.0,0.0,0.0,0.0,0.0,0.0,0.0,-0.7511,-0.8461,-0.9336,-1.0215,-1.0303,-1.0303,-1.0303,-0.9502,-0.8626,-0.7754,0.0,0.0,0.0,0.0,0.0,0.0,0.0,0.0,0.0,0.0,0.0,0.0,0.0,0.0,0.0,0.0,0.0,0.0,0.0,0.0,0.0,0.0,0.0,0.0,0.0,0.0,0.0,0.0,0.0,0.0,0.0,0.0,0.0,0.0,0.0,0.0,0.0,0.0,0.0,0.0,0.0,0.0,0.0,0.0,0.0,0.0,0.0,0.0,0.0,0.0,0.0,0.0,0.0,0.0,0.0,0.0,0.0,0.0,0.0,0.0,0.0,0.0,0.0,0.0,0.0,0.0,0.0,0.0,0.0,0.0,0.0,0.0,0.0,0.0,0.0,0.0,0.0,0.0,0.0,0.0,0.0,0.0,0.0,0.0,0.0,0.0,0.0,0.0,0.0,0.0,0.0,0.0,0.0,0.0,0.0,0.0,0.0,0.0,0.0,0.0,0.0,0.0,-0.7481,-0.8461,-0.9336,-1.0215,-1.0303,-1.0303,-1.0303,-0.9502,-0.8636,-0.7827,0.0,0.0,0.0,0.0,0.0,0.0,0.0,0.0,0.0,0.0,0.0,0.0,0.0,0.0,0.0,0.0,0.0,0.0,0.0,0.0,0.0,0.0,0.0,0.0,0.0,0.0,0.0,0.0,0.0,0.0,0.0,0.0,0.0,0.0,0.0,0.0,0.0,0.0,0.0,0.0,0.0,0.0,0.0,0.0,0.0,0.0,0.0,0.0,0.0,0.0,0.0,0.0,0.0,0.0,0.0,0.0,0.0,0.0,0.0,0.0,-0.9686,0.0,0.0,0.0,0.0,0.0,0.0,0.0,0.0,0.0,0.0,0.0,0.0,0.0,0.0,0.0,0.0,0.0,0.0,0.0,0.0,0.0,0.0,0.0,0.0,0.0,0.0,0.0,0.0,0.0,0.0,0.0,0.0,0.0,0.0,0.0,0.0,0.0,0.0,0.0,0.0,0.0,-0.752,-0.8461,-0.9336,-1.0215,-1.0303,-1.0303,-1.0303,-0.9502,-0.8789,-0.8287,0.0,0.0,0.0,0.0,0.0,0.0,0.0,0.0,0.0,0.0,0.0,0.0,0.0,0.0,0.0,0.0,0.0,0.0,0.0,0.0,0.0,0.0,0.0,0.0,0.0,0.0,0.0,0.0,0.0,0.0,0.0,0.0,0.0,0.0,0.0,0.0,0.0,0.0,0.0,0.0,0.0,0.0,0.0,0.0,0.0,0.0,0.0,0.0,0.0,0.0,0.0,0.0,0.0,0.0,0.0,0.0,0.0,0.0,0.0,0.0,0.0,-1.0703,0.0,0.0,0.0,0.0,0.0,0.0,0.0,0.0,0.0,0.0,0.0,0.0,0.0,0.0,0.0,0.0,0.0,0.0,0.0,0.0,0.0,0.0,0.0,0.0,0.0,0.0,0.0,0.0,0.0,0.0,0.0,0.0,0.0,0.0,0.0,0.0,0.0,0.0,0.0,0.0,-0.8102,-0.8869,-0.9542,-1.0234,-1.0303,-1.0303,-1.0303,-0.9678,-0.9043,-0.8434,-0.7334,0.0,0.0,0.0,0.0,0.0,0.0,0.0,0.0,0.0,0.0,0.0,0.0,0.0,0.0,0.0,0.0,0.0,0.0,0.0,0.0,0.0,0.0,0.0,0.0,0.0,0.0,0.0,0.0,0.0,0.0,0.0,0.0,0.0,0.0,0.0,0.0,0.0,0.0,0.0,0.0,0.0,0.0,0.0,0.0,0.0,0.0,0.0,0.0,0.0,0.0,0.0,0.0,0.0,-1.3769,-1.412,-1.4087,-1.504,-1.5223,-1.4745,-1.3521,-1.292,-1.2686,0.0,0.0,0.0,0.0,0.0,0.0,0.0,0.0,0.0,0.0,0.0,0.0,0.0,0.0,0.0,0.0,0.0,0.0,0.0,0.0,0.0,0.0,0.0,0.0,0.0,-1.3551,-1.3554,0.0,0.0,0.0,0.0,0.0,0.0,0.0,0.0,0.0,0.0,0.0,0.0,-0.9001,-0.9501,-0.9906,-1.036,-1.0341,-1.0303,-1.0303,-0.9864,-0.9289,-0.8551,-0.7993,-0.7024,0.0,0.0,0.0,0.0,0.0,0.0,0.0,0.0,0.0,0.0,0.0,0.0,0.0,0.0,0.0,0.0,0.0,0.0,0.0,0.0,0.0,0.0,0.0,0.0,0.0,0.0,0.0,0.0,0.0,0.0,0.0,0.0,-0.7342,-0.7996,0.0,0.0,0.0,0.0,0.0,0.0,0.0,0.0,0.0,0.0,0.0,0.0,0.0,-1.2123,-1.3826,-1.3842,-1.4799,-1.6679,-1.6767,-1.7068,-1.7551,-1.7702,-1.7727,-1.7652,-1.7455,0.0,-1.3868,-1.3661,0.0,0.0,0.0,0.0,0.0,0.0,0.0,0.0,0.0,0.0,0.0,0.0,0.0,0.0,0.0,0.0,0.0,0.0,0.0,0.0,0.0,0.0,-1.5021,-1.4657,-1.4683,-1.4683,0.0,-1.278,-1.1236,-1.0404,-0.9759,0.0,0.0,0.0,0.0,0.0,0.0,0.0,-1.0161,-1.0295,-1.0443,-1.0853,-1.0544,-1.0303,-1.0303,-0.9864,-0.9406,-0.8955,-0.8158,-0.7447,-0.6865,-0.578,0.0,0.0,0.0,0.0,0.0,0.0,0.0,0.0,0.0,0.0,0.0,0.0,0.0,0.0,0.0,0.0,0.0,0.0,0.0,0.0,0.0,0.0,0.0,0.0,0.0,0.0,0.0,0.0,0.0,-0.7141,-0.8501,-0.9412,-1.0036,-1.0105,0.0,0.0,0.0,0.0,0.0,0.0,0.0,0.0,0.0,-1.3814,-1.447,-1.5373,-1.647,-1.6038,-1.6512,-1.7852,-1.7702,-1.7836,-1.8216,-1.8506,-1.8263,-1.7605,-1.8025,-1.7283,-1.5724,-1.4858,-1.3655,-1.2339,0.0,0.0,0.0,0.0,-1.2378,-1.2568,-1.3305,-1.3551,0.0,-1.2839,0.0,0.0,0.0,0.0,0.0,0.0,0.0,0.0,0.0,0.0,0.0,-1.5706,-1.5793,-1.5793,-1.5793,-1.4802,-1.3546,0.0,-1.1999,-1.1403,-0.983,0.0,0.0,0.0,0.0,0.0,-1.1109,-1.1215,-1.1187,-1.1029,-1.0572,-1.0303,-1.0303,-1.0107,-0.9717,-0.9043,-0.8636,-0.8022,-0.7139,-0.6531,-0.5866,0.0,0.0,0.0,0.0,0.0,0.0,0.0,0.0,0.0,0.0,0.0,0.0,0.0,0.0,0.0,0.0,0.0,0.0,0.0,0.0,0.0,0.0,0.0,0.0,0.0,0.0,0.0,0.0,-0.8566,-0.9732,-1.0787,-1.1558,-1.1764,0.0,0.0,0.0,0.0,0.0,0.0,-1.3203,-1.4138,-1.5169,-1.6308,-1.7149,-1.7852,-1.8405,-1.7678,-1.764,-1.8314,-1.7991,-1.7891,-1.8068,-1.8458,-1.8132,-1.7249,-1.7809,-1.7576,-1.6733,-1.5786,-1.4718,-1.3615,-1.3059,-1.2708,-1.2621,-1.3825,-1.4274,-1.4429,-1.5527,-1.5906,-1.5768,-1.4959,0.0,-1.3773,-1.2522,0.0,0.0,0.0,0.0,-1.3559,-1.4959,-1.5179,-1.5277,-1.6074,-1.6151,-1.6086,-1.6238,-1.5971,-1.5298,0.0,-1.3927,-1.3352,-1.1322,0.0,0.0,0.0,0.0,-1.2111,-1.2271,-1.2038,-1.1685,-1.1229,-1.0643,-1.0303,-1.0303,-1.0303,-0.9931,-0.9062,-0.9004,-0.8477,-0.7301,-0.7158,-0.6628,-0.5633,0.0,0.0,0.0,0.0,0.0,0.0,0.0,0.0,0.0,0.0,0.0,0.0,0.0,0.0,0.0,0.0,0.0,0.0,0.0,0.0,0.0,0.0,0.0,0.0,0.0,0.0,0.0,0.0,0.0,-1.222,-1.3717,0.0,0.0,0.0,0.0,-1.235,-1.3797,-1.4952,-1.5505,-1.6597,-1.7476,-1.8066,-1.8129,-1.843,-1.8958,-1.8222,-1.8118,-1.867,-1.7958,-1.7604,-1.7648,-1.767,-1.7632,-1.7582,-1.7609,-1.6988,-1.602,-1.6694,-1.6385,-1.5394,-1.4665,-1.3817,-1.3114,-1.4315,-1.4746,-1.4935,-1.6058,-1.645,-1.645,-1.6387,-1.568,-1.4814,-1.4745,-1.4356,0.0,0.0,-1.5148,-1.5668,-1.6283,-1.5988,-1.5594,-1.5642,-1.5208,-1.4949,-1.5521,-1.563,-1.5603,0.0,-1.5185,-1.4645,-1.4002,0.0,-1.3909,-1.3901,-1.3398,-1.3231,-1.3808,-1.26,-1.1711,-1.166,-1.0854,-1.0303,-1.0303,-1.0303,-0.9931,-0.9062,-0.9004,-0.8597,-0.7705,-0.7301,-0.707,-0.7002,-0.575,0.0,0.0,0.0,0.0,0.0,0.0,0.0,0.0,0.0,0.0,0.0,0.0,0.0,0.0,0.0,0.0,0.0,0.0,0.0,0.0,0.0,0.0,0.0,0.0,0.0,0.0,0.0,0.0,-1.44,-1.5354,0.0,0.0,-1.5567,-1.5819,-1.5618,-1.6484,-1.7099,-1.73,-1.8028,-1.8506,-1.8707,-1.9058,-1.9082,-1.8804,-1.8072,-1.7805,-1.7977,-1.7246,-1.7135,-1.7605,-1.7605,-1.733,-1.6922,-1.7385,-1.7092,-1.6304,-1.6591,-1.5874,-1.4618,-1.4485,-1.4204,-1.3964,-1.453,-1.4975,-1.5372,-1.5782,-1.6173,-1.65,-1.65,-1.6237,-1.5932,-1.5932,-1.5793,-1.568,-1.5881,-1.607,-1.6249,-1.645,-1.6337,-1.6073,-1.5698,-1.5432,-1.5343,-1.5543,-1.561,-1.5716,-1.6131,-1.607,-1.5643,-1.4777,-1.4896,-1.4903,-1.4186,-1.4145,-1.4151,-1.4009,-1.3187,-1.2362,-1.1754,-1.1095,-1.0576,-1.0322,-1.002,-0.9601,-0.9043,-0.875,-0.834,-0.7725,-0.7559,-0.7223,-0.667,-0.618,-0.5536,0.0,0.0,0.0,0.0,0.0,0.0,0.0,0.0,0.0,0.0,0.0,0.0,0.0,0.0,0.0,0.0,0.0,0.0,0.0,0.0,0.0,0.0,0.0,0.0,0.0,0.0,-1.4646,-1.5815,-1.6613,-1.6989,-1.6823,-1.7325,-1.7664,-1.7664,-1.8179,-1.8456,-1.8456,-1.897,-1.9259,-1.9259,-1.9811,-1.9877,-1.9376,-1.8416,-1.7891,-1.7891,-1.6697,-1.6397,-1.6856,-1.6856,-1.6585,-1.6151,-1.6641,-1.6726,-1.6492,-1.6236,-1.5662,-1.4867,-1.4617,-1.4456,-1.4348,-1.4698,-1.5113,-1.5554,-1.5814,-1.6173,-1.65,-1.65,-1.65,-1.65,-1.65,-1.65,-1.65,-1.65,-1.65,-1.65,-1.65,-1.6207,-1.5832,-1.5654,-1.5286,-1.5107,-1.5509,-1.561,-1.5776,-1.638,-1.65,-1.6262,-1.5555,-1.5575,-1.5439,-1.471,-1.4523,-1.4323,-1.3972,-1.3258,-1.2517,-1.1747,-1.1203,-1.0742,-1.0332,-0.9864,-0.9494,-0.9211,-0.8691,-0.8268,-0.7944,-0.7652,-0.7223,-0.665,-0.6472,-0.5918,-0.4941,0.0,0.0,0.0,0.0,0.0,0.0,0.0,0.0,0.0,0.0,0.0,0.0,0.0,0.0,0.0,0.0,0.0,0.0,0.0,0.0,0.0,0.0,0.0,-1.3846,-1.4638,-1.5614,-1.6491,-1.7541,-1.8028,-1.7524,-1.794,-1.8267,-1.8279,-1.8757,-1.9058,-1.9083,-1.9572,-1.9849,-1.9849,-2.0427,-2.0717,-2.069,-1.924,-1.8503,-1.8463,-1.6405,-1.543,-1.543,-1.542,-1.541,-1.541,-1.541,-1.5806,-1.6407,-1.569,-1.5806,-1.6355,-1.5251,-1.4521,-1.4204,-1.4829,-1.516,-1.5418,-1.6215,-1.6504,-1.6491,-1.65,-1.65,-1.65,-1.65,-1.65,-1.65,-1.6479,-1.6466,-1.6466,-1.6457,-1.5589,-1.4858,-1.5432,-1.4687,-1.4156,-1.5309,-1.5565,-1.5754,-1.6337,-1.6445,-1.6457,-1.6466,-1.5974,-1.5565,-1.5565,-1.4561,0.0,-1.3792,-1.2879,-1.208,-1.1653,-1.1201,-1.0771,-1.0361,-0.9884,-0.9602,-0.9573,-0.8838,-0.8395,-0.8395,-0.7578,-0.7139,-0.7119,-0.665,-0.6211,-0.5834,0.0,0.0,0.0,0.0,0.0,0.0,0.0,0.0,0.0,0.0,0.0,0.0,0.0,0.0,0.0,0.0,0.0,0.0,0.0,0.0,0.0,0.0,-1.5324,-1.5174,-1.6439,-1.7599,-1.8243,-1.8594,-1.8857,-1.912,-1.9271,-1.9535,-1.9987,-2.0151,-2.0388,-2.079,-2.0941,-2.1029,-2.1029,-2.1179,-2.102,-2.0504,-1.9437,-1.8685,-1.8128,-1.6618,-1.5919,-1.5909,-1.5557,-1.541,-1.541,-1.541,-1.5526,-1.57,-1.5468,-1.5526,-1.5651,-1.5036,-1.4717,-1.4598,-1.4436,-1.4711,-1.5268,-1.6068,-1.6344,-1.6375,-1.6473,-1.65,-1.65,-1.65,-1.65,-1.6402,-1.5974,-1.5842,-1.5754,-1.531,-1.4949,-1.4744,-1.4903,-1.4698,-1.4537,-1.488,-1.4949,-1.4994,-1.5152,-1.5197,-1.5332,-1.5776,-1.5354,-1.4949,-1.4949,-1.4306,0.0,-1.3792,-1.3151,-1.2529,-1.2067,-1.1921,-1.1541,-1.0801,-1.0352,-0.9834,-0.9201,-0.8688,-0.8395,-0.8395,-0.817,-0.7881,-0.7544,-0.6784,-0.6431,0.0,0.0,0.0,0.0,0.0,0.0,0.0,0.0,0.0,0.0,0.0,0.0,0.0,0.0,0.0,0.0,0.0,0.0,0.0,0.0,0.0,0.0,-1.6078,-1.7064,-1.7064,-1.7904,-1.8719,-1.9259,-1.9334,-1.9572,-2.0112,-2.0189,-2.0427,-2.0993,-2.1043,-2.1182,-2.1468,-2.1493,-2.1493,-2.1493,-2.1707,-2.162,-2.1206,-2.0026,-1.9213,-1.8785,-1.7144,-1.625,-1.6085,-1.5831,-1.5586,0.0,-1.541,-1.5584,-1.5835,-1.5526,-1.5575,0.0,0.0,0.0,0.0,0.0,-1.5015,-1.5421,-1.598,-1.637,-1.6622,-1.6464,-1.6428,-1.6424,-1.619,-1.6117,-1.6008,-1.5387,-1.541,-1.5454,-1.4858,-1.4514,-1.4376,-1.4629,-1.4514,-1.4376,-1.4663,-1.4698,-1.4698,-1.4698,-1.4502,0.0,-1.479,-1.4549,-1.4329,-1.4329,-1.3802,-1.342,-1.342,-1.3128,-1.2715,-1.2252,-1.2203,-1.1853,-1.0966,-1.0518,0.0,0.0,0.0,-0.8493,-0.8115,-0.8297,0.0,0.0,0.0,0.0,0.0,0.0,0.0,0.0,-0.7455,-0.7549,0.0,0.0,0.0,0.0,0.0,0.0,0.0,0.0,0.0,0.0,0.0,0.0,0.0,0.0,0.0,0.0,-1.7666,-1.902,-1.9083,-1.9096,-1.9259,-1.9748,-1.9861,-2.01,-2.0641,-2.0742,-2.1018,-2.1543,-2.1581,-2.1606,-2.1669,0.0,0.0,0.0,0.0,-2.2397,-2.2397,-2.0789,-1.9992,-1.9949,-1.7799,-1.6572,-1.6163,-1.6114,-1.585,-1.541,-1.541,-1.5777,-1.6322,-1.5671,-1.5777,-1.6322,-1.5671,-1.541,-1.5419,-1.5589,-1.5667,-1.5676,-1.5908,0.0,0.0,-1.6361,-1.6279,-1.6277,-1.5675,-1.5543,-1.5454,-1.4789,-1.4983,-1.5276,-1.4652,-1.4107,-1.3849,-1.4456,-1.419,-1.3956,-1.4491,-1.4606,-1.4583,-1.4502,-1.405,-1.3708,-1.3708,-1.3708,-1.3708,-1.3708,-1.3238,-1.2905,-1.2905,-1.2905,-1.2734,-1.232,0.0,0.0,-1.1133,-1.0674,-1.04,-1.0312,-0.9521,-0.8724,-0.7948,-0.8311,-0.834,-0.7919,-0.8271,-0.8649,-0.9004,-0.9004,-0.921,-0.959,-0.8745,-0.8846,0.0,0.0,0.0,0.0,0.0,0.0,0.0,0.0,0.0,0.0,0.0,0.0,0.0,0.0,0.0,-1.7488,-1.8431,-1.9146,-1.9597,-1.966,-1.9685,-1.9798,-2.0239,-2.0566,-2.0679,-2.1094,-2.1556,-2.2108,-2.2159,-2.2347,-2.2757,-2.2782,0.0,-2.2782,-2.2895,-2.2945,-2.2945,-2.1296,-2.0445,-2.0445,0.0,0.0,-1.656,-1.6261,-1.585,-1.541,-1.541,-1.5468,-1.5613,-1.5468,-1.5468,-1.5613,-1.5468,-1.541,-1.54,-1.5428,-1.5456,-1.5483,-1.5687,-1.5844,-1.5918,-1.5595,-1.5879,-1.615,-1.5177,-1.5208,0.0,-1.4272,-1.405,-1.4003,-1.3406,-1.3152,-1.3224,-1.3826,-1.3886,-1.3815,-1.3956,-1.398,-1.3826,-1.3334,-1.3152,-1.3079,-1.3079,-1.3079,-1.3079,-1.3079,-1.2968,-1.2905,-1.2905,-1.2905,-1.2876,-1.2764,-1.2754,-1.2549,-1.1999,-1.1594,-1.1036,-1.0352,-0.9795,-0.9398,-0.9233,-0.9328,-0.9328,-0.9233,-0.8997,-0.8926,-0.9004,-0.9004,-0.9214,-0.96,-0.9412,-0.9783,0.0,0.0,0.0,0.0,0.0,0.0,0.0,0.0,0.0,0.0,0.0,-1.4726,0.0,0.0,-1.7639,-1.8456,-1.9033,-1.9484,-1.9761,-1.9798,-1.9798,-1.9798,-2.0062,-2.0478,-2.1056,-2.1358,-2.1832,-2.2631,-2.2694,-2.2819,-2.3095,-2.3108,-2.3108,-2.3108,-2.3108,-2.3108,-2.3108,-2.1865,-2.1037,-2.059,-1.9068,-1.7878,-1.7051,-1.6858,-1.6388,-1.5732,-1.5732,-1.5615,-1.541,-1.541,-1.541,-1.541,-1.541,-1.541,-1.541,-1.541,-1.541,-1.541,-1.5537,-1.5785,-1.6032,-1.5647,-1.576,-1.5906,-1.4884,-1.4763,-1.4778,-1.3662,-1.3576,-1.3661,-1.3065,-1.2905,-1.2968,-1.3286,-1.3348,-1.3348,-1.3348,-1.3348,-1.3262,-1.2968,-1.2905,-1.2905,-1.2905,-1.2905,-1.2905,-1.2905,-1.2905,-1.2905,-1.2905,-1.2905,-1.2905,-1.2905,-1.2905,-1.2705,-1.2242,-1.1621,-1.1055,-1.0625,-1.0195,-0.9835,-0.9602,-0.9825,-0.9835,-0.9602,-0.9639,-0.9648,-0.9648,-0.9648,-0.9756,-0.9951,-0.9956,-1.0443,0.0,0.0,0.0,0.0,0.0,0.0,0.0,0.0,-1.4168,-1.5311,-1.6233,-1.7024,-1.7589,-1.843,-1.907,-1.9284,-1.9698,-2.0012,-2.0112,-2.0037,-1.9962,-1.9962,-1.9962,-2.0376,-2.1393,-2.1581,-2.2071,-2.3032,-2.3108,-2.3108,-2.3108,-2.3108,-2.3108,-2.3108,-2.3108,-2.3108,-2.3108,-2.2292,-2.1553,-2.0846,-1.9792,-1.8718,-1.7635,-1.7481,-1.6936,-1.6085,-1.6007,-1.5732,-1.541,-1.541,-1.541,-1.541,-1.541,-1.541,-1.541,-1.541,-1.541,-1.541,-1.541,-1.5777,-1.6211,-1.5684,-1.5683,-1.5668,-1.4557,-1.4302,-1.4183,-1.3184,-1.3238,-1.3505,-1.3041,-1.2905,-1.2905,-1.2905,-1.2905,-1.2905,-1.2905,-1.2905,-1.2905,-1.2905,-1.2905,-1.2905,-1.2905,-1.2905,-1.2905,-1.2905,-1.2905,-1.2905,-1.2905,-1.2905,-1.2905,-1.2905,-1.2905,-1.2705,-1.2242,-1.1472,-1.0996,-1.0918,-1.0518,-1.0127,-0.9757,-1.0098,-1.0117,-0.9747,-1.0107,-1.0303,-1.0303,-1.0303,-1.0303,-1.0303,-1.0303,-1.0783,-1.0782,-1.1188,0.0,-1.3373,-1.3483,-1.3984,0.0,0.0,-1.645,-1.7601,-1.7928,-1.8191,-1.8719,-1.892,-1.9321,-2.0352,-2.0553,-2.0767,-2.123,-2.0905,-2.0591,-2.0591,-2.0591,-2.0842,-2.143,-2.1933,-2.2443,-2.3058,-2.3108,-2.3108,-2.3108,-2.3108,-2.3108,-2.3108,-2.3108,-2.3108,-2.3108,-2.2292,-2.1846,-2.171,-2.0074,-1.8992,-1.8446,-1.7723,-1.6936,-1.6075,-1.5654,-1.5459,-1.541,-1.541,-1.541,-1.541,-1.541,-1.541,-1.541,-1.541,-1.541,-1.541,-1.541,-1.5439,-1.5458,-1.5034,-1.5265,-1.5473,-1.4035,-1.3972,-1.4183,-1.3184,-1.2954,-1.2992,-1.2929,-1.2905,-1.2905,-1.2905,-1.2905,-1.2905,-1.2905,-1.2905,-1.2905,-1.2905,-1.2905,-1.2905,-1.2905,-1.2905,-1.2905,-1.2905,-1.2905,-1.2905,-1.2905,-1.2905,-1.2905,-1.2905,-1.2905,-1.2705,-1.2242,-1.1777,-1.134,-1.0937,-1.0518,-1.0283,-1.0215,-1.0273,-1.0283,-1.0215,-1.0273,-1.0303,-1.0303,-1.0303,-1.0303,-1.0303,-1.0303,-1.0572,-1.3314,0.0,0.0,0.0,-1.6136,-1.6573,-1.7894,-1.8067,-1.8092,-1.8569,-1.892,-1.9208,-1.9409,-1.9472,-1.9748,0.0,-2.0691,-2.088,-2.1405,-2.1043,-2.0691,-2.0691,-2.0402,-2.0514,-2.1405,-2.1694,-2.2196,-2.3045,-2.3108,-2.3108,-2.3108,-2.3108,-2.3108,-2.3108,-2.3108,-2.3108,-2.3108,-2.2763,-2.2353,-2.1877,-2.0655,-1.9684,-1.8983,-1.8125,-1.7275,-1.6445,-1.6229,-1.5859,-1.543,-1.5684,-1.5644,-1.541,-1.541,-1.541,-1.541,-1.541,-1.541,-1.541,-1.541,-1.541,-1.5381,-1.5205,-1.515,-1.5017,-1.4106,-1.3862,-1.3741,-1.3086,-1.2905,-1.2905,-1.2905,-1.2905,-1.2905,-1.2905,-1.2905,-1.2905,-1.2905,-1.2905,-1.2905,-1.2905,-1.2905,-1.2905,-1.2905,-1.2905,-1.2905,-1.2905,-1.2905,-1.2905,-1.2905,-1.2905,-1.2905,-1.2905,-1.2905,-1.2812,-1.2627,-1.2207,-1.1875,-1.1667,-1.1291,-1.0929,-1.0654,-1.0645,-1.0537,-1.0303,-1.0303,-1.0303,-1.0303,-1.0303,-1.043,-1.0645,-1.0645,-1.0903,-1.5206,0.0,0.0,-1.7652,-1.8141,-1.8505,-1.8819,-1.907,-1.9221,-1.9221,-1.9547,-1.9798,-1.9798,-1.9798,0.0,-2.0805,-2.0918,-2.1074,-2.1547,-2.1051,-2.0523,-2.0278,-1.9629,-1.958,-2.0587,-2.1033,-2.1719,-2.2794,-2.266,-2.2692,-2.3065,-2.2884,-2.2884,-2.3078,-2.3108,-2.3108,-2.3108,-2.3108,-2.2823,-2.223,-2.1365,-2.0494,-1.9617,-1.8409,-1.75,-1.6904,-1.6755,-1.6268,-1.5615,-1.5958,-1.5811,-1.541,-1.541,-1.541,-1.541,-1.541,-1.541,-1.541,-1.541,-1.541,-1.541,-1.541,-1.5127,-1.4697,-1.4241,-1.3812,-1.3418,-1.2998,-1.2905,-1.2905,-1.2905,-1.2905,-1.2905,-1.2905,-1.2905,-1.2905,-1.2905,-1.2905,-1.2905,-1.2905,-1.2905,-1.2905,-1.2905,-1.2905,-1.2905,-1.2905,-1.2905,-1.2905,-1.2905,-1.2905,-1.2905,-1.2905,-1.2905,-1.2905,-1.2905,-1.248,-1.2203,-1.2203,-1.1829,-1.1438,-1.1103,-1.1084,-1.0889,-1.0459,-1.0479,-1.0479,-1.0479,-1.0479,-1.0674,-1.1084,-1.1084,-1.1328,0.0,0.0,-1.7614,-1.8682,-1.8958,-1.9284,-2.0377,-2.0189,-1.9773,-1.9773,-1.9798,-1.9798,-1.9798,-1.9798,-2.0162,-2.128,-2.1496,-2.1576,-2.1841,-2.1027,-2.0099,-1.9238,-1.8283,-1.7918,0.0,-1.9891,-2.1182,-2.2246,-2.1552,-2.1662,-2.301,-2.2353,-2.2279,-2.3078,-2.3108,-2.3108,-2.3108,-2.3108,-2.3078,-2.3035,-2.2261,-2.1396,-2.0472,-1.8381,-1.7393,-1.7344,-1.6882,-1.6465,-1.6075,-1.6085,-1.5811,-1.541,-1.541,-1.541,-1.541,-1.541,-1.541,-1.541,-1.541,-1.541,-1.541,-1.541,-1.5127,-1.4697,-1.4241,-1.3812,-1.3418,-1.2998,-1.2905,-1.2905,-1.2905,-1.2905,-1.2905,-1.2905,-1.2905,-1.2905,-1.2905,-1.2905,-1.2905,-1.2905,-1.2905,-1.2905,-1.2905,-1.2905,-1.2905,-1.2905,-1.2905,-1.2905,-1.2905,-1.2905,-1.2905,-1.2905,-1.2905,-1.2905,-1.2905,-1.248,-1.2203,-1.2203,-1.1829,-1.1596,-1.1587,-1.1587,-1.1359,-1.0898,-1.0868,-1.0868,-1.0868,-1.0868,-1.1113,-1.1587,-1.1587,-1.1809,0.0,0.0,-1.9171,-1.9924,-2.0388,-2.0665,-2.0691,-2.0541,-2.0189,-1.9447,-1.8943,-1.8555,-1.8202,-1.8129,-1.8482,-1.9592,-2.0447,-2.1067,-2.1278,-2.1003,-2.0381,-1.9246,-1.8721,0.0,0.0,0.0,0.0,-2.0626,-2.0434,-2.0868,-2.2224,-2.2032,-2.2261,-2.3078,-2.3108,-2.3108,-2.3108,-2.3108,-2.2823,-2.2292,-2.0878,-2.0009,-1.9683,-1.8378,-1.7646,-1.7373,-1.7227,-1.6748,-1.6095,-1.6095,-1.5811,-1.541,-1.541,-1.541,-1.541,-1.541,-1.541,-1.541,-1.541,-1.541,-1.541,-1.541,-1.5127,-1.4697,-1.4241,-1.3812,-1.3418,-1.2998,-1.2905,-1.2905,-1.2905,-1.2905,-1.2905,-1.2905,-1.2905,-1.2905,-1.2905,-1.2905,-1.2905,-1.2905,-1.2905,-1.2905,-1.2905,-1.2905,-1.2905,-1.2905,-1.2905,-1.2905,-1.2905,-1.2905,-1.2905,-1.2905,-1.2905,-1.2905,-1.2905,-1.2768,-1.2656,-1.2656,-1.2543,-1.2328,-1.2021,-1.2002,-1.1797,-1.1369,-1.1359,-1.1359,-1.1359,-1.1359,-1.1594,-1.2002,-1.2002,-1.2236,0.0,-1.9422,-2.03,-2.1094,-2.1257,-2.1182,-2.1018,-2.0528,-1.9822,-1.887,-1.8238,-1.7623,-1.7068,-1.6985,-1.7401,-1.8704,-1.9704,-2.0381,-2.0514,-2.0575,-2.0084,-1.8662,-1.8265,0.0,0.0,0.0,0.0,-1.9711,-1.9561,-2.0001,-2.1373,-2.1144,-2.1353,-2.2175,-2.2206,-2.2206,-2.2206,-2.2206,-2.2094,-2.1877,-2.0139,-1.9464,-1.9716,-1.8402,-1.7637,-1.7373,-1.7217,-1.6738,-1.6095,-1.6095,-1.5811,-1.541,-1.541,-1.541,-1.541,-1.541,-1.541,-1.541,-1.541,-1.541,-1.541,-1.541,-1.5127,-1.4727,-1.4453,-1.3965,-1.3447,-1.3184,-1.3023,-1.2905,-1.2905,-1.2905,-1.2905,-1.2905,-1.2905,-1.2905,-1.2905,-1.2905,-1.2905,-1.2905,-1.2905,-1.2905,-1.2905,-1.2905,-1.2905,-1.2905,-1.2905,-1.2905,-1.2905,-1.2905,-1.2905,-1.2905,-1.2905,-1.2905,-1.2905,-1.2905,-1.2905,-1.2905,-1.2905,-1.2754,-1.2447,-1.2461,-1.2256,-1.1829,-1.1797,-1.1797,-1.1797,-1.1797,-1.2031,-1.2461,-1.2461,-1.2617,-1.956,-2.0288,-2.1031,-2.2083,-2.1543,-2.0893,-2.137,-2.0186,-1.8796,-1.8123,-1.7517,-1.6928,0.0,0.0,-1.6745,-1.8391,-1.9164,-1.9606,-1.9588,-1.9747,-1.926,0.0,0.0,0.0,0.0,0.0,0.0,-1.9456,0.0,-1.9073,-2.0472,-1.9759,-1.9683,-2.0558,-2.059,-2.059,-2.059,-2.0558,-2.0974,-2.1815,-2.0074,-1.9694,-2.044,-1.8392,-1.7402,-1.7363,-1.6892,-1.6475,-1.6095,-1.6065,-1.5811,-1.541,-1.541,-1.541,-1.541,-1.541,-1.541,-1.541,-1.541,-1.541,-1.541,-1.541,-1.5146,-1.4842,-1.4823,-1.4209,-1.3535,-1.3516,-1.3203,-1.2905,-1.2905,-1.2905,-1.2905,-1.2905,-1.2905,-1.2905,-1.2905,-1.2905,-1.2905,-1.2905,-1.2905,-1.2905,-1.2905,-1.2905,-1.2905,-1.2905,-1.2905,-1.2905,-1.2905,-1.2905,-1.2905,-1.2905,-1.2905,-1.2905,-1.2905,-1.2905,-1.2905,-1.2905,-1.2905,-1.2905,-1.2905,-1.2905,-1.2662,-1.2196,-1.2186,-1.2163,-1.214,-1.2163,-1.24,-1.2847,-1.2881,-1.2905,-2.0176,-2.1182,-2.2058,-2.2719,-2.2397,-2.1707,-2.1056,-1.9869,-1.8441,-1.675,-1.5556,-1.4466,-1.327,0.0,0.0,-1.5119,-1.686,0.0,-1.8262,-1.8966,0.0,0.0,0.0,-1.7559,-1.7246,-1.75,0.0,0.0,-1.7968,-1.8263,-1.9563,-1.9431,-1.9683,-2.0558,-2.059,-2.059,-2.059,-1.9955,-2.0074,-2.091,-1.9166,-1.8787,-1.9584,-1.8385,-1.7676,-1.7363,-1.6892,-1.6475,-1.6065,-1.5713,-1.5508,-1.541,-1.541,-1.541,-1.541,-1.541,-1.541,-1.541,-1.541,-1.541,-1.541,-1.541,-1.5342,-1.5195,-1.4883,-1.4404,-1.388,-1.3594,-1.3203,-1.2905,-1.2905,-1.2905,-1.2905,-1.2905,-1.2905,-1.2905,-1.2905,-1.2905,-1.2905,-1.2905,-1.2905,-1.2905,-1.2905,-1.2905,-1.2905,-1.2905,-1.2905,-1.2905,-1.2905,-1.2905,-1.2905,-1.2905,-1.2905,-1.2905,-1.2905,-1.2905,-1.2905,-1.2905,-1.2905,-1.2905,-1.2905,-1.2905,-1.2594,-1.1932,-1.1899,-1.1654,-1.1162,-1.1654,-1.1954,-1.208,-1.2632,-1.2905,-2.1091,-2.202,-2.2719,-2.3032,-2.2288,-2.1219,-2.0217,-1.8664,-1.6825,-1.4841,-1.3718,0.0,0.0,0.0,0.0,0.0,0.0,0.0,-1.7494,-1.8386,-1.8658,0.0,-1.7871,0.0,-1.7939,-1.8144,-1.8247,0.0,-1.79,-1.7988,-1.8677,-1.8721,-1.8944,-1.9431,-1.9464,-1.9464,-1.9464,-1.8977,-1.9177,-2.0009,-1.8654,-1.8462,-1.9266,-1.8205,-1.7607,-1.7344,0.0,-1.6299,-1.6056,-1.5586,-1.541,-1.541,-1.541,-1.541,-1.541,-1.541,-1.541,-1.541,-1.541,-1.541,-1.541,-1.541,-1.541,-1.5371,-1.5127,-1.4601,-1.4055,-1.3821,-1.335,-1.2905,-1.2905,-1.2905,-1.2905,-1.2905,-1.2905,-1.2905,-1.2905,-1.2905,-1.2905,-1.2905,-1.2905,-1.2905,-1.2905,-1.2905,-1.2905,-1.2905,-1.2905,-1.2905,-1.2905,-1.2905,-1.2905,-1.2905,-1.2905,-1.2905,-1.2905,-1.2905,-1.2905,-1.2905,-1.2905,-1.2905,-1.2905,-1.2584,-1.2212,-1.1814,-1.1789,-1.1616,-1.1241,-1.1931,-1.2286,-1.2295,-1.2715,-1.2905,-2.1945,-2.2631,-2.3083,-2.3007,-2.1648,-2.0057,-1.9103,-1.6965,-1.4682,-1.2871,0.0,0.0,-1.0301,0.0,-1.1802,-1.298,0.0,-1.6174,-1.716,-1.7947,-1.8375,-1.8186,-1.8076,-1.8154,-1.8481,-1.852,-1.852,-1.852,-1.8213,-1.8008,-1.8008,-1.8008,-1.8008,-1.8008,-1.8008,-1.8008,-1.8008,-1.8008,-1.8371,-1.911,-1.8361,-1.8405,-1.91,-1.7982,-1.7432,-1.7334,0.0,0.0,-1.6056,-1.5586,-1.541,-1.541,-1.541,-1.541,-1.541,-1.541,-1.541,-1.541,-1.541,-1.541,-1.541,-1.541,-1.541,-1.541,-1.541,-1.4786,-1.4104,-1.4104,-1.3525,-1.2905,-1.2905,-1.2905,-1.2905,-1.2905,-1.2905,-1.2905,-1.2905,-1.2905,-1.2905,-1.2905,-1.2905,-1.2905,-1.2905,-1.2905,-1.2905,-1.2905,-1.2905,-1.2905,-1.2905,-1.2905,-1.2905,-1.2905,-1.2905,-1.2905,-1.2905,-1.2905,-1.2905,-1.2905,-1.2905,-1.2856,-1.2774,-1.2138,-1.1715,-1.1541,-1.1541,-1.1491,-1.1391,-1.223,-1.2618,-1.2627,-1.2808,-1.2905,-2.1581,-2.2343,-2.2995,-2.2543,-2.1113,-1.9465,-1.8088,-1.5647,0.0,0.0,0.0,-0.9837,-0.9324,-0.995,0.0,-1.219,0.0,0.0,0.0,0.0,-1.7981,0.0,0.0,0.0,0.0,0.0,0.0,0.0,0.0,0.0,-1.8008,-1.8008,-1.8008,-1.8008,-1.8008,-1.8008,-1.8008,-1.8008,-1.8076,-1.8202,-1.8076,-1.8076,-1.8236,-1.7997,-1.7715,-1.7353,-1.6836,0.0,-1.6056,-1.5586,-1.541,-1.541,-1.541,-1.541,-1.541,-1.541,-1.541,-1.541,-1.541,-1.541,-1.541,-1.541,-1.541,-1.541,-1.541,-1.4786,-1.4104,-1.4104,-1.3525,-1.2905,-1.2905,-1.2905,-1.2905,-1.2905,-1.2905,-1.2905,-1.2905,-1.2905,-1.2905,-1.2905,-1.2905,-1.2905,-1.2905,-1.2905,-1.2905,-1.2905,-1.2905,-1.2905,-1.2905,-1.2905,-1.2905,-1.2905,-1.2905,-1.2905,-1.2905,-1.2905,-1.2905,-1.2905,-1.2905,-1.2642,-1.203,-1.1873,-1.1291,-1.0167,-1.0141,-0.9865,-0.9309,-1.0576,-1.1174,-1.12,-1.2363,-1.2905,-2.1681,-2.1964,-2.1945,-2.1761,-2.0111,-1.808,-1.6464,0.0,0.0,0.0,0.0,-0.8848,-0.8402,0.0,0.0,0.0,0.0,0.0,0.0,0.0,0.0,0.0,0.0,0.0,0.0,0.0,0.0,0.0,0.0,0.0,-1.8018,-1.8008,-1.8008,-1.8008,-1.8008,-1.8202,-1.8654,-1.8236,-1.8236,-1.8654,-1.8202,-1.8008,-1.8008,-1.8008,-1.7783,-1.7363,-1.6892,0.0,-1.6056,-1.5586,-1.541,-1.541,-1.541,-1.541,-1.541,-1.541,-1.541,-1.541,-1.541,-1.541,-1.541,-1.541,-1.541,-1.541,-1.541,-1.4786,-1.4104,-1.4104,-1.3525,-1.2905,-1.2905,-1.2905,-1.2905,-1.2905,-1.2905,-1.2905,-1.2905,-1.2905,-1.2905,-1.2905,-1.2584,-1.232,-1.232,-1.232,-1.2221,-1.1866,-1.2437,-1.2774,-1.2369,-1.2666,-1.2905,-1.2905,-1.2905,-1.2905,-1.2905,-1.2905,-1.2905,-1.2905,-1.2535,-1.2163,-1.1814,-1.1141,-1.0466,-0.9814,-0.9788,-0.9814,-0.984,-1.0838,-1.1525,-1.1916,-1.2593,-1.2905,-2.1568,-2.143,-2.0879,-2.0872,-1.8962,-1.669,-1.5024,-1.2909,0.0,0.0,0.0,-0.8164,-0.7895,0.0,0.0,0.0,0.0,0.0,0.0,0.0,0.0,0.0,0.0,0.0,0.0,0.0,0.0,0.0,0.0,0.0,-1.8027,-1.8008,-1.8008,-1.8008,-1.8168,-1.8529,-1.9011,-1.8529,-1.8529,-1.9011,-1.8337,-1.8008,-1.8008,-1.8008,-1.7783,-1.7363,-1.6892,0.0,0.0,-1.5586,-1.541,-1.541,-1.541,-1.541,-1.541,-1.541,-1.541,-1.541,-1.541,-1.541,-1.541,-1.541,-1.541,-1.541,-1.541,-1.4786,-1.4104,-1.4104,-1.3525,-1.2847,-1.2715,-1.2666,-1.2666,-1.2666,-1.2798,-1.2905,-1.2905,-1.2905,-1.2856,-1.2691,-1.2187,-1.1765,-1.1616,-1.1591,-1.1416,-1.0889,-1.1742,-1.2255,-1.1665,-1.2089,-1.2437,-1.2437,-1.2725,-1.2905,-1.2905,-1.2905,-1.2822,-1.2666,-1.2129,-1.1665,-1.1391,-1.0364,-0.9736,-0.9588,-0.9588,-0.9917,-1.0593,-1.1266,-1.1956,-1.2666,-1.2832,-1.2905,-2.0666,-2.0655,-2.0347,-1.9881,-1.7961,-1.5834,-1.4395,0.0,0.0,0.0,-0.8344,-0.7885,-0.8268,-0.8434,0.0,0.0,0.0,0.0,0.0,0.0,0.0,0.0,0.0,0.0,0.0,0.0,0.0,0.0,0.0,0.0,0.0,-1.8008,-1.8008,-1.8008,-1.8754,-1.8854,-1.8144,-1.8821,-1.8821,-1.811,-1.8042,-1.8008,-1.8008,-1.8008,-1.7783,-1.7363,-1.6892,0.0,0.0,-1.5586,-1.541,-1.541,-1.541,-1.541,-1.541,-1.541,-1.541,-1.541,-1.541,-1.541,-1.541,-1.541,-1.541,-1.541,-1.541,-1.4786,-1.4104,-1.4104,-1.3525,-1.2749,-1.208,-1.1888,-1.1888,-1.1888,-1.2403,-1.2905,-1.2905,-1.2905,-1.2691,-1.203,-1.1839,-1.1616,-1.099,-1.0889,-1.0864,-1.0813,-1.0914,-1.0973,-1.0889,-1.0939,-1.0998,-1.0998,-1.2132,-1.2905,-1.2905,-1.2905,-1.2608,-1.1947,-1.1839,-1.1266,-1.0038,-0.9865,-0.951,-0.891,-0.8883,-0.9211,-0.9891,-1.0568,-1.1241,-1.1922,-1.2584,-1.2905,-1.9305,-1.9317,-1.8994,-1.8417,-1.6771,-1.4965,-1.3638,0.0,0.0,-0.918,-0.8305,-0.7754,-0.7934,-0.8368,-0.8939,0.0,-1.0327,-1.1368,0.0,0.0,0.0,0.0,0.0,0.0,0.0,0.0,0.0,0.0,0.0,0.0,0.0,-1.8008,-1.8008,-1.8008,-1.8854,-1.9144,-1.8787,-1.9144,-1.9144,-1.8787,-1.8236,-1.8008,-1.7998,-1.7744,-1.7402,-1.6963,-1.6523,0.0,0.0,-1.5488,-1.541,-1.541,-1.541,-1.541,-1.541,-1.541,-1.541,-1.541,-1.541,-1.541,-1.541,-1.541,-1.541,-1.541,-1.541,-1.4786,-1.4024,-1.3611,-1.288,-1.208,-1.1366,-1.1491,-1.1789,-1.1789,-1.2369,-1.2774,-1.232,-1.2236,-1.203,-1.1341,-1.0864,-1.0517,-1.0244,-1.0192,-1.0064,-0.9666,-1.0287,-1.0636,-1.0236,-1.0534,-1.0788,-1.0788,-1.1309,-1.1642,-1.1642,-1.1642,-1.1509,-1.1216,-1.0813,-1.0364,-0.9814,-0.9413,-0.9263,-0.9387,-0.9413,-0.9935,-1.099,-1.1266,-1.1774,-1.2476,-1.2774,-1.2905,-1.8085,-1.7993,-1.7529,-1.6913,-1.5566,-1.4072,0.0,0.0,-1.0019,-0.9023,-0.8217,-0.7695,-0.7695,-0.8154,-0.8637,-0.894,-0.9574,-1.0421,-1.1618,0.0,0.0,0.0,0.0,0.0,0.0,0.0,0.0,0.0,0.0,0.0,0.0,-1.8008,-1.8008,-1.8008,-1.911,-1.9562,-1.9299,-1.9562,-1.9562,-1.9299,-1.8428,-1.8008,-1.7998,-1.7578,-1.7148,-1.6677,0.0,0.0,0.0,-1.541,-1.541,-1.541,-1.541,-1.541,-1.541,-1.541,-1.541,-1.541,-1.541,-1.541,-1.541,-1.541,-1.541,-1.541,-1.541,-1.4902,-1.4134,-1.3341,-1.2184,-1.1091,-1.0644,-1.099,-1.1491,-1.1491,-1.2064,-1.2427,-1.1922,-1.1641,-1.1316,-1.0636,-1.0115,-0.9736,-0.9536,-0.9517,-0.9335,-0.8883,-0.9614,-1.0038,-0.9562,-0.9917,-1.0218,-1.0218,-1.0218,-1.0364,-1.0771,-1.0788,-1.0712,-1.0517,-1.0064,-0.971,-0.951,-0.9237,-0.9309,-0.9788,-0.9987,-1.0661,-1.1789,-1.1789,-1.2187,-1.2881,-1.2691,-1.2461,-1.7183,-1.6774,-1.6073,-1.5386,-1.4353,-1.3184,0.0,-1.0929,-0.9941,-0.8669,-0.8037,-0.7695,-0.7695,-0.7695,-0.8002,-0.8867,-0.9338,-1.0215,0.0,0.0,0.0,0.0,0.0,0.0,0.0,0.0,0.0,0.0,0.0,0.0,0.0,-1.8008,-1.8008,-1.8008,-1.9694,-2.0171,-1.9299,-2.0171,-2.0139,-1.9299,-1.8428,-1.8008,-1.7998,-1.7578,-1.7148,0.0,0.0,0.0,0.0,-1.541,-1.541,-1.541,-1.541,-1.541,-1.541,-1.541,-1.541,-1.541,-1.541,-1.541,-1.541,-1.541,-1.541,-1.541,-1.541,-1.5117,-1.4548,-1.3424,-1.1524,-0.9814,-0.9814,-1.032,-1.0813,-1.0813,-1.1316,-1.1814,-1.1789,-1.1291,-1.061,-0.9943,-0.9814,-0.9588,-0.8936,-0.8804,-0.8811,-0.8804,-0.8804,-0.8804,-0.8804,-0.8804,-0.8831,-0.8831,-0.8831,-0.9361,-1.0695,-1.0788,-1.0517,-0.9865,-0.9814,-0.951,-0.8831,-0.9439,-0.9788,-0.9788,-1.044,-1.1116,-1.1789,-1.1789,-1.2187,-1.2881,-1.2153,-1.1466,-1.4003,-1.4113,-1.3989,-1.2991,-1.2474,-1.1937,-1.0939,-1.0244,-0.9561,-0.86,-0.8027,-0.7783,-0.8062,-0.8105,-0.848,-0.9637,-1.0267,0.0,0.0,0.0,0.0,0.0,0.0,0.0,0.0,0.0,0.0,0.0,0.0,0.0,0.0,-1.8008,-1.8008,-1.8008,-1.911,-1.9299,-1.8428,-1.9276,-1.9266,-1.8395,-1.8144,-1.7861,-1.7568,-1.7139,0.0,0.0,0.0,0.0,0.0,-1.541,-1.541,-1.541,-1.541,-1.541,-1.541,-1.541,-1.541,-1.541,-1.541,-1.541,-1.541,-1.541,-1.541,-1.541,-1.541,-1.5117,-1.4398,-1.2528,-1.093,-0.9684,-0.9237,-0.9614,-1.0115,-1.0115,-1.0644,-1.099,-1.0542,-1.0269,-0.9917,-0.9237,-0.9106,-0.9061,-0.8831,-0.8804,-0.8804,-0.8804,-0.8804,-0.8804,-0.8804,-0.8804,-0.8804,-0.8804,-0.8804,-0.8982,-0.9387,-0.9439,-0.9335,-0.914,-0.9106,-0.9237,-0.9458,-0.9692,-1.0236,-1.1141,-1.1391,-1.1832,-1.2559,-1.2559,-1.2403,-1.2129,-1.145,-1.099,0.0,-1.2254,-1.2278,-1.1342,-1.1116,-1.087,-1.0019,-0.959,-0.9185,-0.8504,-0.8133,-0.8048,-0.8421,-0.8491,-0.8816,-0.9807,0.0,0.0,0.0,0.0,0.0,0.0,0.0,0.0,0.0,0.0,0.0,0.0,0.0,0.0,0.0,0.0,-1.7773,-1.7773,-1.8598,-1.8868,-1.8486,-1.8835,-1.8835,-1.8496,-1.8168,-1.7793,-1.7363,-1.6902,0.0,0.0,0.0,0.0,0.0,-1.541,-1.541,-1.541,-1.541,-1.541,-1.541,-1.541,-1.541,-1.541,-1.541,-1.541,-1.541,-1.541,-1.541,-1.541,-1.541,-1.4936,-1.4063,-1.2238,-1.0918,-0.9873,-0.9016,-0.9283,-0.9788,-0.9788,-1.0115,-1.032,-0.9884,-0.9614,-0.9309,-0.8883,-0.8804,-0.8804,-0.8804,-0.8804,-0.8804,-0.8804,-0.8804,-0.8804,-0.8804,-0.8804,-0.8804,-0.8804,-0.8804,-0.8804,-0.8804,-0.8804,-0.8804,-0.8804,-0.8804,-0.8982,-0.9413,-0.9666,-1.0185,-1.104,-1.1291,-1.1649,-1.2107,-1.2107,-1.1742,-1.104,-1.0618,-1.0295,0.0,-1.0888,-1.0822,-1.0269,-1.0146,-0.995,-0.9102,-0.8952,0.0,-0.8396,-0.8308,-0.8471,-0.8889,-0.8881,-0.9043,-0.9736,0.0,0.0,0.0,0.0,0.0,0.0,0.0,0.0,0.0,0.0,0.0,0.0,0.0,0.0,0.0,0.0,-1.7373,-1.7334,-1.8032,-1.8636,-1.9105,-1.8709,-1.8709,-1.9105,-1.8305,-1.7695,-1.7275,-1.6875,0.0,0.0,0.0,0.0,0.0,-1.541,-1.541,-1.541,-1.541,-1.541,-1.541,-1.541,-1.541,-1.541,-1.541,-1.541,-1.541,-1.541,-1.541,-1.541,-1.541,-1.4658,-1.3566,-1.241,-1.1346,-1.0256,-0.911,-0.9263,-0.9744,-0.9744,-0.9744,-0.9744,-0.9744,-0.9237,-0.8804,-0.8804,-0.8804,-0.8804,-0.8804,-0.8804,-0.8804,-0.8804,-0.8804,-0.8804,-0.8804,-0.8804,-0.8804,-0.8804,-0.8804,-0.8804,-0.8804,-0.8804,-0.8804,-0.8804,-0.8804,-0.8831,-0.8857,-0.9465,-0.9814,-0.9865,-1.0491,-1.0788,-1.0788,-1.0737,-1.0415,-0.9788,-0.9762,-0.9387,-0.7357,0.0,-0.8493,-0.8346,-0.8584,-0.8708,0.0,-0.8479,-0.8803,0.0,0.0,-0.9052,-1.0267,-0.9604,-0.9611,0.0,0.0,0.0,0.0,0.0,0.0,0.0,0.0,0.0,0.0,0.0,0.0,0.0,0.0,0.0,0.0,0.0,-1.7227,-1.6863,-1.6751,-1.6884,-1.73,-1.7571,-1.7571,-1.731,-1.7096,-1.6797,-1.6398,-1.63,0.0,0.0,0.0,0.0,-1.541,-1.541,-1.541,-1.541,-1.541,-1.541,-1.541,-1.541,-1.541,-1.541,-1.541,-1.541,-1.541,-1.541,-1.541,-1.541,-1.541,-1.477,-1.3761,-1.2453,-1.143,-1.0415,-0.9127,-0.891,-0.9035,-0.9035,-0.9035,-0.9035,-0.9035,-0.8903,-0.8804,-0.8804,-0.8804,-0.8804,-0.8804,-0.8804,-0.8804,-0.8804,-0.8804,-0.8804,-0.8804,-0.8804,-0.8804,-0.8804,-0.8804,-0.8804,-0.8804,-0.8804,-0.8804,-0.8804,-0.8804,-0.9035,-0.9536,-0.971,-1.0038,-1.0534,-1.0712,-1.0788,-1.0788,-1.0295,-0.9961,-0.9788,-0.9283,-0.8956,-0.6099,-0.7051,-0.8027,-0.8027,-0.835,-0.8603,-0.8353,0.0,0.0,0.0,0.0,0.0,-1.0383,0.0,0.0,0.0,0.0,0.0,0.0,0.0,0.0,0.0,0.0,0.0,0.0,0.0,0.0,0.0,0.0,0.0,0.0,0.0,-1.6701,-1.6436,-1.6222,-1.6279,-1.6697,-1.6768,-1.6768,-1.6697,-1.6697,-1.6494,-1.6095,-1.6095,-1.585,0.0,0.0,0.0,-1.541,-1.541,-1.541,-1.541,-1.541,-1.541,-1.541,-1.541,-1.5177,-1.4844,-1.4844,-1.4844,-1.4894,-1.5294,-1.541,-1.5381,-1.5186,-1.4436,-1.3422,-1.24,-1.1622,-1.0769,-0.9194,-0.8804,-0.8804,-0.8804,-0.8804,-0.8804,-0.8804,-0.8804,-0.8804,-0.8804,-0.8804,-0.8804,-0.8804,-0.8804,-0.8804,-0.8804,-0.8804,-0.8804,-0.8804,-0.8804,-0.8804,-0.8804,-0.8804,-0.8804,-0.8804,-0.8804,-0.8804,-0.8804,-0.8804,-0.8956,-0.9335,-0.9335,-0.951,-0.9865,-0.9891,-0.9891,-0.9891,-0.951,-0.9335,-0.9335,-0.8962,-0.8804,-0.5896,-0.7211,-0.8453,-0.8326,-0.8691,-0.9065,-0.9023,0.0,0.0,0.0,0.0,0.0,0.0,0.0,0.0,0.0,0.0,0.0,0.0,0.0,0.0,0.0,0.0,0.0,0.0,0.0,0.0,0.0,0.0,0.0,0.0,0.0,0.0,-1.5997,-1.5987,-1.6143,-1.6492,-1.6221,-1.6251,-1.6502,-1.6502,-1.6328,-1.5987,-1.5987,-1.5791,0.0,0.0,0.0,-1.541,-1.541,-1.541,-1.541,-1.541,-1.541,-1.5381,-1.5264,-1.4874,-1.4362,-1.4243,-1.4115,-1.4154,-1.4962,-1.5235,-1.5158,-1.481,-1.3969,-1.2922,-1.215,-1.1587,-1.0875,-0.9228,-0.8804,-0.8804,-0.8804,-0.8804,-0.8804,-0.8804,-0.8804,-0.8804,-0.8804,-0.8804,-0.8804,-0.8804,-0.8804,-0.8804,-0.8804,-0.8804,-0.8804,-0.8804,-0.8804,-0.8804,-0.8804,-0.8804,-0.8804,-0.8804,-0.8804,-0.8804,-0.8804,-0.8804,-0.8804,-0.8804,-0.8804,-0.8804,-0.8804,-0.8804,-0.8804,-0.8804,-0.8804,-0.8804,-0.8804,-0.8804,-0.8804,-0.6582,-0.7881,-0.873,-0.7993,-0.8675,-0.9425,-0.9082,0.0,0.0,0.0,0.0,0.0,0.0,0.0,0.0,0.0,0.0,0.0,0.0,0.0,0.0,0.0,0.0,0.0,0.0,0.0,0.0,0.0,0.0,0.0,0.0,0.0,0.0,-1.5527,-1.5508,-1.5547,-1.5615,-1.5938,-1.5938,-1.5615,-1.5615,-1.5576,-1.5508,-1.5508,-1.5478,0.0,0.0,-1.541,-1.541,-1.541,-1.541,-1.541,-1.541,-1.541,-1.5323,-1.4628,-1.4746,-1.5108,-1.4451,-1.3756,-1.3312,-1.4115,-1.4392,-1.4382,-1.4319,-1.3723,-1.2804,-1.1463,-1.0597,-0.9855,-0.9022,-0.8804,-0.8804,-0.8804,-0.8804,-0.8804,-0.8804,-0.8804,-0.8804,-0.8804,-0.8804,-0.8804,-0.8804,-0.8804,-0.8804,-0.8804,-0.8804,-0.8804,-0.8804,-0.8804,-0.8804,-0.8804,-0.8804,-0.8804,-0.8804,-0.8804,-0.8804,-0.8804,-0.8804,-0.8804,-0.8804,-0.8804,-0.8804,-0.8804,-0.8804,-0.8804,-0.8804,-0.8804,-0.8804,-0.8804,-0.8804,-0.8804,-0.5847,-0.7135,-0.8256,-0.8115,-0.9385,-1.0625,-1.0449,0.0,0.0,0.0,0.0,0.0,0.0,0.0,0.0,0.0,0.0,0.0,0.0,0.0,0.0,0.0,0.0,0.0,0.0,0.0,0.0,0.0,0.0,0.0,0.0,0.0,0.0,0.0,-1.541,-1.541,-1.541,-1.5615,-1.5615,-1.541,-1.541,-1.541,-1.541,-1.541,-1.5167,-1.4776,0.0,-1.5138,-1.4785,-1.5235,-1.541,-1.541,-1.541,-1.541,-1.5264,-1.4004,-1.3795,-1.3995,-1.3174,-1.2657,-1.2481,-1.3304,-1.3545,-1.3468,-1.3076,-1.2487,-1.169,-1.0604,-1.0045,-0.964,-0.8982,-0.8804,-0.8804,-0.8804,-0.8804,-0.8804,-0.8804,-0.8804,-0.8804,-0.8804,-0.8804,-0.8804,-0.8804,-0.8804,-0.8804,-0.8804,-0.8804,-0.8804,-0.8804,-0.8804,-0.8804,-0.8804,-0.8804,-0.8804,-0.8804,-0.8804,-0.8804,-0.8804,-0.8804,-0.8804,-0.8804,-0.8804,-0.8804,-0.8804,-0.8804,-0.8804,-0.8804,-0.8804,-0.8804,-0.8804,-0.8804,-0.8804,-0.5487,-0.6616,-0.7866,-0.8516,0.0,-1.1232,-1.1643,0.0,0.0,0.0,0.0,0.0,0.0,0.0,0.0,0.0,0.0,0.0,0.0,0.0,0.0,0.0,0.0,0.0,0.0,0.0,0.0,0.0,0.0,0.0,0.0,0.0,0.0,0.0,-1.541,-1.541,-1.541,-1.541,-1.541,-1.541,-1.541,-1.5294,-1.5108,-1.5108,-1.4776,-1.4213,-1.4658,-1.4688,-1.451,-1.4932,-1.5235,-1.541,-1.541,-1.5177,-1.4688,-1.3455,-1.2765,-1.2366,-1.1958,-1.1679,-1.1648,-1.2451,-1.267,-1.25,-1.1934,-1.1323,-1.0652,-0.9889,-0.962,-0.9439,-0.8929,-0.8804,-0.8804,-0.8804,-0.8804,-0.8804,-0.8804,-0.8804,-0.8804,-0.8804,-0.8804,-0.8804,-0.8804,-0.8804,-0.8804,-0.8804,-0.8804,-0.8804,-0.8804,-0.8804,-0.8804,-0.8804,-0.8804,-0.8804,-0.8804,-0.8804,-0.8804,-0.8804,-0.8804,-0.8804,-0.8804,-0.8804,-0.8804,-0.8804,-0.8804,-0.8804,-0.8804,-0.8804,-0.8804,-0.8804,-0.8804,-0.8804,-0.6609,-0.732,-0.7987,-0.9203,0.0,0.0,-1.1794,-1.1472,0.0,0.0,0.0,0.0,0.0,0.0,0.0,0.0,0.0,0.0,0.0,0.0,0.0,0.0,0.0,0.0,0.0,0.0,0.0,0.0,0.0,0.0,0.0,0.0,0.0,0.0,0.0,-1.541,-1.541,-1.541,-1.541,-1.541,-1.541,-1.5021,-1.4302,-1.4302,-1.4234,-1.4154,-1.3455,-1.4004,-1.5264,-1.4569,-1.4726,-1.541,-1.541,-1.4481,-1.3161,-1.3039,-1.2058,-1.0863,-1.1562,-1.132,-1.0839,-1.1617,-1.1684,-1.142,-1.1367,-1.0958,-1.0364,-0.9487,-0.9065,-0.8857,-0.8804,-0.8804,-0.8804,-0.8804,-0.8804,-0.8804,-0.8804,-0.8804,-0.8804,-0.8804,-0.8804,-0.8804,-0.8804,-0.8804,-0.8804,-0.8804,-0.8804,-0.8804,-0.8804,-0.8804,-0.8804,-0.8804,-0.8804,-0.8804,-0.8804,-0.8804,-0.8804,-0.8804,-0.8804,-0.8804,-0.8804,-0.8804,-0.8804,-0.8804,-0.8804,-0.8804,-0.8804,-0.8804,-0.8804,-0.8804,-0.8804,-0.8804,-0.572,-0.6752,-0.7939,-0.8967,0.0,0.0,0.0,0.0,0.0,0.0,0.0,0.0,0.0,0.0,0.0,0.0,0.0,0.0,0.0,0.0,0.0,0.0,0.0,0.0,0.0,0.0,0.0,0.0,0.0,0.0,0.0,0.0,0.0,0.0,-1.541,-1.541,-1.541,-1.541,-1.541,-1.5381,-1.4894,-1.4481,-1.4183,-1.3666,-1.3183,-1.2749,-1.3455,-1.3825,-1.3965,-1.4658,-1.5147,-1.5352,-1.4844,-1.3965,-1.2948,-1.2451,-1.1872,-1.132,-1.1108,-1.0708,-1.0342,-1.0636,-1.0548,-1.0261,-1.0065,-0.9848,-0.9604,-0.9099,-0.8891,-0.8804,-0.8804,-0.8804,-0.8804,-0.8804,-0.8804,-0.8804,-0.8804,-0.8804,-0.8804,-0.8804,-0.8804,-0.8804,-0.8804,-0.8804,-0.8646,-0.8182,-0.8103,-0.7937,-0.7482,-0.7423,-0.7423,-0.7423,-0.783,-0.8295,-0.8752,-0.8804,-0.8804,-0.8804,-0.8804,-0.8804,-0.8804,-0.8804,-0.8804,-0.8804,-0.8804,-0.8804,-0.8804,-0.8804,-0.8804,-0.8804,-0.8804,-0.8804,-0.5516,-0.6696,-0.809,0.0,0.0,0.0,0.0,0.0,0.0,0.0,0.0,0.0,0.0,0.0,0.0,0.0,0.0,0.0,0.0,0.0,0.0,0.0,0.0,0.0,0.0,0.0,0.0,0.0,0.0,0.0,0.0,0.0,0.0,0.0,-1.541,-1.5294,-1.5021,-1.5255,-1.5255,-1.5021,-1.4451,-1.4064,-1.3786,-1.3,-1.2328,-1.1857,-1.2962,-1.3425,-1.3455,-1.4569,-1.5021,-1.4932,-1.4145,-1.3334,-1.2543,-1.1989,-1.1648,-1.1351,-1.08,-1.0459,-1.0241,-1.0117,-0.992,-0.9626,-0.9297,-0.9144,-0.9038,-0.8864,-0.8804,-0.8804,-0.8804,-0.8804,-0.8804,-0.8804,-0.8804,-0.8804,-0.8804,-0.8804,-0.8804,-0.8804,-0.8804,-0.8725,-0.848,-0.8454,-0.8209,-0.745,-0.7343,-0.7182,-0.6669,-0.6588,-0.6588,-0.6588,-0.7262,-0.791,-0.8401,-0.8672,-0.8804,-0.8804,-0.8804,-0.8804,-0.8804,-0.8804,-0.8804,-0.8804,-0.8804,-0.8804,-0.8804,-0.8804,-0.8804,-0.8804,-0.8804,-0.8804,-0.6396,-0.7373,0.0,0.0,0.0,0.0,0.0,0.0,0.0,0.0,0.0,0.0,0.0,0.0,0.0,0.0,0.0,0.0,0.0,0.0,0.0,0.0,0.0,0.0,0.0,0.0,0.0,0.0,0.0,0.0,0.0,0.0,0.0,0.0,-1.541,-1.5021,-1.4213,-1.4991,-1.4991,-1.4213,-1.4174,-1.3786,-1.2978,-1.2174,-1.1803,-1.1803,-1.1795,-1.271,-1.4183,-1.4183,-1.4183,-1.4124,-1.3312,-1.2512,-1.1803,-1.1795,-1.1288,-1.0593,-1.0586,-1.0586,-1.0533,-1.0207,-0.9913,-0.9619,-0.9297,-0.9004,-0.8804,-0.8804,-0.8804,-0.8804,-0.8804,-0.8804,-0.8804,-0.8804,-0.8804,-0.8804,-0.8804,-0.8804,-0.8804,-0.8804,-0.8804,-0.856,-0.783,-0.7696,-0.745,-0.6696,-0.6588,-0.6588,-0.6588,-0.6588,-0.6588,-0.6588,-0.7235,-0.7696,-0.7696,-0.8374,-0.8778,-0.8804,-0.8804,-0.8804,-0.8804,-0.8804,-0.8804,-0.8804,-0.8804,-0.8804,-0.8804,-0.8804,-0.8804,-0.8804,-0.8804,-0.8804,-0.6056,-0.7578,0.0,0.0,0.0,0.0,0.0,0.0,0.0,0.0,0.0,0.0,0.0,0.0,0.0,0.0,0.0,0.0,0.0,0.0,0.0,0.0,0.0,0.0,0.0,0.0,0.0,0.0,0.0,0.0,0.0,0.0,0.0,0.0,-1.541,-1.5294,-1.505,-1.5294,-1.4991,-1.4174,-1.3644,-1.3524,-1.3816,-1.3,-1.2328,-1.185,-1.2698,-1.2851,-1.2565,-1.3122,-1.3373,-1.3282,-1.2473,-1.202,-1.1741,-1.117,-1.0807,-1.0566,-1.0321,-1.0114,-0.9923,-0.9564,-0.9277,-0.9051,-0.8938,-0.8878,-0.8804,-0.8804,-0.8804,-0.8804,-0.8804,-0.8804,-0.8804,-0.8804,-0.8804,-0.8804,-0.8804,-0.8804,-0.8804,-0.8804,-0.8804,-0.856,-0.783,-0.7696,-0.7283,-0.6009,-0.5814,-0.5655,-0.5171,-0.5117,-0.5304,-0.5764,-0.6032,-0.6578,-0.7616,-0.7916,-0.8235,-0.8778,-0.8804,-0.8804,-0.8804,-0.8804,-0.8804,-0.8804,-0.8804,-0.8804,-0.8804,-0.8804,-0.8804,-0.8804,-0.8804,-0.8804,-0.7041,0.0,0.0,0.0,0.0,0.0,0.0,0.0,0.0,0.0,0.0,0.0,0.0,0.0,0.0,0.0,0.0,0.0,0.0,0.0,0.0,0.0,0.0,0.0,0.0,0.0,0.0,0.0,0.0,0.0,0.0,0.0,0.0,0.0,-1.5156,-1.4917,-1.4451,-1.4746,-1.4353,-1.3226,-1.298,-1.3093,-1.3537,-1.2366,-1.1585,-1.1173,-1.2136,-1.236,-1.2147,-1.2451,-1.2557,-1.248,-1.2015,-1.1631,-1.1305,-1.0998,-1.0684,-1.0354,-1.018,-0.9927,-0.9633,-0.9311,-0.9091,-0.8931,-0.8844,-0.8804,-0.8804,-0.8804,-0.8804,-0.8804,-0.8804,-0.8804,-0.8804,-0.8804,-0.8804,-0.8804,-0.8804,-0.8804,-0.8725,-0.8427,-0.8374,-0.8043,-0.7009,-0.6821,-0.6438,-0.5273,-0.5109,-0.4948,-0.4543,-0.4491,-0.4653,-0.5054,-0.5351,-0.5869,-0.674,-0.7095,-0.7456,-0.7889,-0.791,-0.791,-0.791,-0.848,-0.8804,-0.8804,-0.8804,-0.8804,-0.8804,-0.8804,-0.8804,-0.8804,-0.8804,-0.8804,0.0,0.0,0.0,0.0,0.0,0.0,0.0,0.0,0.0,0.0,0.0,0.0,0.0,0.0,0.0,0.0,0.0,0.0,0.0,0.0,0.0,0.0,0.0,0.0,0.0,0.0,0.0,0.0,0.0,0.0,0.0,0.0,0.0,0.0,-1.4727,-1.4184,-1.3022,-1.374,-1.3284,0.0,-1.2217,-1.2402,-1.2277,-1.09,-1.0264,-1.0253,-1.0682,-1.1487,-1.2435,-1.197,-1.18,-1.1798,-1.173,-1.1269,-1.066,-1.1024,-1.0684,-1.0074,-1.0017,-0.986,-0.9593,-0.9271,-0.9171,-0.9124,-0.8884,-0.8804,-0.8804,-0.8804,-0.8804,-0.8804,-0.8804,-0.8804,-0.8804,-0.8804,-0.8804,-0.8804,-0.8804,-0.8752,-0.8507,-0.783,-0.7643,-0.7149,-0.5733,-0.5515,-0.5273,-0.4598,-0.4491,-0.4491,-0.4491,-0.4491,-0.4515,-0.4598,-0.5136,-0.5542,-0.5678,-0.6308,-0.6723,-0.6804,-0.6804,-0.6804,-0.6804,-0.8023,-0.8699,-0.8699,-0.8752,-0.8804,-0.8804,-0.8725,-0.8725,-0.8804,-0.8725,-0.8699,0.0,0.0,0.0,0.0,0.0,0.0,0.0,0.0,0.0,0.0,0.0,0.0,0.0,0.0,0.0,0.0,0.0,0.0,0.0,0.0,0.0,0.0,0.0,0.0,0.0,0.0,0.0,0.0,0.0,0.0,0.0,0.0,0.0,-1.4241,-1.425,-1.3872,-1.3089,-1.3256,-1.2566,0.0,-1.1214,-1.0934,-1.0349,-1.1256,-1.1487,-1.1169,-1.088,-1.1045,-1.154,-1.1132,-1.1316,-1.1776,-1.0624,-1.043,-1.077,-1.0254,-0.9942,-0.9746,-0.9484,-0.9357,-0.9257,-0.8971,-0.8871,-0.8865,-0.8824,-0.8804,-0.8804,-0.8804,-0.8804,-0.8804,-0.8804,-0.8804,-0.8804,-0.8804,-0.8804,-0.8804,-0.8804,-0.8342,-0.7883,-0.7723,-0.7235,-0.6556,-0.5651,-0.5515,-0.5273,-0.4598,-0.4491,-0.4491,-0.4491,-0.4491,-0.4708,-0.5218,-0.5406,-0.5977,-0.7122,-0.7369,-0.7696,-0.8295,-0.8321,-0.8321,-0.8321,-0.8076,-0.7943,-0.7943,-0.8507,-0.8804,-0.8804,-0.8209,-0.8235,-0.8778,-0.8209,-0.7943,0.0,0.0,0.0,0.0,0.0,0.0,0.0,0.0,0.0,0.0,0.0,0.0,0.0,0.0,0.0,0.0,0.0,0.0,0.0,0.0,0.0,0.0,0.0,0.0,0.0,0.0,0.0,0.0,0.0,0.0,0.0,-1.3535,-1.3597,-1.3802,-1.3802,-1.3404,-1.2539,-1.252,-1.1799,-1.0322,-1.0165,-0.9799,-0.9293,-1.028,-1.0518,-1.0189,-0.991,-0.9975,-1.0307,-1.0295,-1.0509,-1.0755,-1.0042,-0.9974,-1.0251,-0.969,-0.9472,-0.9424,-0.9264,-0.9124,-0.8984,-0.8858,-0.8804,-0.8804,-0.8804,-0.8804,-0.8804,-0.8804,-0.8804,-0.8804,-0.8804,-0.8804,-0.8804,-0.8804,-0.8804,-0.8804,-0.8804,-0.8209,-0.7589,-0.7235,-0.6583,-0.5846,-0.5136,-0.503,-0.4893,-0.4543,-0.4491,-0.4491,-0.4491,-0.4491,-0.4759,-0.5433,-0.5515,-0.595,-0.7074,-0.7182,-0.7343,-0.7723,-0.775,-0.775,-0.775,-0.7723,-0.7857,-0.8209,-0.8613,-0.8619,-0.8262,-0.7883,-0.7723,-0.775,-0.7343,-0.7182,0.0,0.0,0.0,0.0,0.0,0.0,0.0,0.0,0.0,0.0,0.0,0.0,0.0,0.0,0.0,0.0,0.0,0.0,0.0,0.0,0.0,0.0,0.0,0.0,0.0,0.0,0.0,0.0,0.0,0.0,-1.2905,-1.2905,-1.2988,-1.3192,-1.3202,-1.2673,-1.154,-1.1548,-1.092,-0.9719,-0.9438,-0.9119,-0.8818,-0.9031,-0.9004,-0.8811,-0.8936,-0.9098,-0.933,-0.9671,-0.9775,-0.9706,-0.964,-0.96,-0.9506,-0.9231,-0.9138,-0.9138,-0.9138,-0.8984,-0.8804,-0.8804,-0.8804,-0.8804,-0.8804,-0.8804,-0.8804,-0.8804,-0.8804,-0.8804,-0.8804,-0.8804,-0.8804,-0.8804,-0.8699,-0.8619,-0.8619,-0.8023,-0.7289,-0.6556,-0.5819,-0.5164,-0.4598,-0.4491,-0.4491,-0.4491,-0.4491,-0.4491,-0.4491,-0.4491,-0.4814,-0.5597,-0.5678,-0.6032,-0.6912,-0.6966,-0.6966,-0.6966,-0.6858,-0.6777,-0.6777,-0.7262,-0.7803,-0.8401,-0.8533,-0.8235,-0.7503,-0.7369,-0.7069,-0.6588,-0.6475,-0.6421,0.0,0.0,0.0,0.0,0.0,0.0,0.0,0.0,0.0,0.0,0.0,0.0,0.0,0.0,0.0,0.0,0.0,0.0,0.0,0.0,0.0,0.0,0.0,0.0,0.0,0.0,0.0,0.0,0.0,0.0,-1.2905,-1.2905,-1.2637,-1.2045,-1.202,-1.1395,-1.0098,-1.0072,-0.9967,-0.9791,-0.9747,-0.9404,-0.8804,-0.8844,-0.8844,-0.8831,-0.9413,-0.9688,-0.9725,-0.9777,-0.9788,-0.9731,-0.9167,-0.8931,-0.8918,-0.8878,-0.8864,-0.8864,-0.8864,-0.8838,-0.8804,-0.8804,-0.8804,-0.8804,-0.8804,-0.8804,-0.8804,-0.8804,-0.8804,-0.8804,-0.8804,-0.8804,-0.8804,-0.8804,-0.8315,-0.7857,-0.7857,-0.7262,-0.6529,-0.5787,-0.5085,-0.4598,-0.4519,-0.4491,-0.4491,-0.4491,-0.4491,-0.4491,-0.4491,-0.4491,-0.5007,-0.6312,-0.6453,-0.702,-0.8401,-0.8507,-0.8507,-0.8507,-0.791,-0.7563,-0.7563,-0.7047,-0.6804,-0.6885,-0.7536,-0.7482,-0.675,-0.6118,-0.6064,-0.6588,-0.5955,-0.5651,0.0,0.0,0.0,0.0,0.0,0.0,0.0,0.0,0.0,0.0,0.0,0.0,0.0,0.0,0.0,0.0,0.0,0.0,0.0,0.0,0.0,0.0,0.0,0.0,0.0,0.0,0.0,0.0,0.0,-1.2905,-1.2905,-1.2501,-1.2138,-1.1814,-1.1789,-1.1341,-1.0364,-1.0737,-1.0542,-0.9788,-0.9413,-0.9087,-0.8804,-0.8804,-0.8804,-0.8804,-0.9106,-0.9237,-0.9237,-0.9237,-0.9237,-0.9211,-0.891,-0.8804,-0.8804,-0.8804,-0.8804,-0.8804,-0.8804,-0.8804,-0.8804,-0.8804,-0.8804,-0.8804,-0.8804,-0.8804,-0.8725,-0.8295,-0.848,-0.8699,-0.8295,-0.848,-0.8804,-0.8804,-0.8235,-0.7503,-0.6848,-0.633,-0.5792,-0.5085,-0.4708,-0.4491,-0.4491,-0.4491,-0.4491,-0.4491,-0.4491,-0.4491,-0.4491,-0.4491,-0.4869,-0.5873,-0.5982,-0.6416,-0.7477,-0.7563,-0.7563,-0.7563,-0.7262,-0.7074,-0.7074,-0.6777,-0.6394,-0.5982,-0.6718,-0.6718,-0.5982,-0.5651,-0.5464,-0.5418,-0.5085,-0.4948,0.0,0.0,0.0,0.0,0.0,0.0,0.0,0.0,0.0,0.0,0.0,0.0,0.0,0.0,0.0,0.0,0.0,0.0,0.0,0.0,0.0,0.0,0.0,0.0,0.0,0.0,0.0,0.0,0.0,-1.2905,-1.2905,-1.2369,-1.1922,-1.1566,-1.1541,-1.1141,-1.0287,-1.0965,-1.0686,-0.9536,-0.9211,-0.8956,-0.8804,-0.8804,-0.8804,-0.8804,-0.8804,-0.8804,-0.8804,-0.8804,-0.8804,-0.8804,-0.8804,-0.8804,-0.8804,-0.8804,-0.8804,-0.8778,-0.8593,-0.8507,-0.8507,-0.8507,-0.8401,-0.8315,-0.8699,-0.8672,-0.8454,-0.8076,-0.8374,-0.8672,-0.8129,-0.8401,-0.8752,-0.856,-0.7963,-0.7122,-0.6027,-0.5515,-0.5109,-0.4598,-0.4491,-0.4491,-0.4491,-0.4491,-0.4491,-0.4491,-0.4491,-0.4491,-0.4491,-0.4491,-0.4759,-0.5433,-0.5515,-0.5787,-0.6534,-0.6588,-0.6588,-0.6588,-0.6421,-0.6312,-0.6312,-0.615,-0.5823,-0.5246,-0.5796,-0.5796,-0.5246,-0.5246,-0.5003,-0.4491,-0.4491,-0.4491,0.0,0.0,0.0,0.0,0.0,0.0,0.0,0.0,0.0,0.0,0.0,0.0,0.0,0.0,0.0,0.0,0.0,0.0,0.0,0.0,0.0,0.0,0.0,0.0,0.0,0.0,0.0,0.0,0.0,-1.2905,-1.2905,-1.2847,-1.223,-1.0889,-1.0838,-1.0218,-0.891,-0.9562,-0.9536,-0.8857,-0.9465,-0.9413,-0.8804,-0.8804,-0.8804,-0.8804,-0.8804,-0.8804,-0.8804,-0.8804,-0.8804,-0.8804,-0.8804,-0.8804,-0.8804,-0.8804,-0.8804,-0.8699,-0.7996,-0.775,-0.775,-0.775,-0.7289,-0.6966,-0.8374,-0.8315,-0.7883,-0.8566,-0.8778,-0.8778,-0.8752,-0.8778,-0.8619,-0.791,-0.7182,-0.6448,-0.5678,-0.5003,-0.4546,-0.4519,-0.4491,-0.4491,-0.4491,-0.4491,-0.4491,-0.4491,-0.4491,-0.4491,-0.4491,-0.4491,-0.4759,-0.5433,-0.5515,-0.5787,-0.6534,-0.6588,-0.6588,-0.6588,-0.5955,-0.5569,-0.5569,-0.4948,-0.4601,-0.4543,-0.4598,-0.4598,-0.4543,-0.4543,-0.4543,-0.4491,-0.4491,-0.4491,0.0,0.0,0.0,0.0,0.0,0.0,0.0,0.0,0.0,0.0,0.0,0.0,0.0,0.0,0.0,0.0,0.0,0.0,0.0,0.0,0.0,0.0,0.0,0.0,0.0,0.0,0.0,0.0,0.0,0.0,-1.2905,-1.2049,-1.1334,-1.0813,-1.0389,-1.0141,-1.009,-0.9891,-0.9692,-0.9439,-0.9237,-0.9035,-0.8804,-0.8804,-0.8804,-0.8804,-0.8804,-0.8804,-0.8804,-0.8804,-0.8804,-0.8804,-0.8804,-0.8804,-0.8752,-0.8262,-0.8103,-0.7996,-0.7262,-0.6993,-0.6993,-0.6993,-0.6804,-0.6696,-0.7235,-0.7208,-0.7047,-0.7321,-0.7723,-0.8103,-0.8103,-0.8103,-0.7818,-0.6731,-0.596,-0.5355,-0.5065,-0.4724,-0.4491,-0.4491,-0.4491,-0.4491,-0.4491,-0.4491,-0.4491,-0.4491,-0.4491,-0.4525,-0.4624,-0.4552,-0.4647,-0.5078,-0.4967,-0.4993,-0.5361,-0.5294,-0.5254,-0.5254,-0.5007,-0.4866,-0.4866,-0.4625,-0.4491,-0.4491,-0.4491,-0.4491,-0.4491,-0.4491,-0.4491,-0.4491,-0.4491,-0.4491,0.0,0.0,0.0,0.0,0.0,0.0,0.0,0.0,0.0,0.0,0.0,0.0,0.0,0.0,0.0,0.0,0.0,0.0,0.0,0.0,0.0,0.0,0.0,0.0,0.0,0.0,0.0,0.0,0.0,0.0,-1.2206,-1.13,-1.0686,-1.0466,-0.9814,-0.9692,-1.0115,-0.9692,-0.9465,-0.9465,-0.9008,-0.8804,-0.8778,-0.8533,-0.856,-0.8778,-0.8533,-0.856,-0.8804,-0.8804,-0.8804,-0.8778,-0.8533,-0.8427,-0.8348,-0.7616,-0.7343,-0.7235,-0.6475,-0.6231,-0.6231,-0.6231,-0.6068,-0.5991,-0.6453,-0.6421,-0.634,-0.6831,-0.7316,-0.7696,-0.7696,-0.7337,-0.6749,-0.5899,-0.5218,-0.476,-0.4697,-0.46,-0.4491,-0.4491,-0.4491,-0.4505,-0.4559,-0.4525,-0.4508,-0.4559,-0.4566,-0.4604,-0.4677,-0.4675,-0.4694,-0.4867,-0.4691,-0.4607,-0.468,-0.458,-0.4491,-0.4491,-0.4491,-0.4491,-0.4491,-0.4491,-0.4491,-0.4491,-0.4491,-0.4491,-0.4491,-0.4491,-0.4491,-0.4491,-0.4491,-0.4491,0.0,0.0,0.0,0.0,0.0,0.0,0.0,0.0,0.0,0.0,0.0,0.0,0.0,0.0,0.0,0.0,0.0,0.0,0.0,0.0,0.0,0.0,0.0,0.0,0.0,0.0,0.0,0.0,0.0,-1.0788,-1.0788,-1.0788,-1.0466,-0.9788,-0.9133,-0.8804,-0.8804,-0.8804,-0.8804,-0.8804,-0.8804,-0.8778,-0.8752,-0.8023,-0.8076,-0.8699,-0.7996,-0.8103,-0.8778,-0.8778,-0.8778,-0.8699,-0.799,-0.7696,-0.7589,-0.6831,-0.6561,-0.6453,-0.5733,-0.546,-0.546,-0.546,-0.503,-0.4763,-0.6122,-0.6036,-0.5787,-0.723,-0.7637,-0.7637,-0.7637,-0.6583,-0.55,-0.5496,-0.5088,-0.4704,-0.4697,-0.4607,-0.4505,-0.4505,-0.4505,-0.4552,-0.467,-0.4604,-0.4552,-0.4674,-0.4697,-0.4701,-0.4704,-0.483,-0.4891,-0.4901,-0.4792,-0.4697,-0.4697,-0.4586,-0.4494,-0.4491,-0.4491,-0.4491,-0.4491,-0.4491,-0.4491,-0.4491,-0.4491,-0.4491,-0.446,-0.4491,-0.4491,-0.4491,-0.4487,-0.446,-0.5195,0.0,0.0,0.0,0.0,0.0,0.0,0.0,0.0,0.0,0.0,0.0,0.0,0.0,0.0,0.0,0.0,0.0,0.0,0.0,0.0,0.0,0.0,0.0,0.0,0.0,0.0,0.0,-1.0542,-1.0788,-1.0788,-1.0338,-0.9762,-0.9113,-0.891,-0.8804,-0.8804,-0.8804,-0.8804,-0.8804,-0.8804,-0.8507,-0.7996,-0.7803,-0.7509,-0.7235,-0.7563,-0.7803,-0.8049,-0.8593,-0.848,-0.799,-0.7777,-0.7369,-0.6804,-0.6064,-0.5814,-0.5706,-0.5003,-0.4787,-0.4787,-0.4787,-0.4653,-0.457,-0.4956,-0.4924,-0.4952,-0.5869,-0.6113,-0.6113,-0.6113,-0.5975,-0.5689,-0.5077,-0.4968,-0.4951,-0.4877,-0.4823,-0.4792,-0.4792,-0.4792,-0.4806,-0.485,-0.4819,-0.4806,-0.485,-0.4857,-0.4894,-0.4965,-0.4924,-0.4999,-0.5248,-0.5009,-0.4857,-0.4857,-0.4714,-0.4607,-0.4498,-0.4491,-0.4491,-0.4491,-0.4491,-0.4491,-0.4491,-0.4491,-0.4208,-0.3622,-0.4208,-0.4491,-0.4491,-0.3959,-0.368,0.0,0.0,0.0,0.0,0.0,0.0,0.0,0.0,0.0,0.0,0.0,0.0,0.0,0.0,0.0,0.0,0.0,0.0,0.0,0.0,0.0,0.0,0.0,0.0,0.0,0.0,0.0,-0.9413,-0.9736,-0.9969,-0.9969,-0.9588,-0.9211,-0.8804,-0.8804,-0.8804,-0.8804,-0.8804,-0.8804,-0.8804,-0.848,-0.8103,-0.767,-0.7063,-0.6718,-0.6615,-0.6718,-0.6961,-0.7262,-0.7696,-0.7803,-0.7637,-0.7009,-0.6524,-0.6064,-0.5355,-0.5085,-0.503,-0.4625,-0.4491,-0.4491,-0.4491,-0.4491,-0.4491,-0.4491,-0.4491,-0.4653,-0.53,-0.5515,-0.5515,-0.5515,-0.543,-0.5267,-0.481,-0.487,-0.5005,-0.4982,-0.506,-0.5067,-0.4914,-0.4887,-0.4908,-0.4965,-0.4928,-0.4908,-0.4968,-0.4975,-0.5005,-0.509,-0.5114,-0.5169,-0.5378,-0.5098,-0.4887,-0.4887,-0.4721,-0.4586,-0.4494,-0.4491,-0.4491,-0.4491,-0.4491,-0.4349,-0.4015,-0.3984,-0.3622,-0.2843,-0.3959,-0.4349,-0.4015,-0.3262,-0.2871,0.0,0.0,0.0,0.0,0.0,0.0,0.0,-0.705,0.0,0.0,0.0,0.0,0.0,0.0,0.0,0.0,0.0,0.0,0.0,0.0,0.0,0.0,0.0,0.0,0.0,0.0,-0.8804,-0.8804,-0.8804,-0.8804,-0.8804,-0.8804,-0.8804,-0.8804,-0.8804,-0.8804,-0.8804,-0.8804,-0.8752,-0.8672,-0.8017,-0.7616,-0.7423,-0.6113,-0.5819,-0.634,-0.576,-0.5869,-0.6475,-0.6475,-0.6858,-0.7316,-0.6005,-0.546,-0.5324,-0.4732,-0.4491,-0.4491,-0.4491,-0.4491,-0.4491,-0.4491,-0.4491,-0.4491,-0.4491,-0.4491,-0.4625,-0.5218,-0.5378,-0.5382,-0.5403,-0.499,-0.4576,-0.4684,-0.4847,-0.4968,-0.5076,-0.525,-0.5284,-0.4892,-0.4812,-0.4851,-0.4973,-0.4797,-0.4727,-0.4944,-0.4964,-0.5024,-0.5123,-0.5277,-0.5395,-0.5395,-0.5125,-0.4931,-0.4914,-0.4677,-0.4504,-0.4404,-0.447,-0.4436,-0.4267,-0.4405,-0.407,-0.3204,-0.3093,-0.276,-0.2202,-0.3566,-0.3901,-0.3262,-0.2454,-0.2091,-0.6978,-0.7397,-0.7886,0.0,0.0,0.0,0.0,-0.6121,0.0,0.0,0.0,0.0,0.0,0.0,0.0,0.0,0.0,0.0,0.0,0.0,0.0,0.0,0.0,0.0,0.0,-0.8742,-0.8804,-0.8804,-0.8804,-0.8804,-0.8804,-0.8804,-0.8804,-0.8804,-0.8804,-0.8804,-0.8804,-0.8804,-0.8507,-0.791,-0.7777,-0.7069,-0.5919,-0.5624,-0.5273,-0.4924,-0.5328,-0.5569,-0.5706,-0.5706,-0.5787,-0.5896,-0.562,-0.5164,-0.468,-0.4546,-0.4491,-0.4491,-0.4491,-0.4491,-0.4491,-0.4491,-0.4491,-0.4491,-0.4491,-0.4491,-0.4515,-0.4653,-0.4704,-0.4709,-0.4837,-0.4852,-0.484,-0.4867,-0.5081,-0.5279,-0.512,-0.525,-0.5143,-0.4322,-0.4181,-0.4189,-0.421,-0.36,-0.3364,-0.4111,-0.4216,-0.4482,-0.5249,-0.5375,-0.5395,-0.5395,-0.5344,-0.5226,-0.5069,-0.4897,-0.4509,-0.3808,-0.4219,-0.3932,-0.2704,-0.3846,-0.3846,-0.2454,-0.184,-0.1758,-0.2202,-0.2508,-0.2565,-0.2425,-0.1675,-0.1312,0.0,0.0,-0.8551,-0.7992,0.0,0.0,0.0,0.0,0.0,0.0,0.0,0.0,0.0,0.0,0.0,0.0,0.0,0.0,0.0,0.0,0.0,0.0,0.0,0.0,0.0,-0.8612,-0.8651,-0.8798,-0.8804,-0.8804,-0.8804,-0.8804,-0.8804,-0.8804,-0.8804,-0.8804,-0.8804,-0.8804,-0.8427,-0.7696,-0.7316,-0.6578,-0.5483,-0.5164,-0.4814,-0.4515,-0.4866,-0.5003,-0.5003,-0.5003,-0.5003,-0.5003,-0.5003,-0.4787,-0.4491,-0.4491,-0.4491,-0.4491,-0.4491,-0.4491,-0.4491,-0.4491,-0.4491,-0.4491,-0.4491,-0.4491,-0.4491,-0.4491,-0.4491,-0.4525,-0.4679,-0.4748,-0.4843,-0.4958,-0.5138,-0.5247,-0.5247,-0.5341,-0.5259,-0.4788,-0.3982,-0.3347,-0.3347,-0.2978,-0.2845,-0.3278,-0.3347,-0.368,-0.4586,-0.4317,-0.4217,-0.4652,-0.4265,-0.3913,-0.3823,-0.3635,-0.3367,-0.2932,-0.318,-0.301,-0.2232,-0.2954,-0.2815,-0.1675,-0.0923,-0.0727,-0.109,-0.109,-0.1284,-0.1647,-0.0895,-0.056,0.0,0.0,0.0,0.0,0.0,-0.7173,0.0,0.0,0.0,-0.6183,0.0,0.0,0.0,0.0,0.0,0.0,0.0,0.0,0.0,0.0,0.0,0.0,0.0,0.0,0.0,-0.8296,-0.8257,-0.8611,-0.8584,-0.8597,-0.8717,-0.8778,-0.8804,-0.8804,-0.8804,-0.8804,-0.8804,-0.8804,-0.8427,-0.7696,-0.6966,-0.6199,-0.5487,-0.4814,-0.4491,-0.4491,-0.4491,-0.4491,-0.4491,-0.4491,-0.4491,-0.4491,-0.4491,-0.4491,-0.4491,-0.4491,-0.4405,-0.4267,-0.4267,-0.4181,-0.407,-0.407,-0.407,-0.407,-0.407,-0.407,-0.4098,-0.4236,-0.4294,-0.4365,-0.4658,-0.4735,-0.4809,-0.5104,-0.5143,-0.5209,-0.5368,-0.5395,-0.5359,-0.516,-0.3949,-0.2911,-0.2744,-0.241,-0.2243,-0.241,-0.2444,-0.2744,-0.3647,-0.3145,-0.2978,-0.368,-0.3019,-0.2528,-0.2528,-0.2374,-0.2203,-0.2041,-0.2123,-0.2079,-0.1786,-0.1786,-0.1563,-0.1118,-0.0364,0.0,0.0,0.0,-0.0308,-0.0867,-0.028,0.0,0.0,0.0,0.0,0.0,-0.8538,0.0,0.0,0.0,-0.615,-0.492,0.0,0.0,0.0,0.0,0.0,0.0,0.0,0.0,0.0,0.0,0.0,0.0,0.0,0.0,0.0,0.0,-0.7393,-0.7959,-0.7776,-0.7879,-0.8422,-0.8664,-0.8804,-0.8804,-0.8804,-0.8804,-0.8804,-0.8804,-0.8427,-0.7696,-0.6966,-0.6199,-0.5487,-0.4814,-0.4491,-0.4491,-0.4491,-0.4491,-0.4491,-0.4491,-0.4491,-0.4491,-0.4491,-0.4491,-0.4491,-0.4491,-0.4042,-0.3428,-0.3428,-0.301,-0.2454,-0.2454,-0.2454,-0.2454,-0.2454,-0.2454,-0.2619,-0.3317,-0.3511,-0.3733,-0.4637,-0.4864,-0.4965,-0.5296,-0.5368,-0.5375,-0.5392,-0.5395,-0.516,-0.4317,-0.3982,-0.3613,-0.2845,-0.1376,-0.0572,-0.1341,-0.1474,-0.1808,-0.2744,-0.2744,-0.2744,-0.2845,-0.2736,-0.2666,-0.2666,-0.256,-0.2172,-0.1441,-0.1901,-0.1612,-0.0308,-0.0252,-0.0532,-0.109,-0.0364,0.0,0.0,0.0,-0.0056,-0.0112,-0.0028,0.0,0.0,0.0,0.0,0.0,0.0,0.0,0.0,0.0,-0.5794,0.0,0.0,0.0,0.0,0.0,0.0,0.0,0.0,0.0,0.0,0.0,0.0,0.0,0.0,0.0,0.0,0.0,0.0,0.0,0.0,-0.7475,-0.8083,-0.8397,-0.8637,-0.8804,-0.8804,-0.8804,-0.8804,-0.8374,-0.7803,-0.7047,-0.6308,-0.5601,-0.4921,-0.4625,-0.4491,-0.4491,-0.4491,-0.4491,-0.4491,-0.4491,-0.4491,-0.446,-0.3984,-0.3818,-0.3873,-0.3873,-0.3345,-0.2676,-0.2676,-0.2454,-0.2202,-0.2202,-0.2202,-0.2202,-0.2202,-0.2202,-0.2258,-0.2621,-0.2704,-0.2945,-0.3991,-0.4272,-0.446,-0.5225,-0.5395,-0.5395,-0.5395,-0.5395,-0.5292,-0.4891,-0.4384,-0.3713,-0.2845,-0.1609,-0.0706,-0.0572,-0.0538,-0.0873,-0.1775,-0.1442,-0.1342,-0.1842,-0.1442,-0.1141,-0.1141,-0.108,-0.0897,-0.057,-0.0785,-0.0643,-0.0029,0.0,-0.014,-0.0448,-0.0168,0.0,0.0,0.0,0.0,0.0,0.0,0.0,-0.7976,0.0,0.0,0.0,0.0,0.0,0.0,0.0,0.0,0.0,0.0,0.0,0.0,0.0,0.0,0.0,0.0,0.0,0.0,0.0,0.0,0.0,0.0,0.0,0.0,0.0,0.0,0.0,0.0,0.0,-0.7619,-0.8043,-0.8383,-0.8677,-0.8764,-0.8804,-0.8804,-0.8076,-0.7423,-0.6885,-0.595,-0.5246,-0.4759,-0.4598,-0.4491,-0.4491,-0.4491,-0.4491,-0.4491,-0.4491,-0.4377,-0.4125,-0.3539,-0.3093,-0.2788,-0.301,-0.2565,-0.1898,-0.1898,-0.1758,-0.1591,-0.1591,-0.1591,-0.1591,-0.1591,-0.1591,-0.1647,-0.1842,-0.1898,-0.2124,-0.3174,-0.3442,-0.3649,-0.4459,-0.4652,-0.4652,-0.4652,-0.4652,-0.4652,-0.4652,-0.4115,-0.3347,-0.2477,-0.1742,-0.1006,-0.0135,0.0,-0.0236,-0.0873,-0.0404,-0.0236,-0.0873,-0.037,0.0,0.0,0.0,0.0,0.0,0.0,0.0,0.0,0.0,0.0,0.0,0.0,0.0,0.0,0.0,0.0,0.0,0.0,0.0,0.0,0.0,0.0,-0.6861,0.0,0.0,0.0,0.0,-0.6088,0.0,0.0,0.0,0.0,0.0,0.0,0.0,0.0,0.0,0.0,0.0,0.0,0.0,0.0,0.0,0.0,0.0,0.0,0.0,0.0,0.0,-0.6945,-0.7592,-0.8059,-0.8402,-0.8657,-0.8804,-0.8804,-0.8076,-0.7696,-0.7643,-0.6195,-0.5483,-0.5433,-0.4787,-0.4491,-0.4491,-0.4491,-0.4491,-0.4491,-0.4491,-0.4042,-0.3345,-0.3372,-0.2482,-0.1257,-0.1981,-0.1758,-0.1146,-0.1146,-0.0671,-0.0084,-0.0084,-0.0084,-0.0084,-0.0084,-0.0084,-0.0224,-0.0923,-0.1146,-0.1362,-0.2298,-0.2552,-0.2589,-0.2742,-0.2778,-0.2778,-0.2778,-0.2778,-0.2778,-0.2778,-0.2778,-0.2444,-0.1507,-0.1307,-0.1006,-0.0135,0.0,0.0,-0.0034,-0.0034,0.0,-0.0034,0.0,0.0,0.0,0.0,0.0,0.0,0.0,0.0,0.0,0.0,0.0,0.0,0.0,0.0,0.0,0.0,0.0,0.0,0.0,0.0,0.0,0.0,-0.8056,-0.7363,0.0,0.0,0.0,0.0,0.0,0.0,0.0,0.0,0.0,0.0,0.0,0.0,0.0,0.0,0.0,0.0,0.0,0.0,0.0,0.0,0.0,0.0,0.0,0.0,0.0,0.0,0.0,-0.6964,-0.7693,-0.8363,-0.8657,-0.856,-0.8076,-0.7343,-0.6718,-0.6222,-0.53,-0.4842,-0.4842,-0.4598,-0.4491,-0.4491,-0.4491,-0.4491,-0.4491,-0.4491,-0.4015,-0.3259,-0.2788,-0.1981,-0.1118,-0.1368,-0.1006,-0.0364,-0.0364,-0.0196,0.0,0.0,0.0,0.0,0.0,0.0,-0.0056,-0.0288,-0.0376,-0.0587,-0.1467,-0.1712,-0.1888,-0.2555,-0.2711,-0.2711,-0.2711,-0.2711,-0.2711,-0.2711,-0.2711,-0.241,-0.1474,-0.1307,-0.1006,-0.0135,0.0,0.0,0.0,0.0,0.0,0.0,0.0,0.0,0.0,0.0,0.0,0.0,0.0,0.0,0.0,0.0,0.0,0.0,0.0,0.0,0.0,0.0,0.0,0.0,0.0,0.0,-0.7793,-0.7846,0.0,-0.6938,-0.6552,0.0,-0.5748,0.0,0.0,0.0,0.0,0.0,0.0,0.0,0.0,0.0,0.0,0.0,0.0,0.0,0.0,0.0,0.0,0.0,0.0,0.0,-0.3117,-0.3649,0.0,0.0,0.0,0.0,-0.7267,-0.8203,-0.8333,-0.8182,-0.7696,-0.6718,-0.5982,-0.5487,-0.4814,-0.4491,-0.4491,-0.4491,-0.4491,-0.4491,-0.4491,-0.4491,-0.4487,-0.4184,-0.3624,-0.2843,-0.2093,-0.1369,-0.0699,-0.0699,-0.042,0.0,0.0,0.0,0.0,0.0,0.0,0.0,0.0,0.0,0.0,0.0,0.0,-0.0121,-0.07,-0.0838,-0.1006,-0.16,-0.1744,-0.1744,-0.1744,-0.1744,-0.1744,-0.1744,-0.1744,-0.1543,-0.094,-0.0839,-0.0638,-0.0101,0.0,0.0,0.0,0.0,0.0,0.0,0.0,0.0,0.0,0.0,0.0,0.0,0.0,0.0,0.0,0.0,0.0,0.0,0.0,0.0,0.0,0.0,0.0,0.0,0.0,0.0]}]]